[[{"header":{"parameterUnit":"m.s-1","parameterCategory":1,"la1":31.0,"la2":29.5877,"lo1":-88.7671,"lo2":-86.6584,"dy":0.0162,"dx":0.0185,"nx":115,"ny":88,"refTime":"2026-03-23T00:00:00:Z","depth":0,"parameterNumber":2,"parameterNumberName":"U-component_of_WINDS"},"data":[0.0,0.0,0.0,0.0,0.0,0.0,0.0,0.0,0.0,0.0,0.0,0.0,0.0,0.0,0.0,0.0,0.0,0.0,0.0,0.0,0.0,0.0,0.0,0.0,0.0,0.0,0.0,0.0,0.0,0.0,0.0,0.0,0.0,0.0,0.0,0.0,0.0,0.0,0.0,0.0,0.0,0.0,0.0,0.0,0.0,0.0,0.0,0.0,0.0,0.0,0.0,0.0,0.0,0.0,0.0,0.0,0.0,0.0,0.0,0.0,0.0,0.0,0.0,0.0,0.0,0.0,0.0,0.0,0.0,0.0,0.0,0.0,0.0,0.0,0.0,0.0,0.0,0.0,0.0,0.0,0.0,0.0,0.0,0.0,0.0,0.0,0.0,0.0,0.0,0.0,0.0,0.0,0.0,0.0,0.0,0.0,0.0,0.0,0.0,0.0,0.0,0.0,0.0,0.0,0.0,0.0,0.0,0.0,0.0,0.0,0.0,0.0,0.0,0.0,0.0,0.0,0.0,0.0,0.0,0.0,0.0,0.0,0.0,0.0,0.0,0.0,0.0,0.0,0.0,0.0,0.0,0.0,0.0,0.0,0.0,0.0,0.0,0.0,0.0,0.0,0.0,0.0,0.0,0.0,0.0,0.0,0.0,0.0,0.0,0.0,0.0,0.0,0.0,0.0,0.0,0.0,0.0,0.0,0.0,0.0,0.0,0.0,0.0,0.0,0.0,0.0,0.0,0.0,0.0,0.0,0.0,0.0,0.0,0.0,0.0,0.0,0.0,0.0,0.0,0.0,0.0,0.0,0.0,0.0,0.0,0.0,0.0,0.0,0.0,0.0,0.0,0.0,0.0,0.0,0.0,0.0,0.0,0.0,0.0,0.0,0.0,0.0,0.0,0.0,0.0,0.0,0.0,0.0,0.0,0.0,0.0,0.0,0.0,0.0,0.0,0.0,0.0,0.0,0.0,0.0,0.0,0.0,0.0,0.0,0.0,0.0,0.0,0.0,0.0,0.0,0.0,0.0,0.0,0.0,0.0,0.0,0.0,0.0,0.0,0.0,0.0,0.0,0.0,0.0,0.0,0.0,0.0,0.0,0.0,0.0,0.0,0.0,0.0,0.0,0.0,0.0,0.0,0.0,0.0,0.0,0.0,0.0,0.0,0.0,0.0,0.0,0.0,0.0,0.0,0.0,0.0,0.0,0.0,0.0,0.0,0.0,0.0,0.0,0.0,0.0,0.0,0.0,0.0,0.0,0.0,0.0,0.0,0.0,0.0,0.0,0.0,0.0,0.0,0.0,0.0,0.0,0.0,0.0,0.0,0.0,0.0,0.0,0.0,0.0,0.0,0.0,0.0,0.0,0.0,0.0,0.0,0.0,0.0,0.0,0.0,0.0,0.0,0.0,0.0,0.0,0.0,0.0,0.0,0.0,0.0,0.0,0.0,0.0,0.0,0.0,0.0,0.0,0.0,0.0,0.0,0.0,0.0,0.0,0.0,0.0,0.0,0.0,0.0,0.0,0.0,0.0,0.0,0.0,0.0,0.0,0.0,0.0,0.0,0.0,0.0,0.0,0.0,0.0,0.0,0.0,0.0,0.0,0.0,0.0,0.0,0.0,0.0,0.0,0.0,0.0,0.0,0.0,0.0,0.0,0.0,0.0,0.0,0.0,0.0,0.0,0.0,0.0,0.0,0.0,0.0,0.0,0.0,0.0,0.0,0.0,0.0,0.0,0.0,0.0,0.0,0.0,0.0,0.0,0.0,0.0,0.0,0.0,0.0,0.0,0.0,0.0,0.0,0.0,0.0,0.0,0.0,0.0,0.0,0.0,0.0,0.0,0.0,0.0,0.0,0.0,0.0,0.0,0.0,0.0,0.0,0.0,0.0,0.0,0.0,0.0,0.0,0.0,0.0,0.0,0.0,0.0,0.0,0.0,0.0,0.0,0.0,0.0,0.0,0.0,0.0,0.0,0.0,0.0,0.0,0.0,0.0,0.0,0.0,0.0,0.0,0.0,0.0,0.0,0.0,0.0,0.0,0.0,0.0,0.0,0.0,0.0,0.0,0.0,0.0,0.0,0.0,0.0,0.0,0.0,0.0,0.0,0.0,0.0,0.0,0.0,0.0,0.0,0.0,0.0,0.0,0.0,0.0,0.0,0.0,0.0,0.0,0.0,0.0,0.0,0.0,0.0,0.0,0.0,0.0,0.0,0.0,0.0,0.0,0.0,0.0,0.0,0.0,0.0,0.0,0.0,0.0,0.0,0.0,0.0,0.0,0.0,0.0,0.0,0.0,0.0,0.0,0.0,0.0,0.0,0.0,0.0,0.0,0.0,0.0,0.0,0.0,0.0,0.0,0.0,0.0,0.0,0.0,0.0,0.0,0.0,0.0,0.0,0.0,0.0,0.0,0.0,0.0,0.0,0.0,0.0,0.0,0.0,0.0,0.0,0.0,0.0,0.0,0.0,0.0,0.0,0.0,0.0,0.0,0.0,0.0,0.0,0.0,0.0,0.0,0.0,0.0,0.0,0.0,0.0,0.0,0.0,0.0,0.0,0.0,0.0,0.0,0.0,0.0,0.0,0.0,0.0,0.0,0.0,0.0,0.0,0.0,0.0,0.0,0.0,0.0,0.0,0.0,0.0,0.0,0.0,0.0,0.0,0.0,0.0,0.0,0.0,0.0,0.0,0.0,0.0,0.0,0.0,0.0,0.0,0.0,0.0,0.0,0.0,0.0,0.0,0.0,0.0,0.0,0.0,0.0,0.0,0.0,0.0,0.0,0.0,0.0,0.0,0.0,0.0,0.0,0.0,0.0,0.0,0.0,0.0,0.0,0.0,0.0,0.0,0.0,0.0,0.0,0.0,0.0,0.0,0.0,0.0,0.0,0.0,0.0,0.0,0.0,0.0,0.0,0.0,0.0,0.0,0.0,0.0,0.0,0.0,0.0,0.0,0.0,0.0,0.0,0.0,0.0,0.0,0.0,0.0,0.0,0.0,0.0,0.0,0.0,0.0,0.0,0.0,0.0,0.0,0.0,0.0,0.0,0.0,0.0,0.0,0.0,0.0,0.0,0.0,0.0,0.0,0.0,0.0,0.0,0.0,0.0,0.0,0.0,0.0,0.0,0.0,0.0,0.0,0.0,0.0,0.0,0.0,0.0,0.0,0.0,0.0,0.0,0.0,0.0,0.0,0.0,0.0,0.0,0.0,0.0,0.0,0.0,0.0,0.0,0.0,0.0,0.0,0.0,0.0,0.0,0.0,0.0,0.0,0.0,0.0,0.0,0.0,0.0,0.0,0.0,0.0,0.0,0.0,0.0,0.0,0.0,0.0,0.0,0.0,0.0,0.0,0.0,0.0,0.0,0.0,0.0,0.0,0.0,0.0,0.0,0.0,0.0,0.0,0.0,0.0,0.0,0.0,0.0,0.0,0.0,0.0,0.0,0.0,0.0,0.0,0.0,0.0,0.0,0.0,0.0,0.0,0.0,0.0,0.0,0.0,0.0,0.0,0.0,0.0,0.0,0.0,0.0,0.0,0.0,0.0,0.0,0.0,0.0,0.0,0.0,0.0,0.0,0.0,0.0,0.0,0.0,0.0,0.0,0.0,0.0,0.0,0.0,0.0,0.0,0.0,0.0,0.0,0.0,0.0,0.0,0.0,0.0,0.0,0.0,0.0,0.0,0.0,0.0,0.0,0.0,0.0,0.0,0.0,0.0,0.0,0.0,0.0,0.0,0.0,0.0,0.0,0.0,0.0,0.0,0.0,0.0,0.0,0.0,0.0,0.0,0.0,0.0,0.0,0.0,0.0,0.0,0.0,0.0,0.0,0.0,0.0,0.0,0.0,0.0,0.0,0.0,0.0,0.0,0.0,0.0,0.0,0.0,0.0,0.0,0.0,0.0,0.0,0.0,0.0,0.0,0.0,0.0,0.0,0.0,0.0,0.0,0.0,0.0,0.0,0.0,0.0,0.0,0.0,0.0,0.0,0.0,0.0,0.0,0.0,0.0,0.0,0.0,0.0,0.0,0.0,0.0,0.0,0.0,0.0,0.0,0.0,0.0,0.0,0.0,0.0,0.0,0.0,0.0,0.0,0.0,0.0,0.0,0.0,0.0,0.0,0.0,0.0,0.0,0.0,0.0,0.0,0.0,0.0,0.0,0.0,0.0,0.0,0.0,0.0,0.0,0.0,0.0,0.0,0.0,0.0,0.0,0.0,0.0,0.0,0.0,0.0,0.0,0.0,0.0,0.0,0.0,0.0,0.0,0.0,-0.4594,0.0,0.0,0.0,0.0,0.0,0.0,0.0,0.0,0.0,0.0,0.0,0.0,0.0,0.0,0.0,0.0,0.0,0.0,0.0,0.0,0.0,0.0,0.0,0.0,0.0,0.0,0.0,0.0,0.0,0.0,0.0,0.0,0.0,0.0,0.0,0.0,0.0,0.0,0.0,0.0,0.0,0.0,0.0,0.0,0.0,0.0,0.0,0.0,0.0,0.0,0.0,0.0,0.0,0.0,0.0,0.0,0.0,0.0,0.0,0.0,0.0,0.0,0.0,0.0,0.0,0.0,0.0,0.0,0.0,0.0,0.0,0.0,0.0,0.0,0.0,0.0,0.0,0.0,0.0,0.0,0.0,0.0,0.0,0.0,0.0,0.0,0.0,0.0,0.0,0.0,0.0,0.0,0.0,0.0,0.0,0.0,0.0,0.0,0.0,0.0,0.0,0.0,0.0,0.0,0.0,0.0,0.0,0.0,0.0,0.0,-0.4508,-0.4694,-0.4604,-0.4545,-0.4545,0.0,0.0,0.0,0.0,0.0,0.0,0.0,0.0,0.0,0.0,0.0,0.0,0.0,0.0,0.0,0.0,0.0,0.0,0.0,0.0,0.0,0.0,0.0,0.0,0.0,0.0,0.0,0.0,0.0,0.0,0.0,0.0,0.0,0.0,0.0,0.0,0.0,0.0,0.0,0.0,0.0,0.0,0.0,0.0,0.0,0.0,0.0,0.0,0.0,0.0,0.0,0.0,0.0,0.0,0.0,0.0,0.0,0.0,0.0,0.0,0.0,0.0,0.0,0.0,0.0,0.0,0.0,0.0,0.0,0.0,0.0,0.0,0.0,0.0,0.0,0.0,0.0,0.0,0.0,0.0,0.0,0.0,0.0,0.0,0.0,0.0,0.0,0.0,0.0,0.0,0.0,0.0,0.0,0.0,0.0,0.0,0.0,0.0,0.0,0.0,0.0,0.0,0.0,0.0,0.0,0.0,0.0,0.0,0.0,0.0,0.0,0.0,-0.4575,-0.4527,-0.4544,0.0,0.0,0.0,0.0,0.0,0.0,0.0,0.0,0.0,0.0,0.0,0.0,0.0,0.0,0.0,0.0,0.0,0.0,0.0,0.0,0.0,0.0,0.0,0.0,0.0,0.0,0.0,0.0,0.0,0.0,0.0,0.0,0.0,0.0,0.0,0.0,0.0,0.0,0.0,0.0,0.0,0.0,0.0,0.0,0.0,0.0,0.0,0.0,0.0,0.0,0.0,0.0,0.0,0.0,0.0,0.0,0.0,0.0,0.0,0.0,0.0,0.0,0.0,0.0,0.0,0.0,0.0,0.0,0.0,0.0,0.0,0.0,0.0,0.0,0.0,0.0,0.0,0.0,0.0,0.0,0.0,0.0,0.0,0.0,0.0,0.0,0.0,0.0,0.0,0.0,0.0,0.0,0.0,0.0,0.0,0.0,0.0,0.0,0.0,0.0,0.0,0.0,0.0,0.0,0.0,0.0,0.0,0.0,0.0,0.0,-0.4292,-0.4683,-0.4682,0.0,-0.4688,0.0,0.0,0.0,0.0,0.0,0.0,0.0,0.0,0.0,0.0,0.0,0.0,0.0,0.0,0.0,0.0,0.0,0.0,0.0,0.0,0.0,0.0,0.0,0.0,0.0,0.0,0.0,0.0,0.0,0.0,0.0,0.0,0.0,0.0,0.0,0.0,0.0,0.0,0.0,0.0,0.0,0.0,0.0,0.0,0.0,0.0,0.0,0.0,0.0,0.0,0.0,0.0,0.0,0.0,0.0,0.0,0.0,0.0,0.0,0.0,0.0,0.0,0.0,0.0,0.0,0.0,0.0,0.0,0.0,0.0,0.0,0.0,0.0,0.0,0.0,0.0,0.0,0.0,0.0,0.0,0.0,0.0,0.0,0.0,0.0,0.0,0.0,0.0,0.0,0.0,0.0,0.0,0.0,0.0,0.0,0.0,0.0,0.0,0.0,0.0,0.0,0.0,0.0,0.0,0.0,0.0,0.0,0.0,0.0,0.0,0.0,-0.4281,-0.443,-0.4511,0.0,0.0,0.0,0.0,0.0,0.0,0.0,0.0,0.0,0.0,0.0,0.0,0.0,0.0,0.0,0.0,0.0,0.0,0.0,0.0,0.0,0.0,0.0,0.0,0.0,0.0,0.0,0.0,0.0,0.0,0.0,0.0,0.0,0.0,0.0,0.0,0.0,0.0,0.0,0.0,0.0,0.0,0.0,0.0,0.0,0.0,0.0,0.0,0.0,0.0,0.0,0.0,0.0,0.0,0.0,0.0,0.0,0.0,0.0,0.0,0.0,0.0,0.0,0.0,0.0,0.0,0.0,0.0,0.0,0.0,0.0,0.0,0.0,0.0,0.0,0.0,0.0,0.0,0.0,0.0,0.0,0.0,0.0,0.0,0.0,0.0,0.0,0.0,0.0,0.0,0.0,0.0,0.0,0.0,0.0,0.0,0.0,0.0,0.0,0.0,0.0,0.0,0.0,0.0,0.0,0.0,0.0,0.0,0.0,0.0,-0.3296,0.0,-0.4047,-0.4187,-0.4253,-0.4273,0.0,0.0,0.0,0.0,0.0,0.0,0.0,0.0,0.0,0.0,0.0,0.0,0.0,0.0,0.0,0.0,0.0,0.0,0.0,0.0,0.0,0.0,0.0,0.0,0.0,0.0,0.0,0.0,0.0,0.0,0.0,0.0,0.0,0.0,0.0,0.0,0.0,0.0,0.0,0.0,0.0,0.0,0.0,0.0,0.0,0.0,0.0,0.0,0.0,0.0,0.0,0.0,0.0,0.0,0.0,0.0,0.0,0.0,0.0,0.0,0.0,0.0,0.0,0.0,0.0,0.0,0.0,0.0,0.0,0.0,0.0,0.0,0.0,0.0,0.0,0.0,0.0,0.0,0.0,0.0,0.0,0.0,0.0,0.0,0.0,0.0,0.0,0.0,0.0,0.0,0.0,0.0,0.0,0.0,0.0,0.0,0.0,0.0,0.0,0.0,0.0,0.0,0.0,0.0,0.0,0.0,0.0,0.0,0.0,-0.3283,-0.3599,-0.4145,-0.4023,-0.4015,0.0,0.0,0.0,0.0,0.0,0.0,0.0,0.0,0.0,0.0,0.0,0.0,0.0,0.0,0.0,0.0,0.0,0.0,0.0,0.0,0.0,0.0,0.0,0.0,0.0,0.0,0.0,0.0,0.0,0.0,0.0,0.0,0.0,0.0,0.0,0.0,0.0,0.0,0.0,0.0,0.0,0.0,0.0,0.0,0.0,0.0,0.0,0.0,0.0,0.0,0.0,0.0,0.0,0.0,0.0,0.0,0.0,0.0,0.0,0.0,0.0,0.0,0.0,0.0,0.0,0.0,0.0,0.0,0.0,0.0,0.0,0.0,0.0,0.0,0.0,0.0,0.0,0.0,0.0,0.0,0.0,0.0,0.0,0.0,0.0,0.0,0.0,0.0,0.0,0.0,0.0,0.0,0.0,0.0,0.0,0.0,0.0,0.0,0.0,0.0,0.0,0.0,0.0,0.0,0.0,0.0,0.0,0.0,0.0,-0.2654,-0.2779,-0.3084,-0.3533,-0.3616,-0.3718,0.0,0.0,0.0,0.0,0.0,0.0,0.0,0.0,0.0,0.0,0.0,0.0,0.0,0.0,0.0,0.0,0.0,0.0,0.0,0.0,0.0,0.0,0.0,0.0,0.0,0.0,0.0,0.0,0.0,0.0,0.0,0.0,0.0,0.0,0.0,0.0,0.0,0.0,0.0,0.0,0.0,0.0,0.0,0.0,0.0,0.0,0.0,0.0,0.0,0.0,0.0,0.0,0.0,0.0,0.0,0.0,0.0,0.0,0.0,0.0,0.0,0.0,0.0,0.0,0.0,0.0,0.0,0.0,0.0,0.0,0.0,0.0,0.0,0.0,0.0,0.0,0.0,0.0,0.0,0.0,0.0,0.0,0.0,0.0,0.0,0.0,0.0,0.0,0.0,0.0,0.0,0.0,0.0,0.0,0.0,0.0,0.0,0.0,0.0,0.0,0.0,0.0,0.0,0.0,0.0,0.0,0.0,0.0,0.0,-0.2486,0.0,-0.2847,0.0,-0.3329,-0.3449,0.0,0.0,0.0,0.0,0.0,0.0,0.0,0.0,0.0,0.0,0.0,0.0,0.0,0.0,0.0,0.0,0.0,0.0,0.0,0.0,0.0,0.0,0.0,0.0,0.0,0.0,0.0,0.0,0.0,0.0,0.0,0.0,0.0,0.0,0.0,0.0,0.0,0.0,0.0,0.0,0.0,0.0,0.0,0.0,0.0,0.0,0.0,0.0,0.0,0.0,0.0,0.0,0.0,0.0,0.0,0.0,0.0,0.0,0.0,0.0,0.0,0.0,0.0,0.0,0.0,0.0,0.0,0.0,0.0,0.0,0.0,0.0,0.0,0.0,0.0,0.0,0.0,0.0,0.0,0.0,0.0,0.0,0.0,0.0,0.0,0.0,0.0,0.0,0.0,0.0,0.0,0.0,0.0,0.0,0.0,0.0,0.0,0.0,0.0,0.0,0.0,0.0,0.0,0.0,0.0,0.0,0.0,0.0,-0.2585,-0.2869,-0.2892,-0.2918,-0.3012,-0.3201,-0.3211,0.0,0.0,0.0,0.0,0.0,0.0,0.0,0.0,0.0,0.0,0.0,0.0,0.0,0.0,0.0,0.0,0.0,0.0,0.0,0.0,0.0,0.0,0.0,0.0,0.0,0.0,0.0,0.0,0.0,0.0,0.0,0.0,0.0,0.0,0.0,0.0,0.0,0.0,0.0,0.0,0.0,0.0,0.0,0.0,0.0,0.0,0.0,0.0,0.0,0.0,0.0,0.0,0.0,0.0,0.0,0.0,0.0,0.0,0.0,0.0,0.0,0.0,0.0,0.0,0.0,0.0,0.0,0.0,0.0,0.0,0.0,0.0,0.0,0.0,0.0,0.0,0.0,0.0,0.0,0.0,0.0,0.0,0.0,0.0,0.0,0.0,0.0,0.0,0.0,0.0,0.0,0.0,0.0,0.0,0.0,0.0,0.0,0.0,0.0,0.0,0.0,0.0,0.0,0.0,0.0,0.0,0.0,0.0,0.0,-0.2773,-0.2676,-0.2803,-0.3127,-0.3075,-0.3162,0.0,0.0,0.0,0.0,0.0,0.0,0.0,0.0,0.0,0.0,0.0,0.0,0.0,0.0,0.0,0.0,0.0,0.0,0.0,0.0,0.0,0.0,0.0,0.0,0.0,0.0,0.0,0.0,0.0,0.0,0.0,0.0,0.0,0.0,0.0,0.0,0.0,0.0,0.0,0.0,0.0,0.0,0.0,0.0,0.0,0.0,0.0,0.0,0.0,0.0,0.0,0.0,0.0,0.0,0.0,0.0,0.0,0.0,0.0,0.0,0.0,0.0,0.0,0.0,0.0,0.0,0.0,0.0,0.0,0.0,0.0,0.0,0.0,0.0,0.0,0.0,0.0,0.0,0.0,0.0,0.0,0.0,0.0,0.0,0.0,0.0,0.0,0.0,0.0,0.0,0.0,0.0,0.0,0.0,0.0,0.0,0.0,0.0,0.0,0.0,0.0,0.0,0.0,0.0,0.0,0.0,0.0,0.0,0.0,-0.3185,-0.2908,-0.29,-0.3202,-0.3099,-0.3164,-0.3381,0.0,0.0,0.0,0.0,0.0,0.0,0.0,0.0,0.0,0.0,0.0,0.0,0.0,0.0,0.0,0.0,0.0,0.0,0.0,0.0,0.0,0.0,0.0,0.0,0.0,0.0,0.0,0.0,0.0,0.0,0.0,0.0,0.0,0.0,0.0,0.0,0.0,0.0,0.0,0.0,0.0,0.0,0.0,0.0,0.0,0.0,0.0,0.0,0.0,0.0,0.0,0.0,0.0,0.0,0.0,0.0,0.0,0.0,0.0,0.0,0.0,0.0,0.0,0.0,0.0,0.0,0.0,0.0,0.0,0.0,0.0,0.0,0.0,0.0,0.0,0.0,0.0,0.0,0.0,0.0,0.0,0.0,0.0,0.0,0.0,0.0,0.0,0.0,0.0,0.0,0.0,0.0,0.0,0.0,0.0,0.0,0.0,0.0,0.0,0.0,0.0,0.0,0.0,0.0,0.0,0.0,0.0,0.0,-0.4005,-0.3504,-0.3239,-0.3252,-0.3299,-0.3194,0.0,0.0,0.0,0.0,0.0,0.0,0.0,0.0,0.0,0.0,0.0,0.0,0.0,0.0,0.0,0.0,0.0,0.0,0.0,0.0,0.0,0.0,0.0,0.0,0.0,0.0,0.0,0.0,0.0,0.0,0.0,0.0,0.0,0.0,0.0,0.0,0.0,0.0,0.0,0.0,0.0,0.0,0.0,0.0,0.0,0.0,0.0,0.0,0.0,0.0,0.0,0.0,0.0,0.0,0.0,0.0,0.0,0.0,0.0,0.0,0.0,0.0,0.0,0.0,0.0,0.0,0.0,0.0,0.0,0.0,0.0,0.0,0.0,0.0,0.0,0.0,0.0,0.0,0.0,0.0,0.0,0.0,0.0,0.0,0.0,0.0,0.0,0.0,0.0,0.0,0.0,0.0,0.0,0.0,0.0,0.0,0.0,0.0,0.0,0.0,0.0,0.0,0.0,0.0,0.0,0.0,0.0,0.0,0.0,-0.4078,-0.3793,-0.3716,-0.3842,-0.3681,-0.3539,0.0,0.0,0.0,0.0,0.0,0.0,0.0,0.0,0.0,0.0,0.0,0.0,0.0,0.0,0.0,0.0,0.0,0.0,0.0,0.0,0.0,0.0,0.0,0.0,0.0,0.0,0.0,0.0,0.0,0.0,0.0,0.0,0.0,0.0,0.0,0.0,0.0,0.0,0.0,0.0,0.0,0.0,0.0,0.0,0.0,0.0,0.0,0.0,0.0,0.0,0.0,0.0,0.0,0.0,0.0,0.0,0.0,0.0,0.0,0.0,0.0,0.0,0.0,0.0,0.0,0.0,0.0,0.0,0.0,0.0,0.0,0.0,0.0,0.0,0.0,0.0,0.0,0.0,0.0,0.0,0.0,0.0,0.0,0.0,0.0,0.0,0.0,0.0,0.0,0.0,0.0,0.0,0.0,0.0,0.0,0.0,0.0,0.0,0.0,0.0,0.0,0.0,0.0,0.0,0.0,0.0,0.0,0.0,-0.4285,-0.4066,-0.4001,-0.3955,-0.3929,-0.3817,-0.3699,0.0,0.0,0.0,0.0,0.0,0.0,0.0,0.0,0.0,0.0,0.0,0.0,0.0,0.0,0.0,0.0,0.0,0.0,0.0,0.0,0.0,0.0,0.0,0.0,0.0,0.0,0.0,0.0,0.0,0.0,0.0,0.0,0.0,0.0,0.0,0.0,0.0,0.0,0.0,0.0,0.0,0.0,0.0,0.0,0.0,0.0,0.0,0.0,0.0,0.0,0.0,0.0,0.0,0.0,0.0,0.0,0.0,0.0,0.0,0.0,0.0,0.0,0.0,0.0,0.0,0.0,0.0,0.0,0.0,0.0,0.0,0.0,0.0,0.0,0.0,0.0,0.0,0.0,0.0,0.0,0.0,0.0,0.0,0.0,0.0,0.0,0.0,0.0,0.0,0.0,0.0,0.0,0.0,0.0,0.0,0.0,0.0,0.0,0.0,0.0,0.0,0.0,0.0,0.0,0.0,0.0,0.0,0.0,-0.4242,-0.4031,-0.412,-0.4006,-0.3718,-0.3752,-0.3729,0.0,0.0,0.0,0.0,0.0,0.0,0.0,0.0,0.0,0.0,0.0,0.0,0.0,0.0,0.0,0.0,0.0,0.0,0.0,0.0,0.0,0.0,0.0,0.0,0.0,0.0,0.0,0.0,0.0,0.0,0.0,0.0,0.0,0.0,0.0,0.0,0.0,0.0,0.0,0.0,0.0,0.0,0.0,0.0,0.0,0.0,0.0,0.0,0.0,0.0,0.0,0.0,0.0,0.0,0.0,0.0,0.0,0.0,0.0,0.0,0.0,0.0,0.0,0.0,0.0,0.0,0.0,0.0,0.0,0.0,0.0,0.0,0.0,0.0,0.0,0.0,0.0,0.0,0.0,0.0,0.0,0.0,0.0,0.0,0.0,0.0,0.0,0.0,0.0,0.0,0.0,0.0,0.0,0.0,0.0,0.0,0.0,0.0,0.0,0.0,0.0,0.0,0.0,0.0,0.0,0.0,0.0,0.0,-0.4094,-0.4078,-0.3948,-0.3834,-0.3693,-0.3729,-0.3687,0.0,0.0,0.0,0.0,0.0,0.0,0.0,0.0,0.0,0.0,0.0,0.0,0.0,0.0,0.0,0.0,0.0,0.0,0.0,0.0,0.0,0.0,0.0,0.0,0.0,0.0,0.0,0.0,0.0,0.0,0.0,0.0,0.0,0.0,0.0,0.0,0.0,0.0,0.0,0.0,0.0,0.0,0.0,0.0,0.0,0.0,0.0,0.0,-0.4547,0.0,0.0,0.0,0.0,0.0,0.0,0.0,0.0,0.0,0.0,0.0,0.0,0.0,0.0,0.0,0.0,0.0,0.0,0.0,0.0,0.0,0.0,0.0,0.0,0.0,0.0,0.0,0.0,0.0,0.0,0.0,0.0,0.0,0.0,0.0,0.0,0.0,0.0,0.0,0.0,0.0,0.0,0.0,0.0,0.0,0.0,0.0,0.0,0.0,0.0,0.0,0.0,0.0,0.0,0.0,0.0,0.0,0.0,0.0,-0.3792,-0.372,-0.3625,-0.354,-0.3466,-0.3589,-0.3694,0.0,0.0,0.0,0.0,0.0,0.0,0.0,0.0,0.0,0.0,0.0,0.0,0.0,0.0,0.0,0.0,0.0,0.0,0.0,0.0,0.0,0.0,0.0,0.0,0.0,0.0,0.0,0.0,0.0,0.0,0.0,0.0,0.0,0.0,0.0,0.0,0.0,0.0,0.0,0.0,0.0,0.0,0.0,0.0,0.0,0.0,0.0,0.0,0.0,0.0,0.0,0.0,0.0,0.0,0.0,0.0,0.0,0.0,0.0,0.0,0.0,0.0,0.0,0.0,0.0,0.0,0.0,0.0,0.0,0.0,0.0,0.0,0.0,0.0,0.0,0.0,0.0,0.0,0.0,0.0,0.0,0.0,0.0,0.0,0.0,0.0,0.0,0.0,0.0,0.0,0.0,0.0,0.0,0.0,0.0,0.0,0.0,0.0,0.0,0.0,0.0,0.0,0.0,0.0,0.0,0.0,0.0,-0.3633,-0.3466,-0.3362,-0.3303,-0.3268,-0.3208,-0.35,-0.3767,-0.3993,0.0,0.0,0.0,0.0,0.0,0.0,0.0,0.0,0.0,0.0,0.0,0.0,0.0,0.0,0.0,0.0,0.0,0.0,0.0,0.0,0.0,0.0,0.0,0.0,0.0,0.0,0.0,0.0,0.0,0.0,0.0,0.0,0.0,0.0,0.0,0.0,0.0,0.0,-0.4045,-0.4375,0.0,0.0,0.0,0.0,0.0,0.0,0.0,0.0,-0.4969,0.0,0.0,0.0,0.0,0.0,0.0,0.0,0.0,0.0,0.0,0.0,0.0,0.0,0.0,0.0,0.0,0.0,0.0,0.0,0.0,0.0,0.0,0.0,0.0,0.0,0.0,0.0,0.0,0.0,0.0,0.0,0.0,0.0,0.0,0.0,0.0,0.0,0.0,0.0,0.0,0.0,0.0,0.0,0.0,0.0,0.0,0.0,0.0,0.0,0.0,0.0,0.0,0.0,0.0,0.0,0.0,-0.3881,-0.3483,-0.3351,-0.3542,-0.3335,-0.3208,-0.321,-0.3676,-0.3949,-0.3993,0.0,0.0,0.0,0.0,0.0,0.0,0.0,0.0,0.0,0.0,0.0,0.0,0.0,0.0,0.0,0.0,0.0,0.0,0.0,0.0,0.0,0.0,0.0,0.0,0.0,0.0,0.0,0.0,0.0,0.0,0.0,0.0,0.0,0.0,0.0,0.0,0.0,0.0,0.0,-0.4958,-0.5177,0.0,0.0,0.0,0.0,0.0,0.0,0.0,0.0,-0.524,0.0,0.0,0.0,0.0,0.0,0.0,0.0,0.0,0.0,0.0,0.0,0.0,0.0,0.0,0.0,0.0,0.0,0.0,0.0,0.0,0.0,0.0,0.0,0.0,0.0,0.0,0.0,0.0,0.0,0.0,0.0,0.0,0.0,0.0,0.0,0.0,0.0,0.0,0.0,0.0,0.0,0.0,0.0,0.0,0.0,0.0,0.0,0.0,0.0,0.0,0.0,0.0,0.0,0.0,0.0,-0.3821,-0.3421,-0.3269,-0.339,-0.3275,-0.3208,-0.3214,-0.3597,-0.3852,0.0,0.0,0.0,0.0,0.0,0.0,0.0,0.0,0.0,0.0,0.0,0.0,0.0,0.0,0.0,0.0,0.0,0.0,0.0,0.0,0.0,0.0,0.0,0.0,0.0,0.0,0.0,0.0,0.0,0.0,0.0,0.0,0.0,0.0,0.0,0.0,0.0,0.0,0.0,0.0,-0.502,-0.5184,-0.5208,0.0,0.0,0.0,0.0,0.0,0.0,-0.5682,-0.5493,0.0,0.0,0.0,0.0,0.0,0.0,0.0,0.0,0.0,0.0,0.0,0.0,0.0,0.0,0.0,0.0,0.0,0.0,0.0,0.0,0.0,0.0,0.0,0.0,0.0,0.0,0.0,0.0,0.0,0.0,0.0,0.0,0.0,0.0,0.0,0.0,0.0,0.0,0.0,0.0,0.0,0.0,0.0,0.0,0.0,0.0,0.0,0.0,0.0,0.0,0.0,0.0,0.0,0.0,0.0,-0.38,-0.3436,-0.3229,-0.3208,-0.3208,-0.3208,-0.3214,-0.3506,-0.3749,0.0,0.0,0.0,0.0,0.0,0.0,0.0,0.0,0.0,0.0,0.0,0.0,0.0,0.0,0.0,0.0,0.0,0.0,0.0,0.0,0.0,0.0,0.0,0.0,0.0,0.0,0.0,0.0,0.0,0.0,0.0,0.0,0.0,0.0,0.0,0.0,0.0,0.0,0.0,0.0,0.0,-0.5365,-0.5772,-0.5614,0.0,0.0,0.0,0.0,-0.6133,-0.6027,0.0,0.0,0.0,0.0,0.0,0.0,0.0,0.0,0.0,0.0,0.0,0.0,0.0,0.0,0.0,0.0,0.0,0.0,0.0,0.0,0.0,0.0,0.0,0.0,0.0,0.0,0.0,0.0,0.0,0.0,0.0,0.0,0.0,0.0,0.0,0.0,0.0,0.0,0.0,0.0,0.0,0.0,0.0,0.0,0.0,0.0,0.0,0.0,0.0,0.0,0.0,0.0,0.0,0.0,0.0,0.0,-0.388,-0.3545,-0.333,-0.3208,-0.3208,-0.3208,-0.3214,-0.3688,-0.3865,0.0,0.0,0.0,0.0,0.0,0.0,0.0,0.0,0.0,0.0,0.0,0.0,0.0,0.0,0.0,0.0,0.0,0.0,0.0,0.0,0.0,0.0,0.0,0.0,0.0,0.0,0.0,0.0,0.0,0.0,0.0,0.0,0.0,0.0,0.0,0.0,0.0,0.0,0.0,0.0,0.0,-0.6264,-0.5414,-0.5838,-0.6204,0.0,0.0,0.0,-0.6649,-0.6884,0.0,0.0,0.0,0.0,0.0,0.0,0.0,0.0,0.0,0.0,0.0,0.0,0.0,0.0,0.0,0.0,0.0,0.0,0.0,0.0,0.0,0.0,0.0,0.0,0.0,0.0,0.0,0.0,0.0,0.0,0.0,0.0,0.0,0.0,0.0,0.0,0.0,0.0,0.0,0.0,0.0,0.0,0.0,0.0,0.0,0.0,0.0,0.0,0.0,0.0,0.0,0.0,0.0,0.0,0.0,-0.39,-0.3661,-0.3415,-0.3266,-0.3208,-0.3208,-0.3208,-0.3208,-0.3415,-0.3561,0.0,0.0,0.0,0.0,0.0,0.0,0.0,0.0,0.0,0.0,0.0,0.0,0.0,0.0,0.0,0.0,0.0,0.0,0.0,0.0,0.0,0.0,0.0,0.0,0.0,0.0,0.0,0.0,0.0,0.0,0.0,0.0,0.0,0.0,0.0,0.0,0.0,0.0,0.0,0.0,0.0,0.0,-0.6092,-0.6268,0.0,0.0,0.0,-0.7072,-0.7036,0.0,0.0,0.0,0.0,0.0,0.0,0.0,0.0,0.0,0.0,0.0,0.0,0.0,0.0,0.0,0.0,0.0,0.0,0.0,0.0,0.0,0.0,0.0,0.0,0.0,0.0,0.0,0.0,0.0,0.0,0.0,0.0,0.0,0.0,0.0,0.0,0.0,0.0,0.0,0.0,0.0,0.0,0.0,0.0,0.0,0.0,0.0,0.0,0.0,0.0,0.0,0.0,0.0,0.0,0.0,0.0,0.0,-0.3636,-0.3383,-0.3234,-0.3208,-0.3208,-0.3208,-0.3208,-0.3269,0.0,0.0,0.0,0.0,0.0,0.0,0.0,0.0,0.0,0.0,0.0,0.0,0.0,0.0,0.0,0.0,0.0,0.0,0.0,0.0,0.0,0.0,0.0,0.0,0.0,0.0,0.0,-0.2089,0.0,0.0,0.0,0.0,0.0,0.0,0.0,0.0,0.0,0.0,0.0,0.0,0.0,0.0,-0.6052,-0.6714,-0.669,-0.6805,0.0,0.0,-0.7606,-0.7412,-0.7497,-0.7237,0.0,0.0,0.0,0.0,0.0,0.0,0.0,0.0,0.0,0.0,0.0,0.0,0.0,0.0,0.0,0.0,0.0,0.0,0.0,0.0,0.0,0.0,0.0,0.0,0.0,0.0,0.0,0.0,0.0,0.0,0.0,0.0,0.0,0.0,0.0,0.0,0.0,0.0,0.0,0.0,0.0,0.0,0.0,0.0,0.0,0.0,0.0,0.0,0.0,0.0,0.0,0.0,0.0,0.0,0.0,-0.395,-0.3591,-0.333,-0.3208,-0.3208,-0.3208,-0.3203,-0.344,-0.3469,0.0,0.0,0.0,0.0,0.0,0.0,0.0,0.0,0.0,0.0,0.0,0.0,0.0,0.0,0.0,0.0,0.0,0.0,0.0,0.0,0.0,0.0,0.0,0.0,0.0,0.0,0.0,0.0,0.0,0.0,0.0,0.0,0.0,0.0,0.0,0.0,0.0,0.0,0.0,0.0,0.0,-0.6443,-0.6769,-0.7006,-0.7315,0.0,0.0,-0.7871,-0.7853,-0.8277,-0.8112,-0.6613,0.0,0.0,0.0,0.0,0.0,0.0,0.0,0.0,0.0,0.0,0.0,0.0,0.0,0.0,0.0,0.0,0.0,0.0,0.0,0.0,0.0,0.0,0.0,0.0,0.0,0.0,0.0,0.0,0.0,0.0,0.0,0.0,0.0,0.0,0.0,0.0,0.0,0.0,0.0,0.0,0.0,0.0,0.0,0.0,0.0,0.0,0.0,0.0,0.0,0.0,0.0,0.0,0.0,-0.3999,-0.3758,-0.3433,-0.3255,-0.3208,-0.3208,-0.3208,-0.3208,-0.3452,-0.3537,0.0,0.0,0.0,0.0,0.0,0.0,0.0,0.0,0.0,0.0,0.0,0.0,0.0,0.0,0.0,0.0,0.0,0.0,0.0,0.0,0.0,0.0,0.0,0.0,0.0,0.0,0.0,0.0,-0.2491,-0.2461,-0.2622,0.0,0.0,0.0,0.0,0.0,0.0,0.0,0.0,0.0,0.0,-0.6629,-0.7206,-0.7382,0.0,0.0,-0.8141,-0.8195,-0.8357,-0.819,-0.777,-0.7024,-0.6714,0.0,0.0,0.0,0.0,0.0,0.0,0.0,0.0,0.0,0.0,0.0,0.0,0.0,0.0,0.0,0.0,0.0,0.0,0.0,0.0,0.0,0.0,0.0,0.0,0.0,0.0,0.0,0.0,0.0,0.0,0.0,0.0,0.0,0.0,0.0,0.0,0.0,0.0,0.0,0.0,0.0,0.0,0.0,0.0,0.0,0.0,0.0,0.0,0.0,0.0,0.0,0.0,-0.3906,-0.3668,-0.3366,-0.3234,-0.3234,-0.3229,-0.3229,-0.3236,-0.3463,-0.3578,0.0,0.0,0.0,0.0,0.0,0.0,0.0,0.0,0.0,0.0,0.0,0.0,0.0,0.0,0.0,0.0,0.0,0.0,0.0,0.0,0.0,0.0,0.0,0.0,0.0,0.0,0.0,0.0,-0.268,-0.2594,-0.2776,0.0,0.0,0.0,0.0,0.0,0.0,0.0,0.0,0.0,0.0,-0.671,-0.757,-0.7691,-0.7882,-0.8463,-0.8487,-0.8471,-0.868,-0.8263,-0.7814,-0.7388,0.0,0.0,0.0,0.0,0.0,0.0,0.0,0.0,0.0,0.0,0.0,0.0,0.0,0.0,0.0,0.0,0.0,0.0,0.0,0.0,0.0,0.0,0.0,0.0,0.0,0.0,0.0,0.0,0.0,0.0,0.0,0.0,0.0,0.0,0.0,0.0,0.0,0.0,0.0,0.0,0.0,0.0,0.0,0.0,0.0,0.0,0.0,0.0,0.0,0.0,0.0,0.0,0.0,0.0,-0.3797,-0.3489,-0.3317,-0.3307,-0.3294,-0.33,-0.3306,-0.3486,-0.3482,-0.3239,0.0,0.0,0.0,0.0,0.0,0.0,0.0,0.0,0.0,0.0,0.0,0.0,0.0,0.0,0.0,0.0,0.0,0.0,0.0,0.0,0.0,0.0,0.0,0.0,0.0,0.0,-0.3202,-0.2965,-0.28,0.0,0.0,0.0,0.0,0.0,0.0,0.0,0.0,0.0,0.0,-0.6416,-0.676,-0.7772,-0.7922,-0.8187,-0.8951,-0.8854,-0.8698,-0.871,-0.868,-0.8421,0.0,0.0,0.0,0.0,0.0,0.0,0.0,0.0,0.0,0.0,0.0,0.0,0.0,0.0,0.0,0.0,0.0,0.0,0.0,0.0,0.0,0.0,0.0,0.0,0.0,0.0,0.0,-0.3304,-0.3387,0.0,0.0,0.0,0.0,0.0,0.0,0.0,0.0,0.0,0.0,0.0,-0.4982,-0.5222,0.0,0.0,0.0,0.0,0.0,0.0,0.0,0.0,0.0,0.0,0.0,0.0,-0.4527,-0.4202,-0.4002,-0.376,-0.3514,-0.3319,-0.3229,-0.3229,-0.3463,-0.3561,-0.3469,0.0,0.0,0.0,0.0,0.0,0.0,0.0,0.0,0.0,0.0,0.0,0.0,0.0,0.0,0.0,0.0,0.0,0.0,0.0,0.0,0.0,0.0,0.0,0.0,0.0,-0.3658,0.0,0.0,0.0,0.0,0.0,0.0,0.0,0.0,0.0,0.0,0.0,-0.5961,-0.657,-0.6981,-0.7436,-0.809,-0.8269,-0.8484,0.0,0.0,0.0,0.0,0.0,0.0,0.0,0.0,0.0,0.0,0.0,0.0,0.0,0.0,-0.6218,-0.4959,-0.4274,-0.3873,-0.3849,0.0,0.0,0.0,0.0,0.0,0.0,0.0,0.0,0.0,0.0,0.0,0.0,0.0,0.0,0.0,0.0,-0.3695,0.0,0.0,0.0,0.0,0.0,0.0,0.0,0.0,-0.503,-0.5249,-0.5604,-0.5694,-0.5685,0.0,-0.582,-0.5537,0.0,0.0,0.0,0.0,0.0,0.0,0.0,0.0,-0.4807,-0.4409,-0.4152,-0.3838,-0.3503,-0.3336,-0.3229,-0.3236,-0.3383,-0.3518,-0.3597,-0.3597,-0.3475,0.0,0.0,0.0,0.0,0.0,0.0,0.0,0.0,0.0,0.0,0.0,0.0,0.0,0.0,0.0,0.0,0.0,0.0,0.0,0.0,0.0,0.0,0.0,-0.3938,0.0,0.0,0.0,0.0,0.0,0.0,0.0,0.0,0.0,-0.5614,-0.5935,-0.6337,-0.6849,-0.7297,-0.7794,-0.8367,0.0,0.0,0.0,0.0,0.0,0.0,0.0,-0.8657,-0.8995,-0.8789,-0.8472,-0.8229,-0.8632,-0.8776,-0.8179,0.0,0.0,-0.5832,-0.4884,-0.4304,-0.4308,-0.4385,-0.4469,-0.4517,-0.4714,-0.4897,0.0,0.0,0.0,0.0,0.0,0.0,0.0,0.0,-0.3602,-0.3957,0.0,-0.4281,0.0,0.0,0.0,0.0,0.0,0.0,0.0,0.0,-0.6188,-0.6392,-0.6057,-0.6273,-0.6233,-0.5981,-0.6636,-0.6632,-0.6011,-0.5238,0.0,0.0,0.0,0.0,0.0,0.0,-0.4854,-0.4479,-0.4064,-0.3667,-0.3413,-0.3355,-0.3323,-0.33,-0.3248,-0.3342,-0.3567,-0.3591,-0.3493,-0.3232,-0.3187,0.0,0.0,0.0,0.0,0.0,0.0,0.0,0.0,0.0,0.0,0.0,0.0,0.0,0.0,0.0,0.0,0.0,0.0,0.0,0.0,-0.3846,0.0,0.0,0.0,0.0,0.0,0.0,0.0,0.0,0.0,0.0,-0.634,-0.6453,-0.6647,-0.7176,0.0,0.0,0.0,0.0,-0.8992,-0.9724,-0.9619,-0.9605,-0.999,-0.9836,-0.9688,-0.9695,0.0,0.0,-0.889,-0.9197,-0.9346,-0.8837,-0.883,-0.8407,-0.6824,-0.5714,-0.4979,-0.4914,-0.4918,-0.4965,-0.5096,-0.5345,-0.5583,-0.6761,0.0,0.0,0.0,0.0,-0.5404,-0.5316,-0.547,-0.5143,-0.5169,-0.5427,-0.5252,0.0,0.0,0.0,0.0,0.0,0.0,-0.6106,-0.6233,-0.6197,-0.6248,-0.6411,-0.6502,-0.6502,-0.642,-0.662,-0.6742,-0.6746,-0.6026,-0.5694,-0.5751,0.0,0.0,0.0,0.0,-0.5895,-0.5546,-0.5499,-0.529,-0.4949,-0.4325,-0.379,-0.3306,-0.3464,-0.3473,-0.3319,-0.35,-0.3567,-0.3488,-0.3294,0.0,0.0,0.0,0.0,0.0,0.0,0.0,0.0,0.0,0.0,0.0,0.0,0.0,0.0,0.0,0.0,0.0,0.0,0.0,-0.4124,-0.4071,-0.415,0.0,0.0,0.0,0.0,0.0,0.0,0.0,0.0,0.0,-0.6902,-0.7145,-0.748,0.0,0.0,-0.8941,-0.9923,-0.977,-0.9745,-1.0285,0.0,0.0,0.0,-0.9758,-0.9741,-0.9894,-1.0,-1.0091,-1.0115,-1.0094,-1.0021,-0.9853,-0.9474,-0.9008,-0.8531,-0.7361,-0.6256,-0.5682,-0.5549,-0.5559,-0.5606,-0.5688,-0.5752,-0.8197,-0.7444,-0.69,-0.6623,-0.647,-0.6061,-0.5943,-0.6003,-0.5771,-0.5891,-0.6228,-0.607,-0.6101,-0.6309,-0.6162,0.0,0.0,0.0,-0.6598,-0.684,-0.6589,-0.662,-0.6816,-0.684,-0.684,-0.684,-0.6821,-0.691,-0.7136,-0.6661,-0.6385,-0.63,0.0,0.0,-0.6278,-0.6457,-0.6394,-0.6083,-0.5973,-0.5778,-0.5432,-0.4936,-0.4372,-0.3836,-0.3919,-0.3803,-0.3453,-0.3595,-0.3666,-0.364,-0.3563,-0.3444,0.0,0.0,0.0,0.0,0.0,0.0,0.0,0.0,0.0,0.0,0.0,-0.2207,0.0,0.0,0.0,0.0,-0.3537,-0.4088,-0.4518,-0.459,0.0,0.0,0.0,0.0,0.0,0.0,0.0,-0.6313,-0.6577,-0.6904,-0.7406,-0.7979,-0.84,-0.8577,-0.8962,-0.9505,-1.0255,0.0,-1.0269,-1.0469,-1.0365,-1.0288,-1.0229,-1.0223,-1.0282,-1.0438,-1.0551,-1.0625,-1.0724,-1.0563,-1.04,-1.0258,-1.0032,-0.9708,-0.9298,-0.8341,-0.7385,-0.6467,-0.6015,-0.5817,-0.5878,-0.5895,-0.5908,-0.9584,-0.9006,-0.7981,-0.727,-0.6804,-0.6542,-0.6225,-0.5831,-0.5948,-0.6373,-0.6991,-0.6822,-0.6886,-0.7182,-0.6893,0.0,0.0,-0.7311,-0.7296,-0.7311,-0.7311,-0.7311,-0.7296,-0.726,-0.7241,-0.7256,-0.7164,-0.7145,-0.7196,-0.7131,-0.7173,-0.7217,-0.6885,-0.6885,-0.7205,-0.6885,-0.6573,-0.6327,-0.5924,-0.5561,-0.5277,-0.5269,-0.5051,-0.4572,-0.446,-0.4201,-0.38,-0.3783,-0.3773,-0.375,-0.3891,-0.3817,-0.35,0.0,0.0,0.0,0.0,0.0,0.0,0.0,0.0,0.0,0.0,0.0,0.0,0.0,0.0,0.0,-0.3954,0.0,-0.4788,-0.525,0.0,0.0,0.0,-0.5523,-0.5305,-0.573,-0.6163,-0.6441,0.0,0.0,0.0,0.0,-0.9198,-0.8739,-0.9271,-0.9787,-1.012,-1.0435,-1.0564,-1.0557,-1.039,-1.0488,-1.0796,-1.0849,-1.091,-1.1026,-1.1157,-1.1041,-1.0886,-1.0714,-1.0504,-1.0288,-1.051,-1.0444,-0.9428,-0.9065,-0.8468,-0.7483,-0.6493,-0.5891,-0.5976,-0.6047,-0.6091,-1.0294,-0.9717,-0.9164,-0.8509,-0.7833,-0.7766,-0.7722,-0.7642,-0.7633,-0.7756,-0.7968,-0.7844,-0.7886,-0.801,-0.8045,-0.8095,-0.8187,-0.8203,-0.8203,-0.8203,-0.8187,-0.8187,-0.8168,-0.7842,-0.7655,-0.7621,-0.7321,-0.7181,-0.7196,-0.7181,-0.7345,-0.7637,-0.7564,-0.7573,-0.7655,-0.7508,-0.7431,-0.7425,-0.7319,-0.6837,-0.5997,-0.5958,-0.544,-0.4318,-0.4366,-0.4133,-0.3597,-0.3666,-0.3869,-0.413,-0.3966,-0.3936,-0.4148,-0.3554,0.0,0.0,0.0,0.0,0.0,0.0,0.0,0.0,0.0,-0.3176,-0.2819,0.0,-0.3488,0.0,-0.4166,-0.4512,-0.4772,-0.4911,0.0,0.0,-0.5681,-0.5723,-0.6082,-0.6234,-0.6517,-0.7096,-0.748,-0.7968,-0.8511,-0.8716,-0.9003,-0.9515,-1.0071,-1.071,-1.1443,-1.1003,-1.093,-1.164,-1.1076,-1.0581,-1.0693,-1.07,-1.0743,-1.0817,-1.0836,-1.0766,-1.071,-1.0638,-1.0578,-1.0601,-1.0622,-1.0653,-1.0583,-1.0103,-0.9573,-0.9133,-0.7618,-0.6197,-0.6235,-0.6242,-0.6289,-1.1017,-1.0531,-1.0307,-0.9838,-0.9232,-0.8548,-0.8236,-0.8263,-0.8236,-0.828,-0.8307,-0.8332,-0.835,-0.8376,-0.8463,-0.8515,-0.8515,-0.8515,-0.8515,-0.8515,-0.8515,-0.8515,-0.8489,-0.8234,-0.8124,-0.8098,-0.7886,-0.7776,-0.7766,-0.757,-0.7566,-0.7784,-0.7618,-0.7618,-0.7794,-0.7957,-0.8065,-0.8124,-0.7892,-0.7382,-0.6646,-0.6568,-0.6096,-0.5178,-0.5151,-0.4911,-0.441,-0.4349,-0.4465,-0.4746,-0.4467,-0.4416,-0.4636,-0.4153,-0.3967,0.0,0.0,0.0,0.0,0.0,0.0,0.0,0.0,0.0,0.0,0.0,-0.3915,0.0,-0.4644,0.0,-0.5265,-0.5556,-0.582,-0.598,-0.6082,-0.621,-0.6377,-0.6661,-0.7007,-0.7443,-0.7771,-0.8088,-0.8484,-0.887,-0.9205,-0.9489,-1.0267,-1.0956,-1.1321,-1.1133,-1.1178,-1.1569,-1.1052,-1.0646,-1.0754,-1.078,-1.0855,-1.0982,-1.0948,-1.0911,-1.0861,-1.0814,-1.0767,-1.0692,-1.0767,-1.0857,-1.0906,-1.0472,-0.9969,-0.9271,-0.8125,-0.7102,-0.6891,-0.6932,-0.6971,-1.1604,-1.1236,-1.1236,-1.1002,-1.0541,-0.9158,-0.8504,-0.845,-0.8468,-0.8477,-0.8477,-0.8611,-0.8655,-0.8655,-0.8645,-0.8655,-0.8655,-0.8655,-0.8664,-0.8655,-0.8664,-0.8655,-0.8628,-0.8599,-0.8572,-0.8572,-0.8516,-0.8515,-0.8489,-0.8072,-0.7926,-0.7937,-0.7616,-0.7643,-0.8012,-0.839,-0.8544,-0.8481,-0.7951,-0.7517,-0.7169,-0.7142,-0.6892,-0.6436,-0.6256,-0.5984,-0.5574,-0.5343,-0.5286,-0.5419,-0.5195,-0.5068,-0.5079,-0.4886,-0.478,0.0,-0.4561,0.0,0.0,0.0,0.0,0.0,0.0,0.0,0.0,-0.4392,-0.4445,-0.4805,-0.5277,-0.5631,-0.5888,-0.6453,-0.6596,-0.6178,-0.6541,-0.6726,-0.6556,-0.706,-0.7505,-0.7621,-0.7885,-0.8101,-0.8449,-0.9187,-0.9515,-0.9435,-1.0251,-1.0863,-1.0707,-1.1045,-1.1209,-1.0832,-1.0713,-1.0673,-1.0868,-1.0902,-1.0989,-1.1202,-1.1155,-1.1132,-1.1118,-1.1029,-1.091,-1.0711,-1.0893,-1.1009,-1.0791,-1.059,-1.0088,-0.9342,-0.8816,-0.8221,-0.7463,-0.7352,-0.7434,-1.1811,-1.146,-1.1442,-1.1217,-1.0781,-1.0184,-0.9849,-0.9734,-0.9522,-0.9425,-0.9425,-0.9473,-0.9473,-0.9464,-0.9473,-0.9492,-0.9473,-0.9473,-0.9464,-0.9473,-0.9473,-0.9492,-0.9474,-0.9142,-0.8977,-0.8958,-0.8655,-0.8515,-0.8498,-0.8415,-0.8527,-0.8848,-0.8783,-0.8903,0.0,0.0,0.0,0.0,-0.7877,-0.7587,-0.7525,-0.771,-0.7559,-0.7052,-0.6739,0.0,-0.5863,-0.5819,-0.5772,-0.5656,-0.5784,0.0,0.0,0.0,0.0,0.0,0.0,0.0,0.0,0.0,0.0,0.0,-0.5296,-0.5153,-0.5157,-0.5673,-0.5865,-0.5581,-0.6037,-0.6268,-0.5998,-0.6129,-0.6358,-0.6633,-0.6834,-0.6974,-0.7053,-0.7438,-0.7785,-0.793,-0.8055,-0.8489,-0.9217,-0.9281,-0.9462,-1.012,-1.0735,-1.0906,-1.0679,-1.0751,-1.1108,-1.1841,-1.1202,-1.0638,-1.0667,-1.0687,-1.072,-1.0754,-1.0722,-1.0731,-1.0784,-1.0808,-1.0829,-1.0885,-1.0983,-1.1058,-1.1034,-1.098,-1.0825,-1.0669,-1.068,-0.9963,-0.7177,-0.6592,-0.6567,-1.2188,0.0,-1.1693,-1.1556,0.0,-1.0926,-1.0621,-1.037,-0.9911,-0.9703,-0.9703,-0.9703,-0.9703,-0.9703,-0.9703,-0.9703,-0.9703,-0.9703,-0.9703,-0.9703,-0.9703,-0.9703,-0.9693,-0.9511,-0.9381,-0.9372,-0.9179,-0.9078,-0.9069,-0.8903,-0.8894,-0.9087,-0.8894,-0.8849,-0.8892,-0.873,-0.845,-0.8017,-0.7721,-0.7485,-0.7277,-0.7348,-0.7243,-0.6929,0.0,0.0,0.0,0.0,0.0,0.0,0.0,0.0,0.0,0.0,0.0,-0.5984,-0.5659,-0.5543,-0.5717,-0.5457,-0.5527,-0.6051,-0.6229,-0.6024,-0.5452,-0.6086,-0.6382,-0.6118,-0.6928,-0.7231,-0.6677,-0.6997,-0.7213,-0.7039,-0.724,-0.743,-0.7524,-0.7847,-0.8113,-0.8216,-0.8493,-0.8898,-0.9284,-0.951,-0.9745,-1.0261,-1.0626,-1.0908,-1.1017,-1.1059,-1.1264,-1.1507,-1.1083,-1.0618,-1.0586,-1.0586,-1.0593,-1.06,-1.0643,-1.0653,-1.0699,-1.0858,-1.1045,-1.1106,-1.1184,-1.1218,-1.123,-1.1295,-1.1129,-1.0689,-1.0724,-1.0219,-0.7987,-0.7897,-0.7986,-1.2716,-1.2196,-1.2215,-1.2159,-1.2095,-1.1695,-1.1271,-1.0813,0.0,0.0,0.0,-0.9703,-0.9703,-0.9703,-0.9703,-0.9703,-0.9703,-0.9703,-0.9703,-0.9703,-0.9703,-0.9703,-0.9703,-0.9703,-0.9703,-0.9703,-0.9703,-0.9703,-0.9684,-0.9354,-0.9198,-0.917,-0.8857,-0.8576,-0.8388,-0.8326,-0.813,-0.7804,-0.7721,-0.7469,-0.7037,-0.7013,-0.6969,-0.6921,-0.6822,-0.6788,-0.6781,-0.7206,-0.7075,-0.6336,-0.7146,-0.7206,-0.6252,-0.674,-0.6932,-0.6593,-0.659,-0.6466,-0.6168,-0.6143,-0.6246,-0.6458,-0.7067,-0.6958,-0.5894,-0.6418,-0.6752,-0.6691,-0.7751,-0.8091,-0.733,-0.7875,-0.8072,-0.7412,-0.7629,-0.7847,-0.7916,-0.8202,-0.8427,-0.8537,-0.8894,-0.9187,-0.9269,-0.9725,-1.0117,-1.0214,-1.0594,-1.0902,-1.1358,-1.1452,-1.1272,-1.0839,-1.0649,-1.0586,-1.0593,-1.066,-1.066,-1.07,-1.0758,-1.0843,-1.094,-1.1203,-1.1388,-1.1448,-1.142,-1.1415,-1.1422,-1.1382,-1.1103,-1.0262,-1.0291,-1.0203,-0.9543,-0.9862,-0.986,-1.3443,-1.3366,-1.3354,-1.3366,-1.3314,-1.2929,-1.2278,-1.1382,-1.0221,-0.9703,-0.9703,-0.9703,-0.9703,-0.9703,-0.9703,-0.9703,-0.9703,-0.9703,-0.9703,0.0,-0.9703,-0.9703,-0.9703,-0.9703,-0.9703,-0.9703,-0.9703,-0.9703,-0.9693,-0.9638,-0.9611,-0.9582,-0.9438,-0.9124,-0.868,-0.8635,-0.8459,-0.8139,-0.8069,-0.7859,-0.7512,-0.7712,-0.7904,-0.8032,-0.7654,-0.7462,-0.7446,-0.7531,-0.7362,-0.6907,-0.7252,-0.7232,-0.6813,-0.72,-0.7229,-0.6834,-0.7173,-0.721,-0.6729,-0.6956,-0.7234,-0.757,-0.8251,-0.8206,-0.7184,-0.7561,-0.7863,-0.786,-0.8239,-0.8195,-0.7482,-0.7592,-0.7784,-0.7866,-0.7936,-0.805,-0.8279,-0.8481,-0.867,-0.8911,-0.8991,-0.9302,-0.9784,-1.003,-1.0234,-1.0521,-1.086,-1.1365,-1.1389,-1.1514,-1.124,-1.0744,-1.0586,-1.0586,-1.064,-1.0814,-1.0895,-1.0935,-1.1136,-1.1368,-1.1608,-1.1733,-1.1791,-1.1862,-1.1742,-1.1589,-1.1446,-1.1248,-1.1097,-1.0856,-1.0915,-1.091,-1.0858,-1.1123,-1.0813,-1.3857,-1.3624,-1.3624,-1.3624,-1.3552,-1.2868,-1.2308,-1.1794,-1.0802,-1.0217,-1.0033,-1.0015,-0.9905,-0.9703,-0.9703,-0.9703,-0.9703,-0.9703,-0.9703,-0.9703,-0.9703,-0.9703,-0.9703,-0.9703,-0.9703,-0.9703,-0.9703,-0.9703,-0.9703,-0.9703,-0.9703,-0.9703,-0.9563,-0.9365,-0.9147,-0.9138,-0.8932,-0.8522,-0.8308,-0.8104,-0.7952,-0.8061,-0.8052,-0.7932,-0.7712,-0.75,-0.7311,-0.7737,-0.7651,-0.6978,-0.7964,-0.8105,-0.7212,-0.7764,-0.7922,-0.7465,-0.7688,-0.7721,-0.7414,-0.7819,-0.8085,-0.8161,-0.839,-0.8453,-0.8248,-0.8141,-0.8019,-0.7877,-0.8184,-0.8314,-0.7954,-0.8197,-0.8349,-0.8119,-0.8236,-0.8429,-0.8675,-0.8767,-0.8966,-0.9297,-0.951,-0.9738,-1.005,-1.0254,-1.0394,-1.0611,-1.087,-1.1028,-1.1021,-1.1028,-1.0965,-1.0681,-1.0593,-1.0667,-1.0794,-1.0895,-1.1049,-1.1189,-1.147,-1.1697,-1.1906,-1.2013,-1.2072,-1.2007,-1.1818,-1.1632,-1.1446,-1.126,-1.1155,-1.1129,-1.125,-1.1351,-1.1477,-1.17,-1.1456,-1.438,-1.3958,-1.3958,-1.3925,-1.3863,-1.3022,-1.2566,-1.2379,-1.1631,-1.1023,-1.0585,-1.0474,-1.0275,-0.9978,-0.9969,-0.9923,-0.9841,-0.9831,-0.9785,-0.9703,-0.9703,-0.9703,-0.9703,-0.9703,-0.9703,-0.9703,-0.9703,-0.9703,-0.9703,-0.9703,-0.9654,-0.9594,-0.9504,-0.9415,-0.9375,-0.9415,-0.9243,-0.8894,-0.8647,-0.8406,-0.8219,-0.821,-0.8067,-0.7792,-0.7782,-0.7605,-0.7338,-0.7907,-0.7917,-0.7282,-0.8477,-0.8663,-0.7619,-0.8245,-0.8473,-0.8034,-0.8201,-0.8333,-0.8259,-0.8595,-0.8772,-0.8651,-0.8501,-0.8569,-0.8949,-0.8648,-0.8331,-0.8199,-0.8534,-0.8682,-0.8584,-0.8767,-0.8824,-0.8407,-0.8538,-0.8789,-0.9012,-0.911,-0.9317,-0.9717,-0.998,-1.009,-1.0234,-1.0445,-1.0573,-1.0579,-1.0681,-1.0776,-1.0656,-1.0721,-1.0878,-1.0719,-1.0687,-1.0774,-1.0969,-1.1142,-1.1289,-1.1503,-1.177,-1.1937,-1.1981,-1.2098,-1.2131,-1.1966,-1.1737,-1.1595,-1.1409,-1.1223,-1.1148,-1.1176,-1.1345,-1.1552,-1.17,-1.2042,-1.2129,-1.525,-1.4993,-1.4924,-1.497,-1.4857,-1.4244,-1.3772,-1.3395,-1.2806,-1.2106,-1.1403,-1.1021,-1.0859,-1.08,-1.0763,-1.0579,-1.0254,-1.0257,-1.0043,-0.9739,-0.9703,-0.9703,-0.9703,-0.9703,-0.9703,-0.9703,-0.9703,-0.9703,-0.9703,-0.9703,-0.9585,-0.9368,-0.9248,-0.9177,-0.9076,-0.9177,-0.9228,-0.9173,-0.92,-0.8895,-0.8246,-0.8263,-0.8262,-0.8253,-0.8235,-0.8217,-0.811,-0.8149,-0.8079,-0.8,-0.8158,-0.8193,-0.8088,-0.8466,-0.8491,-0.8069,-0.8747,-0.9173,-0.9173,-0.9209,-0.9203,-0.907,-0.9039,-0.9077,-0.9212,-0.9257,-0.9432,-0.9602,-0.9551,-0.937,-0.9275,-0.8837,-0.8619,-0.8725,-0.8895,-0.9025,-0.9215,-0.9451,-0.9753,-1.0017,-1.012,-1.0214,-1.0472,-1.0566,-1.0586,-1.0624,-1.0933,-1.1073,-1.078,-1.1194,-1.1444,-1.1113,-1.0955,-1.0982,-1.1096,-1.1497,-1.1732,-1.1866,-1.2064,-1.2161,-1.2041,-1.1987,-1.1966,-1.1781,-1.1595,-1.1446,-1.1372,-1.1235,-1.122,-1.1357,-1.1507,-1.1657,-1.2073,-1.2445,-1.2421,-1.539,-1.5119,-1.5119,-1.5119,-1.5017,-1.4524,-1.4186,-1.3894,-1.3372,-1.2888,-1.2483,-1.213,-1.1579,-1.091,-1.0892,-1.0809,-1.0631,-1.0401,-1.0238,-1.0033,-0.9822,-0.9703,-0.9703,-0.9703,-0.9703,-0.9703,-0.9703,-0.9703,-0.9683,-0.9623,-0.9534,-0.9426,-0.9308,-0.9228,-0.9208,-0.9228,-0.9248,-0.9268,-0.9299,-0.9129,-0.8845,-0.8858,-0.8789,-0.8557,-0.8539,-0.8406,-0.8229,-0.8352,-0.843,-0.8419,-0.8612,-0.8715,-0.8638,-0.8785,-0.8833,-0.8732,-0.9131,-0.9524,-0.9748,-0.9839,-0.9906,-0.9938,-0.9732,-0.9744,-1.0048,-1.0091,-1.0183,-1.025,-0.9814,-0.9361,-0.9014,-0.8891,-0.8895,-0.8968,-0.922,-0.9508,-0.9724,-0.9837,-1.0047,-1.0327,-1.0412,-1.0439,-1.0559,-1.0586,-1.0586,-1.0624,-1.0846,-1.09,-1.0879,-1.1183,-1.132,-1.1296,-1.139,-1.1503,-1.1516,-1.1712,-1.196,-1.2127,-1.2218,-1.2218,-1.204,-1.2003,-1.1892,-1.1601,-1.1465,-1.1353,-1.1229,-1.1312,-1.1381,-1.1549,-1.1872,-1.2113,-1.2475,-1.2626,-1.2632,-1.5546,-1.5244,-1.5153,-1.5119,-1.5074,-1.4697,-1.4443,-1.4222,-1.3789,-1.3505,-1.3266,-1.2997,-1.2377,-1.1485,-1.1301,-1.1196,-1.1048,-1.075,-1.0557,-1.0438,-1.0153,-0.9978,-0.9868,-0.9859,-0.9804,-0.9692,-0.9703,-0.9703,-0.9683,-0.9515,-0.9455,-0.9435,-0.9288,-0.9228,-0.9228,-0.9219,-0.9228,-0.9228,-0.9208,-0.9188,-0.9148,-0.9188,-0.9116,-0.8842,-0.8835,-0.8684,-0.842,-0.8657,-0.8739,-0.8718,-0.9006,-0.9125,-0.9065,-0.9056,-0.916,-0.9427,-0.9587,-0.9848,-1.0236,-1.034,-1.0425,-1.0377,-1.0185,-1.027,-1.063,-1.0614,-1.0509,-1.044,-0.9948,-0.941,-0.9065,-0.905,-0.9154,-0.9197,-0.9568,-0.9893,-1.0074,-1.0174,-1.0321,-1.0553,-1.0559,-1.0586,-1.0586,-1.0586,-1.0586,-1.0586,-1.0667,-1.0767,-1.1008,-1.1156,-1.1363,-1.1523,-1.1797,-1.1917,-1.1933,-1.1993,-1.212,-1.2198,-1.2305,-1.2224,-1.204,-1.1966,-1.1855,-1.1527,-1.1465,-1.1395,-1.1348,-1.1461,-1.1651,-1.1778,-1.2089,-1.2433,-1.2632,-1.2699,-1.2705,-1.5935,-1.5558,-1.521,-1.5119,-1.5097,-1.4937,-1.4686,-1.4396,-1.4233,-1.3965,-1.3621,-1.3443,-1.3116,-1.2657,-1.2188,-1.1849,-1.1513,-1.1421,-1.1168,-1.087,-1.0827,-1.0634,-1.0272,-1.0263,-1.007,-0.9776,-0.9758,-0.973,-0.9692,-0.9437,-0.9308,-0.9308,-0.9136,-0.9024,-0.9036,-0.9036,-0.9016,-0.9036,-0.9036,-0.9016,-0.8996,-0.9016,-0.9068,-0.9124,-0.9162,-0.9127,-0.9098,-0.9033,-0.8981,-0.897,-0.9007,-0.9065,-0.9177,-0.9205,-0.9456,-0.9951,-1.0044,-1.0257,-1.0601,-1.0695,-1.0595,-1.0321,-1.0334,-1.0433,-1.0914,-1.0637,-1.0364,-1.0218,-1.0072,-0.9874,-0.97,-0.9382,-0.9284,-0.9624,-0.9897,-1.0094,-1.0127,-1.0399,-1.0546,-1.0586,-1.0586,-1.0586,-1.0586,-1.0586,-1.0606,-1.0667,-1.0834,-1.0995,-1.1122,-1.1517,-1.1779,-1.1877,-1.2051,-1.2184,-1.2007,-1.2087,-1.2218,-1.2298,-1.2268,-1.2224,-1.204,-1.1855,-1.1632,-1.1509,-1.1481,-1.1494,-1.154,-1.1688,-1.194,-1.2139,-1.2391,-1.2656,-1.2693,-1.2699,-1.2705,-1.6141,-1.5579,-1.5479,-1.53,-1.5108,-1.5062,-1.4915,-1.4709,-1.4686,-1.4547,-1.4337,-1.4046,-1.3647,-1.316,-1.2749,-1.2303,-1.1871,-1.1632,-1.143,-1.1255,-1.103,-1.0827,-1.0686,-1.0689,-1.0478,-1.0135,-1.0109,-0.9942,-0.9672,-0.9428,-0.9308,-0.9268,-0.9096,-0.8996,-0.8996,-0.8996,-0.8996,-0.8996,-0.8996,-0.8996,-0.8996,-0.8996,-0.9016,-0.9085,-0.9076,-0.9065,-0.9076,-0.9024,-0.8996,-0.8996,-0.8996,-0.9065,-0.9197,-0.9326,-0.9605,-1.0047,-1.0185,-1.052,-1.1104,-1.1214,-1.1214,-1.1174,-1.1152,-1.1187,-1.1341,-1.1175,-1.0812,-1.03,-0.9929,-0.9848,-1.008,-0.9904,-0.9751,-0.9943,-1.0244,-1.0412,-1.0445,-1.0526,-1.0586,-1.0586,-1.0586,-1.0586,-1.0586,-1.0593,-1.0667,-1.0808,-1.0935,-1.1156,-1.1517,-1.1792,-1.1973,-1.2104,-1.2231,-1.2271,-1.2184,-1.2211,-1.2298,-1.2298,-1.2268,-1.2114,-1.1929,-1.185,-1.1676,-1.1607,-1.1587,-1.1691,-1.1754,-1.197,-1.2264,-1.2457,-1.2681,-1.2681,-1.2699,-1.2705,-1.2705,-1.6324,-1.5812,-1.5657,-1.5479,-1.5266,-1.5153,-1.5062,-1.496,-1.4949,-1.4937,-1.4823,-1.4547,-1.4142,-1.3647,-1.3208,-1.2735,-1.2295,-1.1898,-1.1697,-1.1654,-1.1426,-1.1232,-1.1122,-1.1104,-1.0879,-1.0539,-1.0505,-1.0327,-1.0068,-0.9729,-0.9535,-0.9482,-0.9206,-0.9044,-0.8996,-0.8996,-0.8996,-0.8996,-0.8996,-0.8996,-0.8996,-0.8996,-0.8996,-0.8996,-0.8996,-0.8996,-0.8996,-0.8996,-0.8996,-0.8996,-0.8996,-0.9136,-0.9383,-0.9593,-0.9968,-1.0473,-1.0607,-1.0903,-1.1506,-1.1553,-1.1573,-1.1733,-1.1694,-1.1678,-1.1578,-1.1259,-1.0711,-1.012,-0.9973,-1.0017,-1.0315,-1.0478,-1.0554,-1.0551,-1.059,-1.0586,-1.0586,-1.0586,-1.0586,-1.0586,-1.0586,-1.0586,-1.0606,-1.0687,-1.0821,-1.0982,-1.1169,-1.1504,-1.1806,-1.2,-1.2058,-1.2258,-1.2291,-1.2305,-1.2265,-1.2278,-1.2298,-1.2305,-1.2305,-1.2114,-1.1943,-1.1864,-1.1797,-1.1729,-1.1781,-1.1896,-1.2101,-1.2306,-1.2487,-1.2662,-1.2699,-1.2693,-1.2705,-1.2705,-1.2753,-1.6522,-1.6166,-1.578,-1.5613,-1.5524,-1.5232,-1.5119,-1.5085,-1.5097,-1.5074,-1.504,-1.4937,-1.4582,-1.4142,-1.3647,-1.3156,-1.2706,-1.2316,-1.2135,-1.211,-1.2076,-1.1874,-1.1593,-1.1513,-1.1301,-1.091,-1.0892,-1.0864,-1.0759,-1.0328,-1.0007,-0.9839,-0.9456,-0.9194,-0.9021,-0.903,-0.8996,-0.8996,-0.8996,-0.8996,-0.8996,-0.8996,-0.8996,-0.8996,-0.8996,-0.9013,-0.9021,-0.9013,-0.8996,-0.9004,-0.903,-0.9316,-0.9806,-1.0037,-1.0487,-1.1186,-1.1308,-1.1477,-1.1787,-1.1649,-1.1649,-1.1794,-1.1778,-1.1619,-1.1393,-1.0811,-1.0211,-0.9843,-1.0135,-1.0451,-1.0552,-1.0949,-1.1348,-1.1421,-1.0926,-1.0586,-1.0586,-1.0586,-1.0586,-1.0586,-1.0586,-1.06,-1.066,-1.0821,-1.0975,-1.1156,-1.1504,-1.1832,-1.196,-1.2111,-1.2265,-1.2298,-1.2305,-1.2305,-1.2305,-1.2305,-1.2305,-1.2305,-1.2305,-1.2207,-1.2146,-1.2036,-1.2005,-1.1984,-1.214,-1.2258,-1.2373,-1.2554,-1.2578,-1.2705,-1.2705,-1.2711,-1.2711,-1.2747,-1.2886,-1.6863,-1.6509,-1.6154,-1.5846,-1.5568,-1.5244,-1.5119,-1.5119,-1.5119,-1.5119,-1.5085,-1.5062,-1.4789,-1.4362,-1.4048,-1.3658,-1.319,-1.2963,-1.272,-1.2544,-1.2529,-1.2414,-1.2276,-1.2039,-1.1706,-1.1311,-1.1007,-1.0901,-1.087,-1.0649,-1.0431,-1.0241,-0.9846,-0.9565,-0.9401,-0.9141,-0.8996,-0.8996,-0.8996,-0.8996,-0.8996,-0.8996,-0.9004,-0.8996,-0.8996,-0.9115,-0.9384,-0.9141,-0.9004,-0.9021,-0.926,-0.9696,-1.0211,-1.0431,-1.0809,-1.1374,-1.1371,-1.1472,-1.1805,-1.1744,-1.1653,-1.1753,-1.1803,-1.1803,-1.1697,-1.1143,-1.0596,-1.0337,-1.0946,-1.1293,-1.0887,-1.0973,-1.1326,-1.1461,-1.0958,-1.0586,-1.0586,-1.0586,-1.0586,-1.0586,-1.0586,-1.0673,-1.0815,-1.0989,-1.1182,-1.1538,-1.1799,-1.1966,-1.2131,-1.2225,-1.2298,-1.2305,-1.2305,-1.2305,-1.2305,-1.2318,-1.2331,-1.2378,-1.2398,-1.232,-1.225,-1.2286,-1.2244,-1.2262,-1.2413,-1.2536,-1.265,-1.2705,-1.2705,-1.2717,-1.2723,-1.2729,-1.2729,-1.2856,-1.3049,-1.7073,-1.685,-1.6522,-1.6163,-1.5802,-1.5446,-1.5221,-1.5119,-1.5119,-1.5119,-1.5119,-1.5119,-1.4903,-1.4593,-1.4362,-1.4059,-1.3695,-1.3624,-1.3467,-1.319,-1.2798,-1.2715,-1.2666,-1.2298,-1.1991,-1.1733,-1.1467,-1.1361,-1.1352,-1.1122,-1.0912,-1.0681,-1.0277,-0.9961,-0.9769,-0.9435,-0.9218,-0.9201,-0.9072,-0.8996,-0.903,-0.9149,-0.9238,-0.9255,-0.9346,-0.9542,-0.9747,-0.9542,-0.9414,-0.9448,-0.9662,-1.0055,-1.0584,-1.0784,-1.1093,-1.1513,-1.1598,-1.1658,-1.1841,-1.1728,-1.1653,-1.1678,-1.1519,-1.1421,-1.1353,-1.1001,-1.0635,-1.0602,-1.142,-1.1799,-1.1279,-1.1451,-1.1578,-1.1399,-1.0926,-1.0618,-1.0586,-1.0586,-1.066,-1.072,-1.076,-1.0862,-1.1062,-1.1296,-1.1436,-1.1839,-1.2,-1.2094,-1.2258,-1.2298,-1.2305,-1.2305,-1.2305,-1.2305,-1.2305,-1.2325,-1.2358,-1.2438,-1.2518,-1.2434,-1.2343,-1.253,-1.2552,-1.2517,-1.2584,-1.2602,-1.2705,-1.2705,-1.2705,-1.2723,-1.2783,-1.288,-1.2958,-1.3133,-1.332,-1.7199,-1.7157,-1.6829,-1.65,-1.6188,-1.579,-1.5457,-1.5176,-1.5153,-1.5142,-1.5108,-1.5119,-1.504,-1.4835,-1.4581,-1.4362,-1.4246,-1.4199,-1.4199,-1.3918,-1.33,-1.2779,-1.2613,-1.2264,-1.2073,-1.2021,-1.1994,-1.2003,-1.1871,-1.1606,-1.1398,-1.1093,-1.0724,-1.0398,-1.0126,-0.979,-0.9602,-0.9568,-0.9277,-0.9141,-0.9158,-0.9423,-0.9632,-0.9619,-0.9853,-1.0041,-1.0132,-1.0157,-1.0157,-1.014,-1.014,-1.0375,-1.0835,-1.1041,-1.1354,-1.1796,-1.1868,-1.1816,-1.1819,-1.1628,-1.1519,-1.1569,-1.1201,-1.0665,-1.0865,-1.072,-1.0494,-1.0516,-1.1591,-1.2126,-1.1713,-1.1995,-1.1989,-1.1389,-1.0839,-1.0586,-1.0586,-1.0606,-1.0727,-1.0875,-1.0975,-1.1116,-1.1362,-1.1643,-1.1839,-1.1986,-1.2131,-1.2245,-1.2285,-1.2305,-1.2305,-1.2305,-1.2305,-1.2385,-1.2412,-1.2472,-1.2532,-1.2714,-1.2801,-1.2667,-1.2531,-1.2652,-1.2735,-1.2698,-1.2668,-1.2693,-1.2705,-1.2705,-1.2759,-1.2831,-1.2891,-1.3035,-1.3191,-1.3393,-1.355,-1.7212,-1.7157,-1.685,-1.6659,-1.6509,-1.6175,-1.5824,-1.5501,-1.5457,-1.5334,-1.5153,-1.5119,-1.5085,-1.5028,-1.4846,-1.4754,-1.4686,-1.4651,-1.4685,-1.457,-1.3671,-1.2852,-1.2378,-1.2166,-1.2051,-1.1977,-1.1952,-1.1902,-1.1794,-1.1776,-1.1632,-1.1411,-1.1089,-1.081,-1.0514,-1.0157,-0.9986,-0.9969,-0.9893,-0.9799,-0.9807,-0.9879,-0.9956,-0.9986,-1.008,-1.0277,-1.0542,-1.0839,-1.0822,-1.0567,-1.0542,-1.0785,-1.1251,-1.1353,-1.1495,-1.1683,-1.1669,-1.1594,-1.1578,-1.1477,-1.1393,-1.1428,-1.1378,-1.1388,-1.1167,-1.123,-1.1148,-1.1197,-1.1879,-1.2096,-1.1428,-1.1804,-1.1856,-1.1272,-1.074,-1.0486,-1.0646,-1.0774,-1.0842,-1.078,-1.1076,-1.1349,-1.1623,-1.1784,-1.2,-1.2131,-1.2238,-1.2305,-1.2305,-1.2305,-1.2305,-1.2305,-1.2331,-1.2458,-1.2589,-1.265,-1.2766,-1.302,-1.3081,-1.3024,-1.2857,-1.2787,-1.274,-1.2687,-1.2687,-1.2699,-1.2705,-1.2711,-1.2807,-1.2897,-1.3059,-1.3215,-1.3447,-1.3616,-1.3749,-1.7212,-1.7178,-1.6989,-1.6829,-1.6689,-1.65,-1.6098,-1.5668,-1.5579,-1.5412,-1.5153,-1.5119,-1.5119,-1.5097,-1.5006,-1.4971,-1.4994,-1.4937,-1.4937,-1.4823,-1.4048,-1.3098,-1.2338,-1.2076,-1.2026,-1.1927,-1.1902,-1.1828,-1.1728,-1.1803,-1.1703,-1.1509,-1.1358,-1.1164,-1.0925,-1.0559,-1.0362,-1.0328,-1.0203,-1.01,-1.01,-1.0285,-1.0362,-1.0405,-1.0491,-1.0754,-1.0968,-1.119,-1.1181,-1.0994,-1.0959,-1.1103,-1.1367,-1.1477,-1.1519,-1.1594,-1.1644,-1.1628,-1.1528,-1.1477,-1.1427,-1.1336,-1.1436,-1.151,-1.1516,-1.1652,-1.1591,-1.1851,-1.2447,-1.2197,-1.1483,-1.149,-1.1532,-1.1305,-1.0863,-1.067,-1.0928,-1.0986,-1.1069,-1.1182,-1.1396,-1.1703,-1.1924,-1.2011,-1.2124,-1.2251,-1.2285,-1.2305,-1.2305,-1.2305,-1.2325,-1.2345,-1.2445,-1.2636,-1.2797,-1.2891,-1.3014,-1.326,-1.3263,-1.3217,-1.3037,-1.2849,-1.2772,-1.2699,-1.2699,-1.2717,-1.2741,-1.2801,-1.2903,-1.3053,-1.3221,-1.3477,-1.3682,-1.3833,-1.3966,-1.7212,-1.7212,-1.7212,-1.7031,-1.6774,-1.6731,-1.6389,-1.5834,-1.5724,-1.5501,-1.5221,-1.5131,-1.5119,-1.5119,-1.5085,-1.5097,-1.5085,-1.5062,-1.4971,-1.4731,-1.4165,-1.3348,-1.2372,-1.2175,-1.2076,-1.1943,-1.1902,-1.1778,-1.1653,-1.1653,-1.1619,-1.1485,-1.1451,-1.141,-1.1215,-1.0916,-1.0772,-1.0704,-1.0499,-1.0379,-1.0414,-1.061,-1.0747,-1.0814,-1.1011,-1.1173,-1.1241,-1.1301,-1.1276,-1.1293,-1.1301,-1.1276,-1.1318,-1.1427,-1.1452,-1.1494,-1.1619,-1.1653,-1.1528,-1.1528,-1.1571,-1.1413,-1.1284,-1.1352,-1.178,-1.1828,-1.1903,-1.2304,-1.2873,-1.2405,-1.184,-1.1293,-1.1362,-1.152,-1.1271,-1.1234,-1.1407,-1.1281,-1.1283,-1.1799,-1.185,-1.2051,-1.2204,-1.2305,-1.2305,-1.2278,-1.2305,-1.2305,-1.2305,-1.2305,-1.2365,-1.2432,-1.2616,-1.2804,-1.2978,-1.3106,-1.328,-1.3423,-1.3352,-1.329,-1.2995,-1.2845,-1.2729,-1.2705,-1.2705,-1.2753,-1.2831,-1.2934,-1.3047,-1.3282,-1.355,-1.3761,-1.3954,-1.4063,-1.4183,-1.7212,-1.7212,-1.7212,-1.7157,-1.7102,-1.7081,-1.6829,-1.6432,-1.6154,-1.5824,-1.5501,-1.521,-1.5119,-1.5119,-1.5119,-1.5119,-1.5119,-1.5074,-1.4823,-1.4235,-1.4131,-1.3539,-1.2764,-1.2421,-1.2175,-1.2026,-1.1719,-1.1553,-1.1452,-1.1494,-1.1469,-1.1377,-1.1427,-1.1452,-1.1301,-1.1207,-1.1181,-1.113,-1.1036,-1.0968,-1.0951,-1.1036,-1.1122,-1.113,-1.125,-1.1284,-1.1301,-1.1301,-1.1301,-1.1301,-1.1301,-1.1301,-1.1301,-1.1326,-1.1352,-1.1377,-1.1402,-1.1427,-1.1377,-1.1403,-1.1481,-1.1661,-1.1822,-1.2013,-1.2072,-1.2172,-1.2249,-1.239,-1.2151,-1.2058,-1.1987,-1.2034,-1.2012,-1.2029,-1.1919,-1.1785,-1.1881,-1.1657,-1.155,-1.1762,-1.2024,-1.2225,-1.2291,-1.2305,-1.2305,-1.2305,-1.2305,-1.2305,-1.2331,-1.2351,-1.2472,-1.2612,-1.2812,-1.3026,-1.3233,-1.3326,-1.3369,-1.3422,-1.3374,-1.3215,-1.296,-1.2845,-1.2777,-1.2747,-1.2705,-1.2789,-1.2928,-1.3109,-1.3227,-1.3556,-1.3809,-1.3966,-1.4117,-1.425,-1.4358,-1.7212,-1.7212,-1.7212,-1.7212,-1.7212,-1.7212,-1.701,-1.668,-1.6349,-1.5969,-1.5591,-1.5244,-1.5119,-1.5119,-1.5119,-1.5119,-1.5119,-1.5085,-1.48,-1.4385,-1.4222,-1.3871,-1.3272,-1.2691,-1.2308,-1.2076,-1.1703,-1.1452,-1.1377,-1.1377,-1.1368,-1.1301,-1.1368,-1.1368,-1.1301,-1.1301,-1.1284,-1.1284,-1.1301,-1.1301,-1.1301,-1.1301,-1.1301,-1.1301,-1.1301,-1.1301,-1.1301,-1.1301,-1.1301,-1.1301,-1.1301,-1.1301,-1.1301,-1.1301,-1.1301,-1.1301,-1.1377,-1.1352,-1.1326,-1.1498,-1.1714,-1.1823,-1.2255,-1.2547,-1.2668,-1.2737,-1.2834,-1.282,-1.2574,-1.2321,-1.2492,-1.2608,-1.2647,-1.258,-1.2504,-1.2403,-1.2293,-1.1921,-1.1703,-1.1912,-1.2178,-1.2265,-1.2305,-1.2305,-1.2305,-1.2305,-1.2331,-1.2345,-1.2589,-1.2636,-1.2739,-1.2899,-1.31,-1.3267,-1.35,-1.3508,-1.3438,-1.3368,-1.3214,-1.3052,-1.2833,-1.2832,-1.2874,-1.2837,-1.2807,-1.2928,-1.3073,-1.326,-1.3438,-1.3731,-1.3954,-1.4117,-1.4226,-1.428,-1.4407,-1.7212,-1.7212,-1.7212,-1.7212,-1.7212,-1.7199,-1.7052,-1.6778,-1.6362,-1.6022,-1.5657,-1.5289,-1.5119,-1.5119,-1.5119,-1.5119,-1.5119,-1.5062,-1.4857,-1.4569,-1.4419,-1.4093,-1.3597,-1.291,-1.2372,-1.2126,-1.1678,-1.1427,-1.1326,-1.1301,-1.1326,-1.1301,-1.1301,-1.1293,-1.1301,-1.1301,-1.1301,-1.1301,-1.1301,-1.1301,-1.1301,-1.1301,-1.1301,-1.1301,-1.1301,-1.1301,-1.1301,-1.1301,-1.1301,-1.1301,-1.1301,-1.1301,-1.1301,-1.1301,-1.1301,-1.1301,-1.1402,-1.1437,-1.1473,-1.1705,-1.1911,-1.1925,-1.2532,-1.3021,-1.3184,-1.3241,-1.3304,-1.3277,-1.3111,-1.2958,-1.3132,-1.3413,-1.3366,-1.3229,-1.3155,-1.307,-1.2651,-1.215,-1.2055,-1.2175,-1.2265,-1.2291,-1.2305,-1.2305,-1.2305,-1.2318,-1.2351,-1.2445,-1.2697,-1.2898,-1.3006,-1.3153,-1.334,-1.3412,-1.3596,-1.3592,-1.3497,-1.3281,-1.3143,-1.3022,-1.282,-1.2892,-1.2982,-1.2958,-1.297,-1.3127,-1.332,-1.355,-1.3761,-1.3948,-1.4075,-1.4214,-1.4274,-1.4298,-1.4455,-1.7212,-1.7212,-1.7212,-1.7212,-1.7212,-1.7212,-1.7157,-1.6997,-1.647,-1.6166,-1.5991,-1.5424,-1.5119,-1.5119,-1.5119,-1.5097,-1.5074,-1.5017,-1.4869,-1.4593,-1.443,-1.415,-1.3702,-1.2934,-1.248,-1.2258,-1.1753,-1.1326,-1.1301,-1.1301,-1.1301,-1.1301,-1.1301,-1.1301,-1.1301,-1.1301,-1.1301,-1.1301,-1.1301,-1.1301,-1.1301,-1.1301,-1.1301,-1.1301,-1.1301,-1.1301,-1.1301,-1.1301,-1.1301,-1.1301,-1.1301,-1.1301,-1.1301,-1.1301,-1.1301,-1.131,-1.1369,-1.1464,-1.1661,-1.1798,-1.2201,-1.2612,-1.2966,-1.3151,-1.3361,-1.3429,-1.345,-1.3445,-1.3358,-1.3277,-1.3315,-1.4012,-1.4264,-1.4114,-1.4085,-1.405,-1.3259,-1.2691,-1.2387,-1.2439,-1.2378,-1.2305,-1.2305,-1.2288,-1.2314,-1.2388,-1.2481,-1.2621,-1.2841,-1.3047,-1.3227,-1.338,-1.3533,-1.3602,-1.3675,-1.361,-1.3548,-1.3228,-1.3065,-1.3108,-1.3021,-1.3043,-1.3053,-1.3188,-1.3302,-1.3471,-1.3664,-1.3839,-1.3978,-1.4117,-1.4214,-1.4298,-1.4316,-1.4346,-1.4515,-1.7212,-1.7212,-1.7212,-1.7212,-1.7212,-1.7212,-1.7212,-1.7094,-1.65,-1.62,-1.5991,-1.5458,-1.5119,-1.5119,-1.5119,-1.5051,-1.4914,-1.4766,-1.4605,-1.4396,-1.4244,-1.408,-1.3726,-1.291,-1.2603,-1.2283,-1.1728,-1.1293,-1.1301,-1.1301,-1.1301,-1.1301,-1.1301,-1.1301,-1.1301,-1.1301,-1.1301,-1.1301,-1.1301,-1.1301,-1.1301,-1.1301,-1.1301,-1.1301,-1.1301,-1.1301,-1.1301,-1.1301,-1.1301,-1.1301,-1.1301,-1.1301,-1.1301,-1.131,-1.131,-1.1319,-1.1456,-1.161,-1.1892,-1.2122,-1.2629,-1.2903,-1.3155,-1.3305,-1.3451,-1.3472,-1.3459,-1.3449,-1.363,-1.37,-1.3875,-1.4685,-1.479,-1.4501,-1.4656,-1.4414,-1.3724,-1.3069,-1.282,-1.2636,-1.2342,-1.2231,-1.2268,-1.2294,-1.2317,-1.243,-1.2583,-1.2802,-1.2988,-1.3207,-1.3371,-1.3551,-1.3683,-1.3673,-1.3656,-1.3584,-1.3528,-1.3254,-1.3071,-1.3107,-1.3258,-1.3308,-1.3453,-1.358,-1.3707,-1.3791,-1.3863,-1.3984,-1.4135,-1.4256,-1.428,-1.431,-1.4346,-1.4425,-1.4606,-1.7212,-1.7212,-1.7212,-1.7212,-1.7212,-1.7212,-1.7212,-1.7073,-1.6586,-1.6287,-1.61,-1.5536,-1.5176,-1.5108,-1.5017,-1.488,-1.4685,-1.4512,-1.4373,-1.4222,-1.408,-1.3939,-1.3607,-1.3031,-1.2505,-1.2406,-1.1852,-1.1368,-1.1293,-1.1301,-1.1301,-1.1301,-1.1301,-1.1301,-1.1301,-1.1301,-1.1301,-1.1301,-1.1301,-1.1301,-1.1301,-1.1301,-1.1301,-1.1301,-1.1301,-1.1301,-1.1301,-1.1301,-1.1301,-1.1301,-1.1301,-1.1301,-1.131,-1.1345,-1.1387,-1.1464,-1.1661,-1.1832,-1.2191,-1.2543,-1.2928,-1.3172,-1.3357,-1.3468,-1.3502,-1.348,-1.3459,-1.3414,-1.3675,-1.4062,-1.4377,-1.4992,-1.5111,-1.4993,-1.4914,-1.4768,-1.4013,-1.3404,-1.3039,-1.2746,-1.2305,-1.2164,-1.2207,-1.222,-1.2236,-1.2614,-1.2774,-1.2962,-1.3147,-1.3315,-1.3505,-1.3677,-1.3811,-1.3769,-1.3688,-1.3464,-1.3431,-1.3274,-1.3169,-1.3177,-1.3375,-1.3616,-1.3755,-1.3876,-1.3954,-1.4026,-1.4081,-1.4111,-1.4214,-1.428,-1.4292,-1.4358,-1.4467,-1.4594,-1.4763,-1.7212,-1.7212,-1.7212,-1.7212,-1.7212,-1.7212,-1.7212,-1.717,-1.6786,-1.6457,-1.6188,-1.5758,-1.5367,-1.5108,-1.4834,-1.4743,-1.4639,-1.4454,-1.428,-1.4129,-1.401,-1.3892,-1.3702,-1.291,-1.2665,-1.2571,-1.2131,-1.1653,-1.1547,-1.1471,-1.1293,-1.1318,-1.1326,-1.1301,-1.1301,-1.1301,-1.1301,-1.1301,-1.1301,-1.1301,-1.1301,-1.1301,-1.1301,-1.1301,-1.1301,-1.1301,-1.1301,-1.1301,-1.1318,-1.1336,-1.131,-1.1301,-1.1353,-1.1584,-1.1721,-1.1755,-1.1857,-1.2105,-1.2663,-1.2946,-1.3143,-1.3322,-1.3446,-1.3472,-1.348,-1.3511,-1.3489,-1.3498,-1.3865,-1.4275,-1.4676,-1.5178,-1.536,-1.5415,-1.5434,-1.4999,-1.4274,-1.3651,-1.3295,-1.2636,-1.2157,-1.2146,-1.2203,-1.2136,-1.2182,-1.2623,-1.2954,-1.3107,-1.3248,-1.3387,-1.3558,-1.3733,-1.3779,-1.3779,-1.3695,-1.3476,-1.339,-1.3268,-1.3271,-1.3302,-1.3574,-1.3821,-1.399,-1.4105,-1.4171,-1.4195,-1.4201,-1.4232,-1.4286,-1.4298,-1.4298,-1.4455,-1.4648,-1.4787,-1.4926,-1.7413,-1.7212,-1.7212,-1.7212,-1.7212,-1.7212,-1.7212,-1.7136,-1.685,-1.6573,-1.6284,-1.5812,-1.5412,-1.5085,-1.4777,-1.4604,-1.4477,-1.4231,-1.4046,-1.3975,-1.3855,-1.3797,-1.3644,-1.3176,-1.2871,-1.299,-1.2799,-1.2591,-1.2311,-1.2034,-1.1803,-1.1377,-1.1511,-1.1528,-1.1404,-1.131,-1.1301,-1.1301,-1.1301,-1.1301,-1.1301,-1.1301,-1.1301,-1.1301,-1.1301,-1.1301,-1.1318,-1.1301,-1.1404,-1.1473,-1.143,-1.1533,-1.1773,-1.196,-1.2045,-1.2492,-1.25,-1.2663,-1.2937,-1.3151,-1.3339,-1.3442,-1.348,-1.348,-1.348,-1.3528,-1.3639,-1.3845,-1.4204,-1.4572,-1.4941,-1.5403,-1.5566,-1.571,-1.5735,-1.5141,-1.4482,-1.4013,-1.3426,-1.2703,-1.2072,-1.212,-1.2149,-1.2101,-1.2241,-1.2746,-1.3015,-1.3127,-1.3217,-1.3271,-1.3474,-1.3675,-1.3737,-1.3779,-1.3652,-1.3525,-1.3477,-1.3386,-1.3436,-1.3495,-1.3773,-1.4002,-1.4147,-1.4226,-1.4244,-1.4274,-1.4298,-1.4298,-1.4298,-1.4298,-1.4298,-1.4509,-1.4727,-1.4944,-1.5131,-1.7618,-1.7331,-1.724,-1.7212,-1.7212,-1.7212,-1.7212,-1.7178,-1.6934,-1.668,-1.6284,-1.5691,-1.5198,-1.4983,-1.4685,-1.4477,-1.4337,-1.4127,-1.3894,-1.3802,-1.3762,-1.3782,-1.3642,-1.3343,-1.3372,-1.3715,-1.3526,-1.3315,-1.322,-1.311,-1.2707,-1.1627,-1.1904,-1.1878,-1.1688,-1.1619,-1.1653,-1.1679,-1.1662,-1.1593,-1.1473,-1.1447,-1.137,-1.1336,-1.1301,-1.1336,-1.1404,-1.143,-1.161,-1.185,-1.1773,-1.1919,-1.2218,-1.2338,-1.2492,-1.2834,-1.2946,-1.3074,-1.3202,-1.3331,-1.3455,-1.348,-1.348,-1.348,-1.3528,-1.3562,-1.3725,-1.4042,-1.4555,-1.4889,-1.5206,-1.5548,-1.5728,-1.578,-1.577,-1.5177,-1.4553,-1.3992,-1.3359,-1.2573,-1.2074,-1.205,-1.2087,-1.2037,-1.2311,-1.2854,-1.308,-1.3182,-1.3203,-1.3209,-1.3349,-1.3561,-1.3688,-1.3701,-1.3665,-1.3583,-1.3528,-1.3536,-1.354,-1.3688,-1.3972,-1.4123,-1.4238,-1.4286,-1.4298,-1.4298,-1.4298,-1.4298,-1.4304,-1.4328,-1.4383,-1.4582,-1.4793,-1.5046,-1.5318,-1.7767,-1.772,-1.7352,-1.7212,-1.7212,-1.7212,-1.7212,-1.7212,-1.7157,-1.6778,-1.611,-1.5266,-1.4823,-1.4638,-1.4555,-1.4426,-1.4242,-1.4502,-1.4265,-1.4011,-1.3993,-1.4024,-1.3906,-1.38,-1.3766,-1.3925,-1.4116,-1.4092,-1.4016,-1.4389,-1.3616,-1.2605,-1.2654,-1.2444,-1.2254,-1.2169,-1.2132,-1.2132,-1.2141,-1.2029,-1.1849,-1.1746,-1.1635,-1.1404,-1.137,-1.143,-1.172,-1.1772,-1.197,-1.2329,-1.2261,-1.2312,-1.256,-1.274,-1.2954,-1.3065,-1.3271,-1.3365,-1.3425,-1.3442,-1.3455,-1.348,-1.348,-1.3515,-1.3622,-1.3879,-1.405,-1.4221,-1.4786,-1.5112,-1.5334,-1.5531,-1.5771,-1.5805,-1.562,-1.4963,-1.4397,-1.3908,-1.3246,-1.2431,-1.2106,-1.2129,-1.224,-1.2271,-1.2373,-1.286,-1.3101,-1.3201,-1.3199,-1.3222,-1.3222,-1.3392,-1.3561,-1.3659,-1.3685,-1.3636,-1.3629,-1.3671,-1.3723,-1.3928,-1.4171,-1.428,-1.4298,-1.4298,-1.4298,-1.4298,-1.4298,-1.4298,-1.4316,-1.4364,-1.4479,-1.4702,-1.5034,-1.5366,-1.5578,-1.8082,-1.7747,-1.7385,-1.7212,-1.7212,-1.7212,-1.7212,-1.7212,-1.7212,-1.6723,-1.5923,-1.5255,-1.4777,-1.46,-1.4675,-1.4653,-1.4583,-1.487,-1.4694,-1.4613,-1.4604,-1.4604,-1.4486,-1.4497,-1.4654,-1.4852,-1.5097,-1.5159,-1.5082,-1.529,-1.4856,-1.4138,-1.3737,-1.3232,-1.3004,-1.2597,-1.2468,-1.2423,-1.2415,-1.2303,-1.2252,-1.2184,-1.2115,-1.1987,-1.1979,-1.2021,-1.2139,-1.2184,-1.2415,-1.2629,-1.2663,-1.2792,-1.2963,-1.3185,-1.3254,-1.328,-1.3442,-1.3494,-1.348,-1.348,-1.348,-1.348,-1.3498,-1.3574,-1.3802,-1.4033,-1.4393,-1.4701,-1.5026,-1.53,-1.56,-1.5711,-1.5805,-1.5805,-1.5495,-1.4916,-1.4258,-1.3837,-1.3198,-1.2415,-1.2255,-1.2255,-1.2423,-1.2556,-1.2675,-1.2855,-1.3048,-1.3222,-1.3214,-1.313,-1.3137,-1.3179,-1.3349,-1.3476,-1.3502,-1.3603,-1.3699,-1.3787,-1.3881,-1.4055,-1.425,-1.4286,-1.4298,-1.4298,-1.4298,-1.4298,-1.4298,-1.4298,-1.4364,-1.4485,-1.4654,-1.4853,-1.5228,-1.5644,-1.5771,-1.8226,-1.7781,-1.7372,-1.7212,-1.7212,-1.7212,-1.7212,-1.7212,-1.7212,-1.6646,-1.5732,-1.5367,-1.4959,-1.4704,-1.4897,-1.4992,-1.4999,-1.5216,-1.5196,-1.5112,-1.508,-1.5127,-1.508,-1.5152,-1.5275,-1.568,-1.5887,-1.5848,-1.5822,-1.5894,-1.5651,-1.5328,-1.5069,-1.4463,-1.3522,-1.2998,-1.2743,-1.2723,-1.2723,-1.2637,-1.264,-1.2569,-1.2449,-1.2381,-1.2312,-1.2432,-1.2518,-1.2595,-1.2766,-1.298,-1.31,-1.3185,-1.3365,-1.348,-1.348,-1.348,-1.348,-1.348,-1.348,-1.348,-1.348,-1.348,-1.3682,-1.3836,-1.4042,-1.4281,-1.4761,-1.506,-1.5292,-1.5506,-1.5805,-1.5805,-1.5805,-1.5814,-1.6011,-1.5505,-1.4459,-1.3812,-1.3156,-1.2476,-1.2468,-1.2469,-1.2595,-1.2756,-1.2756,-1.2864,-1.3023,-1.3159,-1.3148,-1.3052,-1.2918,-1.3009,-1.3137,-1.3222,-1.3283,-1.3542,-1.3772,-1.3746,-1.3878,-1.4104,-1.4244,-1.428,-1.4298,-1.4298,-1.4298,-1.4298,-1.434,-1.4395,-1.4515,-1.466,-1.489,-1.5155,-1.5421,-1.5783,-1.5819,-1.8226,-1.7767,-1.7352,-1.7212,-1.7212,-1.7212,-1.7212,-1.7212,-1.7157,-1.665,-1.5826,-1.5672,-1.5313,-1.5004,-1.531,-1.5347,-1.5337,-1.569,-1.5683,-1.5392,-1.5552,-1.5401,-1.538,-1.5494,-1.5722,-1.5832,-1.6042,-1.6242,-1.6316,-1.6259,-1.622,-1.6173,-1.5875,-1.5358,-1.4236,-1.37,-1.3459,-1.3459,-1.3399,-1.3202,-1.3031,-1.2954,-1.28,-1.2655,-1.2586,-1.2749,-1.2894,-1.2954,-1.3117,-1.3314,-1.3352,-1.3425,-1.3455,-1.348,-1.348,-1.348,-1.348,-1.348,-1.348,-1.348,-1.354,-1.3626,-1.3887,-1.4153,-1.4298,-1.4675,-1.512,-1.5343,-1.5531,-1.5711,-1.5805,-1.5805,-1.5805,-1.5942,-1.6148,-1.5745,-1.4719,-1.4132,-1.3541,-1.2705,-1.2631,-1.2771,-1.2855,-1.2893,-1.2881,-1.2936,-1.3039,-1.3094,-1.3094,-1.2966,-1.2833,-1.2881,-1.2973,-1.3089,-1.3225,-1.3597,-1.3791,-1.3744,-1.3839,-1.4117,-1.4256,-1.4286,-1.4298,-1.4298,-1.4298,-1.4298,-1.4407,-1.4515,-1.4721,-1.495,-1.5258,-1.5523,-1.5753,-1.5867,-1.5879,-1.8226,-1.7747,-1.7365,-1.7212,-1.7212,-1.7212,-1.7212,-1.7157,-1.696,-1.6771,-1.6606,-1.6363,-1.602,-1.5833,-1.5895,-1.5905,-1.5693,-1.6012,-1.5998,-1.5967,-1.607,-1.6053,-1.5991,-1.5998,-1.6143,-1.6205,-1.6371,-1.6402,-1.6374,-1.6402,-1.6402,-1.6345,-1.6087,-1.5488,-1.4647,-1.3992,-1.3472,-1.3472,-1.3485,-1.3434,-1.3339,-1.3305,-1.3237,-1.3083,-1.3074,-1.3151,-1.328,-1.328,-1.3374,-1.3463,-1.348,-1.348,-1.348,-1.348,-1.348,-1.348,-1.348,-1.348,-1.3596,-1.3699,-1.3896,-1.4033,-1.4247,-1.4572,-1.4846,-1.5018,-1.5309,-1.5523,-1.5685,-1.5805,-1.5805,-1.5805,-1.5865,-1.6175,-1.6153,-1.5562,-1.4843,-1.4656,-1.4186,-1.3063,-1.2629,-1.2866,-1.3014,-1.2875,-1.2839,-1.2839,-1.2881,-1.3009,-1.3009,-1.2875,-1.2747,-1.2747,-1.2814,-1.2924,-1.3156,-1.3548,-1.3811,-1.3865,-1.3966,-1.4214,-1.4292,-1.4298,-1.4298,-1.4298,-1.4298,-1.431,-1.4503,-1.4714,-1.501,-1.5276,-1.5529,-1.5686,-1.5813,-1.5879,-1.5885,-1.8127,-1.7578,-1.7323,-1.7212,-1.7212,-1.7212,-1.7212,-1.7157,-1.6939,-1.6997,-1.7157,-1.6985,-1.6705,-1.6556,-1.6655,-1.6499,-1.6022,-1.6236,-1.6402,-1.6402,-1.6392,-1.6312,-1.635,-1.6402,-1.634,-1.6402,-1.6402,-1.6402,-1.6402,-1.6402,-1.6402,-1.6288,-1.5943,-1.5439,-1.4804,-1.4172,-1.3662,-1.3601,-1.3502,-1.3472,-1.3446,-1.3455,-1.3455,-1.3429,-1.3438,-1.3463,-1.3472,-1.348,-1.348,-1.348,-1.348,-1.348,-1.348,-1.348,-1.348,-1.348,-1.348,-1.3549,-1.3768,-1.4093,-1.4324,-1.453,-1.4752,-1.4966,-1.5215,-1.5343,-1.5523,-1.5703,-1.5797,-1.5805,-1.5805,-1.5814,-1.5985,-1.6287,-1.6365,-1.5756,-1.5062,-1.482,-1.435,-1.3288,-1.2704,-1.2947,-1.3052,-1.2875,-1.2747,-1.2705,-1.2705,-1.2833,-1.2966,-1.2833,-1.2729,-1.2753,-1.2819,-1.3002,-1.3214,-1.351,-1.3747,-1.3882,-1.4081,-1.4286,-1.4298,-1.4298,-1.4298,-1.4304,-1.431,-1.4395,-1.4666,-1.4926,-1.524,-1.5493,-1.571,-1.5831,-1.5879,-1.5885,-1.5891,-1.8008,-1.7261,-1.7212,-1.7212,-1.7212,-1.7212,-1.7212,-1.7178,-1.7065,-1.7187,-1.7465,-1.7619,-1.7363,-1.7065,-1.7303,-1.6992,-1.6427,-1.6381,-1.6402,-1.6402,-1.6402,-1.6402,-1.6402,-1.6402,-1.6402,-1.6402,-1.6402,-1.6402,-1.6402,-1.6402,-1.6402,-1.6316,-1.6029,-1.5498,-1.4931,-1.4478,-1.3962,-1.3662,-1.348,-1.348,-1.348,-1.348,-1.348,-1.348,-1.348,-1.348,-1.348,-1.348,-1.348,-1.348,-1.348,-1.348,-1.348,-1.348,-1.348,-1.348,-1.3489,-1.3776,-1.4024,-1.4384,-1.4761,-1.4966,-1.5172,-1.524,-1.5343,-1.5548,-1.5694,-1.5762,-1.5805,-1.5805,-1.5805,-1.5925,-1.6045,-1.6388,-1.6764,-1.6126,-1.5228,-1.4693,-1.4185,-1.3552,-1.3044,-1.3009,-1.296,-1.2833,-1.2705,-1.2705,-1.2705,-1.279,-1.2881,-1.279,-1.2747,-1.285,-1.294,-1.3109,-1.3344,-1.3634,-1.3827,-1.402,-1.4135,-1.4298,-1.4298,-1.4298,-1.4298,-1.4304,-1.4322,-1.4479,-1.4805,-1.5149,-1.5499,-1.5716,-1.5843,-1.5867,-1.5885,-1.5891,-1.5903,-1.8147,-1.7618,-1.7323,-1.7212,-1.7212,-1.7212,-1.7212,-1.7191,-1.7078,-1.7441,-1.8285,-1.7787,-1.77,-1.7859,-1.7486,-1.6976,-1.6613,-1.6402,-1.6402,-1.6402,-1.6402,-1.6402,-1.6402,-1.6402,-1.6402,-1.6402,-1.6402,-1.6402,-1.6402,-1.6402,-1.6402,-1.6345,-1.6202,-1.5672,-1.5137,-1.4775,-1.4172,-1.3683,-1.3511,-1.348,-1.348,-1.348,-1.348,-1.348,-1.348,-1.348,-1.348,-1.348,-1.348,-1.348,-1.348,-1.348,-1.348,-1.348,-1.348,-1.3545,-1.3733,-1.4007,-1.4187,-1.4701,-1.512,-1.5274,-1.5454,-1.5617,-1.5677,-1.5711,-1.5805,-1.5805,-1.5805,-1.5805,-1.5882,-1.6002,-1.6242,-1.661,-1.6873,-1.6472,-1.5648,-1.5034,-1.4468,-1.3336,-1.2875,-1.2875,-1.2833,-1.279,-1.2705,-1.2705,-1.2747,-1.279,-1.2833,-1.2747,-1.2887,-1.2953,-1.3047,-1.3215,-1.355,-1.3839,-1.3996,-1.4153,-1.4244,-1.4298,-1.4298,-1.4298,-1.4298,-1.437,-1.4479,-1.4708,-1.4998,-1.5336,-1.5656,-1.5765,-1.5879,-1.5885,-1.5885,-1.5891,-1.597,-1.8226,-1.7781,-1.7352,-1.7212,-1.7212,-1.7136,-1.7115,-1.7094,-1.7031,-1.7657,-1.8547,-1.8166,-1.8065,-1.8158,-1.7818,-1.723,-1.641,-1.6402,-1.6402,-1.6402,-1.6402,-1.6402,-1.6402,-1.6402,-1.6402,-1.6402,-1.6402,-1.6402,-1.6402,-1.6402,-1.6402,-1.6402,-1.6402,-1.5778,-1.5157,-1.4804,-1.435,-1.3812,-1.348,-1.348,-1.348,-1.348,-1.348,-1.348,-1.348,-1.348,-1.348,-1.348,-1.348,-1.348,-1.348,-1.348,-1.3532,-1.3631,-1.375,-1.3836,-1.4119,-1.4401,-1.4632,-1.4923,-1.5232,-1.5446,-1.5651,-1.5737,-1.5788,-1.5788,-1.5805,-1.5805,-1.5805,-1.5831,-1.5951,-1.6114,-1.649,-1.6829,-1.684,-1.6835,-1.6176,-1.5516,-1.4384,-1.3124,-1.2705,-1.2705,-1.2705,-1.2705,-1.2705,-1.2705,-1.2705,-1.2747,-1.2747,-1.2747,-1.2979,-1.3225,-1.3306,-1.3384,-1.3731,-1.399,-1.4117,-1.422,-1.4256,-1.4298,-1.4298,-1.4322,-1.4346,-1.4509,-1.4702,-1.495,-1.5197,-1.5475,-1.5747,-1.5837,-1.5885,-1.5885,-1.5885,-1.5885,-1.6012,-1.8266,-1.7808,-1.7385,-1.7212,-1.7191,-1.7065,-1.7023,-1.7002,-1.7002,-1.7587,-1.838,-1.8508,-1.8265,-1.8045,-1.7893,-1.7324,-1.6666,-1.6402,-1.6402,-1.6402,-1.6402,-1.6402,-1.6402,-1.6402,-1.6402,-1.6402,-1.6402,-1.6402,-1.6402,-1.6402,-1.6402,-1.6402,-1.6402,-1.5923,-1.5225,-1.4951,-1.4499,-1.3842,-1.3571,-1.348,-1.348,-1.348,-1.348,-1.348,-1.348,-1.348,-1.348,-1.348,-1.348,-1.348,-1.348,-1.348,-1.3708,-1.3853,-1.4007,-1.4264,-1.4521,-1.4769,-1.5,-1.524,-1.5454,-1.5651,-1.5805,-1.5805,-1.5805,-1.5805,-1.5805,-1.5805,-1.5805,-1.5917,-1.6045,-1.6336,-1.6696,-1.7072,-1.7245,-1.671,-1.5868,-1.5054,-1.3922,-1.2912,-1.2705,-1.2705,-1.2705,-1.2705,-1.2705,-1.2705,-1.2705,-1.2705,-1.2784,-1.2784,-1.3027,-1.3366,-1.354,-1.3646,-1.3894,-1.4123,-1.422,-1.4292,-1.4298,-1.4298,-1.4298,-1.4346,-1.4401,-1.46,-1.4811,-1.5119,-1.539,-1.5632,-1.5795,-1.5849,-1.5885,-1.5885,-1.5891,-1.5916,-1.6127,-1.8669,-1.8121,-1.7475,-1.7212,-1.7191,-1.7065,-1.6989,-1.7002,-1.6939,-1.726,-1.773,-1.7792,-1.7736,-1.7702,-1.7646,-1.7168,-1.6648,-1.6431,-1.6402,-1.6402,-1.6402,-1.6402,-1.6402,-1.6402,-1.6402,-1.6402,-1.6402,-1.6402,-1.6402,-1.6402,-1.6402,-1.6374,-1.6345,-1.5933,-1.5371,-1.5098,-1.4508,-1.3842,-1.3631,-1.3511,-1.348,-1.348,-1.348,-1.348,-1.348,-1.348,-1.348,-1.348,-1.348,-1.348,-1.348,-1.3665,-1.3939,-1.4059,-1.4264,-1.4538,-1.4881,-1.512,-1.5274,-1.5471,-1.5668,-1.5728,-1.5805,-1.5805,-1.5805,-1.5805,-1.5805,-1.5805,-1.5857,-1.6021,-1.6163,-1.6468,-1.6817,-1.7184,-1.7511,-1.6483,-1.5511,-1.442,-1.3336,-1.2997,-1.2741,-1.2705,-1.2705,-1.2705,-1.2705,-1.2705,-1.2705,-1.2772,-1.2905,-1.3003,-1.3127,-1.3446,-1.3726,-1.3882,-1.4099,-1.4201,-1.4274,-1.4298,-1.4298,-1.4298,-1.4298,-1.4389,-1.4485,-1.469,-1.492,-1.524,-1.5511,-1.5698,-1.5831,-1.5873,-1.5885,-1.5885,-1.597,-1.6006,-1.6278,-1.8822,-1.8299,-1.7475,-1.7115,-1.7107,-1.7002,-1.6918,-1.6876,-1.691,-1.6956,-1.7175,-1.7581,-1.7799,-1.7643,-1.761,-1.7257,-1.6768,-1.6477,-1.6431,-1.6402,-1.6402,-1.6402,-1.6402,-1.6402,-1.6402,-1.6402,-1.6402,-1.6402,-1.6402,-1.6402,-1.6402,-1.6355,-1.6241,-1.5856,-1.5381,-1.4872,-1.4389,-1.3881,-1.3631,-1.3511,-1.348,-1.348,-1.348,-1.348,-1.348,-1.348,-1.348,-1.348,-1.348,-1.3566,-1.3682,-1.4007,-1.4307,-1.4555,-1.4718,-1.4949,-1.5223,-1.548,-1.554,-1.5651,-1.5805,-1.5805,-1.5805,-1.5805,-1.5805,-1.5805,-1.5805,-1.5805,-1.5805,-1.5917,-1.5866,-1.6051,-1.6368,-1.6723,-1.6725,-1.6152,-1.4963,-1.3753,-1.3124,-1.2826,-1.2705,-1.2705,-1.2705,-1.2705,-1.2705,-1.2705,-1.2705,-1.2729,-1.2911,-1.3204,-1.3365,-1.3538,-1.3797,-1.402,-1.4195,-1.4262,-1.4286,-1.4298,-1.4298,-1.4298,-1.4316,-1.4443,-1.4582,-1.4823,-1.5083,-1.5384,-1.5632,-1.5789,-1.5849,-1.5879,-1.5885,-1.5885,-1.5982,-1.6103,-1.6368,-1.8898,-1.8378,-1.7475,-1.7031,-1.6989,-1.6939,-1.6825,-1.674,-1.6791,-1.6727,-1.6744,-1.7819,-1.8189,-1.8046,-1.7987,-1.7619,-1.7174,-1.6609,-1.6431,-1.6402,-1.6402,-1.6402,-1.6402,-1.6402,-1.6402,-1.6402,-1.6402,-1.6402,-1.6402,-1.6374,-1.6345,-1.6269,-1.5885,-1.5439,-1.4931,-1.4458,-1.4061,-1.3812,-1.3601,-1.3511,-1.348,-1.348,-1.348,-1.348,-1.348,-1.3528,-1.3562,-1.3557,-1.3566,-1.3793,-1.4033,-1.4358,-1.4658,-1.4932,-1.5129,-1.5326,-1.5523,-1.5694,-1.5762,-1.5762,-1.5805,-1.5805,-1.5805,-1.5805,-1.5805,-1.5805,-1.5805,-1.584,-1.584,-1.5802,-1.5704,-1.5775,-1.6091,-1.6039,-1.5924,-1.5718,-1.442,-1.3245,-1.2954,-1.2705,-1.2705,-1.2705,-1.2705,-1.2705,-1.2705,-1.2705,-1.2741,-1.2753,-1.2874,-1.3298,-1.3568,-1.3725,-1.3906,-1.4111,-1.428,-1.4298,-1.4298,-1.4298,-1.4298,-1.4298,-1.434,-1.4491,-1.4708,-1.5004,-1.5276,-1.5517,-1.5692,-1.5849,-1.5885,-1.5885,-1.5885,-1.5897,-1.5994,-1.6139,-1.641,-1.9045,-1.8299,-1.7767,-1.7365,-1.7023,-1.6918,-1.6825,-1.6675,-1.6607,-1.6543,-1.6785,-1.7568,-1.7968,-1.7458,-1.7461,-1.7352,-1.7313,-1.6694,-1.6431,-1.6402,-1.6402,-1.6402,-1.6402,-1.6402,-1.6402,-1.6402,-1.6402,-1.6402,-1.6345,-1.6345,-1.6202,-1.5943,-1.5817,-1.54,-1.4922,-1.4478,-1.413,-1.3911,-1.364,-1.3519,-1.3515,-1.3515,-1.348,-1.348,-1.348,-1.3716,-1.3879,-1.3973,-1.4179,-1.4384,-1.453,-1.4778,-1.5018,-1.5232,-1.5386,-1.5548,-1.5754,-1.578,-1.5805,-1.5805,-1.5805,-1.5805,-1.5805,-1.5805,-1.5805,-1.5805,-1.5848,-1.5934,-1.5893,-1.5811,-1.5772,-1.5871,-1.6047,-1.5394,-1.5081,-1.4671,-1.3873,-1.3203,-1.2784,-1.2705,-1.2705,-1.2705,-1.2705,-1.2705,-1.2705,-1.2759,-1.2916,-1.294,-1.2969,-1.3399,-1.3803,-1.3906,-1.4014,-1.4153,-1.4298,-1.4298,-1.4298,-1.4298,-1.4316,-1.434,-1.4419,-1.4564,-1.4805,-1.5137,-1.5366,-1.559,-1.5753,-1.5885,-1.5885,-1.5885,-1.5885,-1.5916,-1.6,-1.6199,-1.6495]},{"header":{"parameterUnit":"m.s-1","parameterCategory":1,"la1":31.0,"la2":29.5877,"lo1":-88.7671,"lo2":-86.6584,"dy":0.0162,"dx":0.0185,"nx":115,"ny":88,"refTime":"2026-03-23T00:00:00:Z","depth":0,"parameterNumber":3,"parameterNumberName":"V-component_of_WINDS"},"data":[0.0,0.0,0.0,0.0,0.0,0.0,0.0,0.0,0.0,0.0,0.0,0.0,0.0,0.0,0.0,0.0,0.0,0.0,0.0,0.0,0.0,0.0,0.0,0.0,0.0,0.0,0.0,0.0,0.0,0.0,0.0,0.0,0.0,0.0,0.0,0.0,0.0,0.0,0.0,0.0,0.0,0.0,0.0,0.0,0.0,0.0,0.0,0.0,0.0,0.0,0.0,0.0,0.0,0.0,0.0,0.0,0.0,0.0,0.0,0.0,0.0,0.0,0.0,0.0,0.0,0.0,0.0,0.0,0.0,0.0,0.0,0.0,0.0,0.0,0.0,0.0,0.0,0.0,0.0,0.0,0.0,0.0,0.0,0.0,0.0,0.0,0.0,0.0,0.0,0.0,0.0,0.0,0.0,0.0,0.0,0.0,0.0,0.0,0.0,0.0,0.0,0.0,0.0,0.0,0.0,0.0,0.0,0.0,0.0,0.0,0.0,0.0,0.0,0.0,0.0,0.0,0.0,0.0,0.0,0.0,0.0,0.0,0.0,0.0,0.0,0.0,0.0,0.0,0.0,0.0,0.0,0.0,0.0,0.0,0.0,0.0,0.0,0.0,0.0,0.0,0.0,0.0,0.0,0.0,0.0,0.0,0.0,0.0,0.0,0.0,0.0,0.0,0.0,0.0,0.0,0.0,0.0,0.0,0.0,0.0,0.0,0.0,0.0,0.0,0.0,0.0,0.0,0.0,0.0,0.0,0.0,0.0,0.0,0.0,0.0,0.0,0.0,0.0,0.0,0.0,0.0,0.0,0.0,0.0,0.0,0.0,0.0,0.0,0.0,0.0,0.0,0.0,0.0,0.0,0.0,0.0,0.0,0.0,0.0,0.0,0.0,0.0,0.0,0.0,0.0,0.0,0.0,0.0,0.0,0.0,0.0,0.0,0.0,0.0,0.0,0.0,0.0,0.0,0.0,0.0,0.0,0.0,0.0,0.0,0.0,0.0,0.0,0.0,0.0,0.0,0.0,0.0,0.0,0.0,0.0,0.0,0.0,0.0,0.0,0.0,0.0,0.0,0.0,0.0,0.0,0.0,0.0,0.0,0.0,0.0,0.0,0.0,0.0,0.0,0.0,0.0,0.0,0.0,0.0,0.0,0.0,0.0,0.0,0.0,0.0,0.0,0.0,0.0,0.0,0.0,0.0,0.0,0.0,0.0,0.0,0.0,0.0,0.0,0.0,0.0,0.0,0.0,0.0,0.0,0.0,0.0,0.0,0.0,0.0,0.0,0.0,0.0,0.0,0.0,0.0,0.0,0.0,0.0,0.0,0.0,0.0,0.0,0.0,0.0,0.0,0.0,0.0,0.0,0.0,0.0,0.0,0.0,0.0,0.0,0.0,0.0,0.0,0.0,0.0,0.0,0.0,0.0,0.0,0.0,0.0,0.0,0.0,0.0,0.0,0.0,0.0,0.0,0.0,0.0,0.0,0.0,0.0,0.0,0.0,0.0,0.0,0.0,0.0,0.0,0.0,0.0,0.0,0.0,0.0,0.0,0.0,0.0,0.0,0.0,0.0,0.0,0.0,0.0,0.0,0.0,0.0,0.0,0.0,0.0,0.0,0.0,0.0,0.0,0.0,0.0,0.0,0.0,0.0,0.0,0.0,0.0,0.0,0.0,0.0,0.0,0.0,0.0,0.0,0.0,0.0,0.0,0.0,0.0,0.0,0.0,0.0,0.0,0.0,0.0,0.0,0.0,0.0,0.0,0.0,0.0,0.0,0.0,0.0,0.0,0.0,0.0,0.0,0.0,0.0,0.0,0.0,0.0,0.0,0.0,0.0,0.0,0.0,0.0,0.0,0.0,0.0,0.0,0.0,0.0,0.0,0.0,0.0,0.0,0.0,0.0,0.0,0.0,0.0,0.0,0.0,0.0,0.0,0.0,0.0,0.0,0.0,0.0,0.0,0.0,0.0,0.0,0.0,0.0,0.0,0.0,0.0,0.0,0.0,0.0,0.0,0.0,0.0,0.0,0.0,0.0,0.0,0.0,0.0,0.0,0.0,0.0,0.0,0.0,0.0,0.0,0.0,0.0,0.0,0.0,0.0,0.0,0.0,0.0,0.0,0.0,0.0,0.0,0.0,0.0,0.0,0.0,0.0,0.0,0.0,0.0,0.0,0.0,0.0,0.0,0.0,0.0,0.0,0.0,0.0,0.0,0.0,0.0,0.0,0.0,0.0,0.0,0.0,0.0,0.0,0.0,0.0,0.0,0.0,0.0,0.0,0.0,0.0,0.0,0.0,0.0,0.0,0.0,0.0,0.0,0.0,0.0,0.0,0.0,0.0,0.0,0.0,0.0,0.0,0.0,0.0,0.0,0.0,0.0,0.0,0.0,0.0,0.0,0.0,0.0,0.0,0.0,0.0,0.0,0.0,0.0,0.0,0.0,0.0,0.0,0.0,0.0,0.0,0.0,0.0,0.0,0.0,0.0,0.0,0.0,0.0,0.0,0.0,0.0,0.0,0.0,0.0,0.0,0.0,0.0,0.0,0.0,0.0,0.0,0.0,0.0,0.0,0.0,0.0,0.0,0.0,0.0,0.0,0.0,0.0,0.0,0.0,0.0,0.0,0.0,0.0,0.0,0.0,0.0,0.0,0.0,0.0,0.0,0.0,0.0,0.0,0.0,0.0,0.0,0.0,0.0,0.0,0.0,0.0,0.0,0.0,0.0,0.0,0.0,0.0,0.0,0.0,0.0,0.0,0.0,0.0,0.0,0.0,0.0,0.0,0.0,0.0,0.0,0.0,0.0,0.0,0.0,0.0,0.0,0.0,0.0,0.0,0.0,0.0,0.0,0.0,0.0,0.0,0.0,0.0,0.0,0.0,0.0,0.0,0.0,0.0,0.0,0.0,0.0,0.0,0.0,0.0,0.0,0.0,0.0,0.0,0.0,0.0,0.0,0.0,0.0,0.0,0.0,0.0,0.0,0.0,0.0,0.0,0.0,0.0,0.0,0.0,0.0,0.0,0.0,0.0,0.0,0.0,0.0,0.0,0.0,0.0,0.0,0.0,0.0,0.0,0.0,0.0,0.0,0.0,0.0,0.0,0.0,0.0,0.0,0.0,0.0,0.0,0.0,0.0,0.0,0.0,0.0,0.0,0.0,0.0,0.0,0.0,0.0,0.0,0.0,0.0,0.0,0.0,0.0,0.0,0.0,0.0,0.0,0.0,0.0,0.0,0.0,0.0,0.0,0.0,0.0,0.0,0.0,0.0,0.0,0.0,0.0,0.0,0.0,0.0,0.0,0.0,0.0,0.0,0.0,0.0,0.0,0.0,0.0,0.0,0.0,0.0,0.0,0.0,0.0,0.0,0.0,0.0,0.0,0.0,0.0,0.0,0.0,0.0,0.0,0.0,0.0,0.0,0.0,0.0,0.0,0.0,0.0,0.0,0.0,0.0,0.0,0.0,0.0,0.0,0.0,0.0,0.0,0.0,0.0,0.0,0.0,0.0,0.0,0.0,0.0,0.0,0.0,0.0,0.0,0.0,0.0,0.0,0.0,0.0,0.0,0.0,0.0,0.0,0.0,0.0,0.0,0.0,0.0,0.0,0.0,0.0,0.0,0.0,0.0,0.0,0.0,0.0,0.0,0.0,0.0,0.0,0.0,0.0,0.0,0.0,0.0,0.0,0.0,0.0,0.0,0.0,0.0,0.0,0.0,0.0,0.0,0.0,0.0,0.0,0.0,0.0,0.0,0.0,0.0,0.0,0.0,0.0,0.0,0.0,0.0,0.0,0.0,0.0,0.0,0.0,0.0,0.0,0.0,0.0,0.0,0.0,0.0,0.0,0.0,0.0,0.0,0.0,0.0,0.0,0.0,0.0,0.0,0.0,0.0,0.0,0.0,0.0,0.0,0.0,0.0,0.0,0.0,0.0,0.0,0.0,0.0,0.0,0.0,0.0,0.0,0.0,0.0,0.0,0.0,0.0,0.0,0.0,0.0,0.0,0.0,0.0,0.0,0.0,0.0,0.0,0.0,0.0,0.0,0.0,0.0,0.0,0.0,0.0,0.0,0.0,0.0,0.0,0.0,0.0,0.0,0.0,0.0,0.0,0.0,0.0,0.0,0.0,0.0,0.0,0.0,0.0,0.0,0.0,0.0,0.0,0.0,0.0,0.0,0.0,0.0,0.0,0.0,0.0,0.0,0.0,0.0,0.0,0.0,0.0,0.0,0.0,0.0,0.0,0.0,0.0,0.0,0.0,0.0,0.0,0.0,0.9189,0.0,0.0,0.0,0.0,0.0,0.0,0.0,0.0,0.0,0.0,0.0,0.0,0.0,0.0,0.0,0.0,0.0,0.0,0.0,0.0,0.0,0.0,0.0,0.0,0.0,0.0,0.0,0.0,0.0,0.0,0.0,0.0,0.0,0.0,0.0,0.0,0.0,0.0,0.0,0.0,0.0,0.0,0.0,0.0,0.0,0.0,0.0,0.0,0.0,0.0,0.0,0.0,0.0,0.0,0.0,0.0,0.0,0.0,0.0,0.0,0.0,0.0,0.0,0.0,0.0,0.0,0.0,0.0,0.0,0.0,0.0,0.0,0.0,0.0,0.0,0.0,0.0,0.0,0.0,0.0,0.0,0.0,0.0,0.0,0.0,0.0,0.0,0.0,0.0,0.0,0.0,0.0,0.0,0.0,0.0,0.0,0.0,0.0,0.0,0.0,0.0,0.0,0.0,0.0,0.0,0.0,0.0,0.0,0.0,0.0,0.8707,0.9138,0.9184,0.9191,0.9191,0.0,0.0,0.0,0.0,0.0,0.0,0.0,0.0,0.0,0.0,0.0,0.0,0.0,0.0,0.0,0.0,0.0,0.0,0.0,0.0,0.0,0.0,0.0,0.0,0.0,0.0,0.0,0.0,0.0,0.0,0.0,0.0,0.0,0.0,0.0,0.0,0.0,0.0,0.0,0.0,0.0,0.0,0.0,0.0,0.0,0.0,0.0,0.0,0.0,0.0,0.0,0.0,0.0,0.0,0.0,0.0,0.0,0.0,0.0,0.0,0.0,0.0,0.0,0.0,0.0,0.0,0.0,0.0,0.0,0.0,0.0,0.0,0.0,0.0,0.0,0.0,0.0,0.0,0.0,0.0,0.0,0.0,0.0,0.0,0.0,0.0,0.0,0.0,0.0,0.0,0.0,0.0,0.0,0.0,0.0,0.0,0.0,0.0,0.0,0.0,0.0,0.0,0.0,0.0,0.0,0.0,0.0,0.0,0.0,0.0,0.0,0.0,0.9177,0.9179,0.9214,0.0,0.0,0.0,0.0,0.0,0.0,0.0,0.0,0.0,0.0,0.0,0.0,0.0,0.0,0.0,0.0,0.0,0.0,0.0,0.0,0.0,0.0,0.0,0.0,0.0,0.0,0.0,0.0,0.0,0.0,0.0,0.0,0.0,0.0,0.0,0.0,0.0,0.0,0.0,0.0,0.0,0.0,0.0,0.0,0.0,0.0,0.0,0.0,0.0,0.0,0.0,0.0,0.0,0.0,0.0,0.0,0.0,0.0,0.0,0.0,0.0,0.0,0.0,0.0,0.0,0.0,0.0,0.0,0.0,0.0,0.0,0.0,0.0,0.0,0.0,0.0,0.0,0.0,0.0,0.0,0.0,0.0,0.0,0.0,0.0,0.0,0.0,0.0,0.0,0.0,0.0,0.0,0.0,0.0,0.0,0.0,0.0,0.0,0.0,0.0,0.0,0.0,0.0,0.0,0.0,0.0,0.0,0.0,0.0,0.0,0.8401,0.9166,0.9188,0.0,0.9251,0.0,0.0,0.0,0.0,0.0,0.0,0.0,0.0,0.0,0.0,0.0,0.0,0.0,0.0,0.0,0.0,0.0,0.0,0.0,0.0,0.0,0.0,0.0,0.0,0.0,0.0,0.0,0.0,0.0,0.0,0.0,0.0,0.0,0.0,0.0,0.0,0.0,0.0,0.0,0.0,0.0,0.0,0.0,0.0,0.0,0.0,0.0,0.0,0.0,0.0,0.0,0.0,0.0,0.0,0.0,0.0,0.0,0.0,0.0,0.0,0.0,0.0,0.0,0.0,0.0,0.0,0.0,0.0,0.0,0.0,0.0,0.0,0.0,0.0,0.0,0.0,0.0,0.0,0.0,0.0,0.0,0.0,0.0,0.0,0.0,0.0,0.0,0.0,0.0,0.0,0.0,0.0,0.0,0.0,0.0,0.0,0.0,0.0,0.0,0.0,0.0,0.0,0.0,0.0,0.0,0.0,0.0,0.0,0.0,0.0,0.0,0.8516,0.9009,0.9274,0.0,0.0,0.0,0.0,0.0,0.0,0.0,0.0,0.0,0.0,0.0,0.0,0.0,0.0,0.0,0.0,0.0,0.0,0.0,0.0,0.0,0.0,0.0,0.0,0.0,0.0,0.0,0.0,0.0,0.0,0.0,0.0,0.0,0.0,0.0,0.0,0.0,0.0,0.0,0.0,0.0,0.0,0.0,0.0,0.0,0.0,0.0,0.0,0.0,0.0,0.0,0.0,0.0,0.0,0.0,0.0,0.0,0.0,0.0,0.0,0.0,0.0,0.0,0.0,0.0,0.0,0.0,0.0,0.0,0.0,0.0,0.0,0.0,0.0,0.0,0.0,0.0,0.0,0.0,0.0,0.0,0.0,0.0,0.0,0.0,0.0,0.0,0.0,0.0,0.0,0.0,0.0,0.0,0.0,0.0,0.0,0.0,0.0,0.0,0.0,0.0,0.0,0.0,0.0,0.0,0.0,0.0,0.0,0.0,0.0,0.6628,0.0,0.8413,0.8779,0.9094,0.9321,0.0,0.0,0.0,0.0,0.0,0.0,0.0,0.0,0.0,0.0,0.0,0.0,0.0,0.0,0.0,0.0,0.0,0.0,0.0,0.0,0.0,0.0,0.0,0.0,0.0,0.0,0.0,0.0,0.0,0.0,0.0,0.0,0.0,0.0,0.0,0.0,0.0,0.0,0.0,0.0,0.0,0.0,0.0,0.0,0.0,0.0,0.0,0.0,0.0,0.0,0.0,0.0,0.0,0.0,0.0,0.0,0.0,0.0,0.0,0.0,0.0,0.0,0.0,0.0,0.0,0.0,0.0,0.0,0.0,0.0,0.0,0.0,0.0,0.0,0.0,0.0,0.0,0.0,0.0,0.0,0.0,0.0,0.0,0.0,0.0,0.0,0.0,0.0,0.0,0.0,0.0,0.0,0.0,0.0,0.0,0.0,0.0,0.0,0.0,0.0,0.0,0.0,0.0,0.0,0.0,0.0,0.0,0.0,0.0,0.696,0.7739,0.9229,0.8554,0.8537,0.0,0.0,0.0,0.0,0.0,0.0,0.0,0.0,0.0,0.0,0.0,0.0,0.0,0.0,0.0,0.0,0.0,0.0,0.0,0.0,0.0,0.0,0.0,0.0,0.0,0.0,0.0,0.0,0.0,0.0,0.0,0.0,0.0,0.0,0.0,0.0,0.0,0.0,0.0,0.0,0.0,0.0,0.0,0.0,0.0,0.0,0.0,0.0,0.0,0.0,0.0,0.0,0.0,0.0,0.0,0.0,0.0,0.0,0.0,0.0,0.0,0.0,0.0,0.0,0.0,0.0,0.0,0.0,0.0,0.0,0.0,0.0,0.0,0.0,0.0,0.0,0.0,0.0,0.0,0.0,0.0,0.0,0.0,0.0,0.0,0.0,0.0,0.0,0.0,0.0,0.0,0.0,0.0,0.0,0.0,0.0,0.0,0.0,0.0,0.0,0.0,0.0,0.0,0.0,0.0,0.0,0.0,0.0,0.0,0.5442,0.601,0.7072,0.8663,0.8416,0.8628,0.0,0.0,0.0,0.0,0.0,0.0,0.0,0.0,0.0,0.0,0.0,0.0,0.0,0.0,0.0,0.0,0.0,0.0,0.0,0.0,0.0,0.0,0.0,0.0,0.0,0.0,0.0,0.0,0.0,0.0,0.0,0.0,0.0,0.0,0.0,0.0,0.0,0.0,0.0,0.0,0.0,0.0,0.0,0.0,0.0,0.0,0.0,0.0,0.0,0.0,0.0,0.0,0.0,0.0,0.0,0.0,0.0,0.0,0.0,0.0,0.0,0.0,0.0,0.0,0.0,0.0,0.0,0.0,0.0,0.0,0.0,0.0,0.0,0.0,0.0,0.0,0.0,0.0,0.0,0.0,0.0,0.0,0.0,0.0,0.0,0.0,0.0,0.0,0.0,0.0,0.0,0.0,0.0,0.0,0.0,0.0,0.0,0.0,0.0,0.0,0.0,0.0,0.0,0.0,0.0,0.0,0.0,0.0,0.0,0.5392,0.0,0.7296,0.0,0.8345,0.8591,0.0,0.0,0.0,0.0,0.0,0.0,0.0,0.0,0.0,0.0,0.0,0.0,0.0,0.0,0.0,0.0,0.0,0.0,0.0,0.0,0.0,0.0,0.0,0.0,0.0,0.0,0.0,0.0,0.0,0.0,0.0,0.0,0.0,0.0,0.0,0.0,0.0,0.0,0.0,0.0,0.0,0.0,0.0,0.0,0.0,0.0,0.0,0.0,0.0,0.0,0.0,0.0,0.0,0.0,0.0,0.0,0.0,0.0,0.0,0.0,0.0,0.0,0.0,0.0,0.0,0.0,0.0,0.0,0.0,0.0,0.0,0.0,0.0,0.0,0.0,0.0,0.0,0.0,0.0,0.0,0.0,0.0,0.0,0.0,0.0,0.0,0.0,0.0,0.0,0.0,0.0,0.0,0.0,0.0,0.0,0.0,0.0,0.0,0.0,0.0,0.0,0.0,0.0,0.0,0.0,0.0,0.0,0.0,0.5389,0.7014,0.7947,0.8415,0.8506,0.8395,0.8391,0.0,0.0,0.0,0.0,0.0,0.0,0.0,0.0,0.0,0.0,0.0,0.0,0.0,0.0,0.0,0.0,0.0,0.0,0.0,0.0,0.0,0.0,0.0,0.0,0.0,0.0,0.0,0.0,0.0,0.0,0.0,0.0,0.0,0.0,0.0,0.0,0.0,0.0,0.0,0.0,0.0,0.0,0.0,0.0,0.0,0.0,0.0,0.0,0.0,0.0,0.0,0.0,0.0,0.0,0.0,0.0,0.0,0.0,0.0,0.0,0.0,0.0,0.0,0.0,0.0,0.0,0.0,0.0,0.0,0.0,0.0,0.0,0.0,0.0,0.0,0.0,0.0,0.0,0.0,0.0,0.0,0.0,0.0,0.0,0.0,0.0,0.0,0.0,0.0,0.0,0.0,0.0,0.0,0.0,0.0,0.0,0.0,0.0,0.0,0.0,0.0,0.0,0.0,0.0,0.0,0.0,0.0,0.0,0.0,0.7178,0.7506,0.8227,0.9313,0.8774,0.8991,0.0,0.0,0.0,0.0,0.0,0.0,0.0,0.0,0.0,0.0,0.0,0.0,0.0,0.0,0.0,0.0,0.0,0.0,0.0,0.0,0.0,0.0,0.0,0.0,0.0,0.0,0.0,0.0,0.0,0.0,0.0,0.0,0.0,0.0,0.0,0.0,0.0,0.0,0.0,0.0,0.0,0.0,0.0,0.0,0.0,0.0,0.0,0.0,0.0,0.0,0.0,0.0,0.0,0.0,0.0,0.0,0.0,0.0,0.0,0.0,0.0,0.0,0.0,0.0,0.0,0.0,0.0,0.0,0.0,0.0,0.0,0.0,0.0,0.0,0.0,0.0,0.0,0.0,0.0,0.0,0.0,0.0,0.0,0.0,0.0,0.0,0.0,0.0,0.0,0.0,0.0,0.0,0.0,0.0,0.0,0.0,0.0,0.0,0.0,0.0,0.0,0.0,0.0,0.0,0.0,0.0,0.0,0.0,0.0,0.8547,0.8356,0.873,0.9782,0.9261,0.9321,1.0032,0.0,0.0,0.0,0.0,0.0,0.0,0.0,0.0,0.0,0.0,0.0,0.0,0.0,0.0,0.0,0.0,0.0,0.0,0.0,0.0,0.0,0.0,0.0,0.0,0.0,0.0,0.0,0.0,0.0,0.0,0.0,0.0,0.0,0.0,0.0,0.0,0.0,0.0,0.0,0.0,0.0,0.0,0.0,0.0,0.0,0.0,0.0,0.0,0.0,0.0,0.0,0.0,0.0,0.0,0.0,0.0,0.0,0.0,0.0,0.0,0.0,0.0,0.0,0.0,0.0,0.0,0.0,0.0,0.0,0.0,0.0,0.0,0.0,0.0,0.0,0.0,0.0,0.0,0.0,0.0,0.0,0.0,0.0,0.0,0.0,0.0,0.0,0.0,0.0,0.0,0.0,0.0,0.0,0.0,0.0,0.0,0.0,0.0,0.0,0.0,0.0,0.0,0.0,0.0,0.0,0.0,0.0,0.0,1.0784,1.0175,0.9894,0.9971,0.9894,0.9476,0.0,0.0,0.0,0.0,0.0,0.0,0.0,0.0,0.0,0.0,0.0,0.0,0.0,0.0,0.0,0.0,0.0,0.0,0.0,0.0,0.0,0.0,0.0,0.0,0.0,0.0,0.0,0.0,0.0,0.0,0.0,0.0,0.0,0.0,0.0,0.0,0.0,0.0,0.0,0.0,0.0,0.0,0.0,0.0,0.0,0.0,0.0,0.0,0.0,0.0,0.0,0.0,0.0,0.0,0.0,0.0,0.0,0.0,0.0,0.0,0.0,0.0,0.0,0.0,0.0,0.0,0.0,0.0,0.0,0.0,0.0,0.0,0.0,0.0,0.0,0.0,0.0,0.0,0.0,0.0,0.0,0.0,0.0,0.0,0.0,0.0,0.0,0.0,0.0,0.0,0.0,0.0,0.0,0.0,0.0,0.0,0.0,0.0,0.0,0.0,0.0,0.0,0.0,0.0,0.0,0.0,0.0,0.0,0.0,1.0799,1.0674,1.0908,1.1525,1.1002,1.0576,0.0,0.0,0.0,0.0,0.0,0.0,0.0,0.0,0.0,0.0,0.0,0.0,0.0,0.0,0.0,0.0,0.0,0.0,0.0,0.0,0.0,0.0,0.0,0.0,0.0,0.0,0.0,0.0,0.0,0.0,0.0,0.0,0.0,0.0,0.0,0.0,0.0,0.0,0.0,0.0,0.0,0.0,0.0,0.0,0.0,0.0,0.0,0.0,0.0,0.0,0.0,0.0,0.0,0.0,0.0,0.0,0.0,0.0,0.0,0.0,0.0,0.0,0.0,0.0,0.0,0.0,0.0,0.0,0.0,0.0,0.0,0.0,0.0,0.0,0.0,0.0,0.0,0.0,0.0,0.0,0.0,0.0,0.0,0.0,0.0,0.0,0.0,0.0,0.0,0.0,0.0,0.0,0.0,0.0,0.0,0.0,0.0,0.0,0.0,0.0,0.0,0.0,0.0,0.0,0.0,0.0,0.0,0.0,1.0739,1.0803,1.1222,1.1528,1.1702,1.1204,1.0975,0.0,0.0,0.0,0.0,0.0,0.0,0.0,0.0,0.0,0.0,0.0,0.0,0.0,0.0,0.0,0.0,0.0,0.0,0.0,0.0,0.0,0.0,0.0,0.0,0.0,0.0,0.0,0.0,0.0,0.0,0.0,0.0,0.0,0.0,0.0,0.0,0.0,0.0,0.0,0.0,0.0,0.0,0.0,0.0,0.0,0.0,0.0,0.0,0.0,0.0,0.0,0.0,0.0,0.0,0.0,0.0,0.0,0.0,0.0,0.0,0.0,0.0,0.0,0.0,0.0,0.0,0.0,0.0,0.0,0.0,0.0,0.0,0.0,0.0,0.0,0.0,0.0,0.0,0.0,0.0,0.0,0.0,0.0,0.0,0.0,0.0,0.0,0.0,0.0,0.0,0.0,0.0,0.0,0.0,0.0,0.0,0.0,0.0,0.0,0.0,0.0,0.0,0.0,0.0,0.0,0.0,0.0,0.0,1.0735,1.0816,1.1636,1.1717,1.1031,1.0937,1.0945,0.0,0.0,0.0,0.0,0.0,0.0,0.0,0.0,0.0,0.0,0.0,0.0,0.0,0.0,0.0,0.0,0.0,0.0,0.0,0.0,0.0,0.0,0.0,0.0,0.0,0.0,0.0,0.0,0.0,0.0,0.0,0.0,0.0,0.0,0.0,0.0,0.0,0.0,0.0,0.0,0.0,0.0,0.0,0.0,0.0,0.0,0.0,0.0,0.0,0.0,0.0,0.0,0.0,0.0,0.0,0.0,0.0,0.0,0.0,0.0,0.0,0.0,0.0,0.0,0.0,0.0,0.0,0.0,0.0,0.0,0.0,0.0,0.0,0.0,0.0,0.0,0.0,0.0,0.0,0.0,0.0,0.0,0.0,0.0,0.0,0.0,0.0,0.0,0.0,0.0,0.0,0.0,0.0,0.0,0.0,0.0,0.0,0.0,0.0,0.0,0.0,0.0,0.0,0.0,0.0,0.0,0.0,0.0,1.0771,1.0799,1.1034,1.1136,1.0998,1.0986,1.0979,0.0,0.0,0.0,0.0,0.0,0.0,0.0,0.0,0.0,0.0,0.0,0.0,0.0,0.0,0.0,0.0,0.0,0.0,0.0,0.0,0.0,0.0,0.0,0.0,0.0,0.0,0.0,0.0,0.0,0.0,0.0,0.0,0.0,0.0,0.0,0.0,0.0,0.0,0.0,0.0,0.0,0.0,0.0,0.0,0.0,0.0,0.0,0.0,1.5662,0.0,0.0,0.0,0.0,0.0,0.0,0.0,0.0,0.0,0.0,0.0,0.0,0.0,0.0,0.0,0.0,0.0,0.0,0.0,0.0,0.0,0.0,0.0,0.0,0.0,0.0,0.0,0.0,0.0,0.0,0.0,0.0,0.0,0.0,0.0,0.0,0.0,0.0,0.0,0.0,0.0,0.0,0.0,0.0,0.0,0.0,0.0,0.0,0.0,0.0,0.0,0.0,0.0,0.0,0.0,0.0,0.0,0.0,0.0,1.028,1.0327,1.0381,1.039,1.0435,1.0806,1.1162,0.0,0.0,0.0,0.0,0.0,0.0,0.0,0.0,0.0,0.0,0.0,0.0,0.0,0.0,0.0,0.0,0.0,0.0,0.0,0.0,0.0,0.0,0.0,0.0,0.0,0.0,0.0,0.0,0.0,0.0,0.0,0.0,0.0,0.0,0.0,0.0,0.0,0.0,0.0,0.0,0.0,0.0,0.0,0.0,0.0,0.0,0.0,0.0,0.0,0.0,0.0,0.0,0.0,0.0,0.0,0.0,0.0,0.0,0.0,0.0,0.0,0.0,0.0,0.0,0.0,0.0,0.0,0.0,0.0,0.0,0.0,0.0,0.0,0.0,0.0,0.0,0.0,0.0,0.0,0.0,0.0,0.0,0.0,0.0,0.0,0.0,0.0,0.0,0.0,0.0,0.0,0.0,0.0,0.0,0.0,0.0,0.0,0.0,0.0,0.0,0.0,0.0,0.0,0.0,0.0,0.0,0.0,0.9652,0.9754,0.9976,0.9872,0.9802,0.9801,1.0692,1.1508,1.2154,0.0,0.0,0.0,0.0,0.0,0.0,0.0,0.0,0.0,0.0,0.0,0.0,0.0,0.0,0.0,0.0,0.0,0.0,0.0,0.0,0.0,0.0,0.0,0.0,0.0,0.0,0.0,0.0,0.0,0.0,0.0,0.0,0.0,0.0,0.0,0.0,0.0,0.0,1.2404,1.3365,0.0,0.0,0.0,0.0,0.0,0.0,0.0,0.0,1.6127,0.0,0.0,0.0,0.0,0.0,0.0,0.0,0.0,0.0,0.0,0.0,0.0,0.0,0.0,0.0,0.0,0.0,0.0,0.0,0.0,0.0,0.0,0.0,0.0,0.0,0.0,0.0,0.0,0.0,0.0,0.0,0.0,0.0,0.0,0.0,0.0,0.0,0.0,0.0,0.0,0.0,0.0,0.0,0.0,0.0,0.0,0.0,0.0,0.0,0.0,0.0,0.0,0.0,0.0,0.0,0.0,1.0663,1.0079,1.0124,1.0781,1.015,0.9801,0.9841,1.123,1.2065,1.2154,0.0,0.0,0.0,0.0,0.0,0.0,0.0,0.0,0.0,0.0,0.0,0.0,0.0,0.0,0.0,0.0,0.0,0.0,0.0,0.0,0.0,0.0,0.0,0.0,0.0,0.0,0.0,0.0,0.0,0.0,0.0,0.0,0.0,0.0,0.0,0.0,0.0,0.0,0.0,1.5147,1.5815,0.0,0.0,0.0,0.0,0.0,0.0,0.0,0.0,1.6369,0.0,0.0,0.0,0.0,0.0,0.0,0.0,0.0,0.0,0.0,0.0,0.0,0.0,0.0,0.0,0.0,0.0,0.0,0.0,0.0,0.0,0.0,0.0,0.0,0.0,0.0,0.0,0.0,0.0,0.0,0.0,0.0,0.0,0.0,0.0,0.0,0.0,0.0,0.0,0.0,0.0,0.0,0.0,0.0,0.0,0.0,0.0,0.0,0.0,0.0,0.0,0.0,0.0,0.0,0.0,1.0186,0.9935,0.9986,1.0358,1.0005,0.9801,0.9819,1.0948,1.1768,0.0,0.0,0.0,0.0,0.0,0.0,0.0,0.0,0.0,0.0,0.0,0.0,0.0,0.0,0.0,0.0,0.0,0.0,0.0,0.0,0.0,0.0,0.0,0.0,0.0,0.0,0.0,0.0,0.0,0.0,0.0,0.0,0.0,0.0,0.0,0.0,0.0,0.0,0.0,0.0,1.5393,1.5895,1.5969,0.0,0.0,0.0,0.0,0.0,0.0,1.7294,1.678,0.0,0.0,0.0,0.0,0.0,0.0,0.0,0.0,0.0,0.0,0.0,0.0,0.0,0.0,0.0,0.0,0.0,0.0,0.0,0.0,0.0,0.0,0.0,0.0,0.0,0.0,0.0,0.0,0.0,0.0,0.0,0.0,0.0,0.0,0.0,0.0,0.0,0.0,0.0,0.0,0.0,0.0,0.0,0.0,0.0,0.0,0.0,0.0,0.0,0.0,0.0,0.0,0.0,0.0,0.0,0.9587,0.9703,0.9794,0.9801,0.9801,0.9801,0.9819,1.0751,1.1453,0.0,0.0,0.0,0.0,0.0,0.0,0.0,0.0,0.0,0.0,0.0,0.0,0.0,0.0,0.0,0.0,0.0,0.0,0.0,0.0,0.0,0.0,0.0,0.0,0.0,0.0,0.0,0.0,0.0,0.0,0.0,0.0,0.0,0.0,0.0,0.0,0.0,0.0,0.0,0.0,0.0,1.639,1.7634,1.7151,0.0,0.0,0.0,0.0,1.8667,1.8414,0.0,0.0,0.0,0.0,0.0,0.0,0.0,0.0,0.0,0.0,0.0,0.0,0.0,0.0,0.0,0.0,0.0,0.0,0.0,0.0,0.0,0.0,0.0,0.0,0.0,0.0,0.0,0.0,0.0,0.0,0.0,0.0,0.0,0.0,0.0,0.0,0.0,0.0,0.0,0.0,0.0,0.0,0.0,0.0,0.0,0.0,0.0,0.0,0.0,0.0,0.0,0.0,0.0,0.0,0.0,0.0,0.9513,0.9642,0.9739,0.9801,0.9801,0.9801,0.9819,1.1267,1.1764,0.0,0.0,0.0,0.0,0.0,0.0,0.0,0.0,0.0,0.0,0.0,0.0,0.0,0.0,0.0,0.0,0.0,0.0,0.0,0.0,0.0,0.0,0.0,0.0,0.0,0.0,0.0,0.0,0.0,0.0,0.0,0.0,0.0,0.0,0.0,0.0,0.0,0.0,0.0,0.0,0.0,1.9137,1.6539,1.79,1.8952,0.0,0.0,0.0,2.0388,2.1031,0.0,0.0,0.0,0.0,0.0,0.0,0.0,0.0,0.0,0.0,0.0,0.0,0.0,0.0,0.0,0.0,0.0,0.0,0.0,0.0,0.0,0.0,0.0,0.0,0.0,0.0,0.0,0.0,0.0,0.0,0.0,0.0,0.0,0.0,0.0,0.0,0.0,0.0,0.0,0.0,0.0,0.0,0.0,0.0,0.0,0.0,0.0,0.0,0.0,0.0,0.0,0.0,0.0,0.0,0.0,0.9504,0.9599,0.971,0.9761,0.9801,0.9801,0.9801,0.9801,1.0473,1.0877,0.0,0.0,0.0,0.0,0.0,0.0,0.0,0.0,0.0,0.0,0.0,0.0,0.0,0.0,0.0,0.0,0.0,0.0,0.0,0.0,0.0,0.0,0.0,0.0,0.0,0.0,0.0,0.0,0.0,0.0,0.0,0.0,0.0,0.0,0.0,0.0,0.0,0.0,0.0,0.0,0.0,0.0,1.868,1.9219,0.0,0.0,0.0,2.1606,2.1495,0.0,0.0,0.0,0.0,0.0,0.0,0.0,0.0,0.0,0.0,0.0,0.0,0.0,0.0,0.0,0.0,0.0,0.0,0.0,0.0,0.0,0.0,0.0,0.0,0.0,0.0,0.0,0.0,0.0,0.0,0.0,0.0,0.0,0.0,0.0,0.0,0.0,0.0,0.0,0.0,0.0,0.0,0.0,0.0,0.0,0.0,0.0,0.0,0.0,0.0,0.0,0.0,0.0,0.0,0.0,0.0,0.0,0.9629,0.9721,0.9772,0.9801,0.9801,0.9801,0.9801,0.9986,0.0,0.0,0.0,0.0,0.0,0.0,0.0,0.0,0.0,0.0,0.0,0.0,0.0,0.0,0.0,0.0,0.0,0.0,0.0,0.0,0.0,0.0,0.0,0.0,0.0,0.0,0.0,0.6406,0.0,0.0,0.0,0.0,0.0,0.0,0.0,0.0,0.0,0.0,0.0,0.0,0.0,0.0,1.8488,2.0511,2.0437,2.079,0.0,0.0,2.3322,2.2728,2.2988,2.219,0.0,0.0,0.0,0.0,0.0,0.0,0.0,0.0,0.0,0.0,0.0,0.0,0.0,0.0,0.0,0.0,0.0,0.0,0.0,0.0,0.0,0.0,0.0,0.0,0.0,0.0,0.0,0.0,0.0,0.0,0.0,0.0,0.0,0.0,0.0,0.0,0.0,0.0,0.0,0.0,0.0,0.0,0.0,0.0,0.0,0.0,0.0,0.0,0.0,0.0,0.0,0.0,0.0,0.0,0.0,0.942,0.9605,0.9739,0.9801,0.9801,0.9801,0.9823,1.0547,1.0599,0.0,0.0,0.0,0.0,0.0,0.0,0.0,0.0,0.0,0.0,0.0,0.0,0.0,0.0,0.0,0.0,0.0,0.0,0.0,0.0,0.0,0.0,0.0,0.0,0.0,0.0,0.0,0.0,0.0,0.0,0.0,0.0,0.0,0.0,0.0,0.0,0.0,0.0,0.0,0.0,0.0,1.9757,2.0678,2.1402,2.2431,0.0,0.0,2.4407,2.4351,2.5569,2.4965,2.0277,0.0,0.0,0.0,0.0,0.0,0.0,0.0,0.0,0.0,0.0,0.0,0.0,0.0,0.0,0.0,0.0,0.0,0.0,0.0,0.0,0.0,0.0,0.0,0.0,0.0,0.0,0.0,0.0,0.0,0.0,0.0,0.0,0.0,0.0,0.0,0.0,0.0,0.0,0.0,0.0,0.0,0.0,0.0,0.0,0.0,0.0,0.0,0.0,0.0,0.0,0.0,0.0,0.0,0.9421,0.954,0.9662,0.9765,0.9801,0.9801,0.9801,0.9801,1.0584,1.0844,0.0,0.0,0.0,0.0,0.0,0.0,0.0,0.0,0.0,0.0,0.0,0.0,0.0,0.0,0.0,0.0,0.0,0.0,0.0,0.0,0.0,0.0,0.0,0.0,0.0,0.0,0.0,0.0,0.761,0.7518,0.804,0.0,0.0,0.0,0.0,0.0,0.0,0.0,0.0,0.0,0.0,2.0251,2.2015,2.2553,0.0,0.0,2.5243,2.541,2.5912,2.5207,2.3824,2.1458,2.0511,0.0,0.0,0.0,0.0,0.0,0.0,0.0,0.0,0.0,0.0,0.0,0.0,0.0,0.0,0.0,0.0,0.0,0.0,0.0,0.0,0.0,0.0,0.0,0.0,0.0,0.0,0.0,0.0,0.0,0.0,0.0,0.0,0.0,0.0,0.0,0.0,0.0,0.0,0.0,0.0,0.0,0.0,0.0,0.0,0.0,0.0,0.0,0.0,0.0,0.0,0.0,0.0,0.946,0.9617,0.9706,0.9772,0.9772,0.9794,0.9794,0.9812,1.058,1.0892,0.0,0.0,0.0,0.0,0.0,0.0,0.0,0.0,0.0,0.0,0.0,0.0,0.0,0.0,0.0,0.0,0.0,0.0,0.0,0.0,0.0,0.0,0.0,0.0,0.0,0.0,0.0,0.0,0.8186,0.7926,0.8545,0.0,0.0,0.0,0.0,0.0,0.0,0.0,0.0,0.0,0.0,2.0574,2.3211,2.3582,2.4259,2.6145,2.6219,2.6265,2.6814,2.543,2.3871,2.2571,0.0,0.0,0.0,0.0,0.0,0.0,0.0,0.0,0.0,0.0,0.0,0.0,0.0,0.0,0.0,0.0,0.0,0.0,0.0,0.0,0.0,0.0,0.0,0.0,0.0,0.0,0.0,0.0,0.0,0.0,0.0,0.0,0.0,0.0,0.0,0.0,0.0,0.0,0.0,0.0,0.0,0.0,0.0,0.0,0.0,0.0,0.0,0.0,0.0,0.0,0.0,0.0,0.0,0.0,0.9609,0.9684,0.9702,0.9706,0.9772,0.9791,0.9809,1.0573,1.0636,0.9894,0.0,0.0,0.0,0.0,0.0,0.0,0.0,0.0,0.0,0.0,0.0,0.0,0.0,0.0,0.0,0.0,0.0,0.0,0.0,0.0,0.0,0.0,0.0,0.0,0.0,0.0,0.9782,0.9058,0.8619,0.0,0.0,0.0,0.0,0.0,0.0,0.0,0.0,0.0,0.0,1.9602,2.0804,2.4008,2.4472,2.529,2.765,2.7352,2.6869,2.6907,2.6814,2.6015,0.0,0.0,0.0,0.0,0.0,0.0,0.0,0.0,0.0,0.0,0.0,0.0,0.0,0.0,0.0,0.0,0.0,0.0,0.0,0.0,0.0,0.0,0.0,0.0,0.0,0.0,0.0,0.6646,0.6888,0.0,0.0,0.0,0.0,0.0,0.0,0.0,0.0,0.0,0.0,0.0,0.9495,1.0031,0.0,0.0,0.0,0.0,0.0,0.0,0.0,0.0,0.0,0.0,0.0,0.0,0.9849,0.9439,1.0032,1.0125,0.9654,0.9743,0.9794,0.9794,1.058,1.0877,1.0599,0.0,0.0,0.0,0.0,0.0,0.0,0.0,0.0,0.0,0.0,0.0,0.0,0.0,0.0,0.0,0.0,0.0,0.0,0.0,0.0,0.0,0.0,0.0,0.0,0.0,1.1174,0.0,0.0,0.0,0.0,0.0,0.0,0.0,0.0,0.0,0.0,0.0,1.8209,2.0147,2.1328,2.2802,2.4993,2.5263,2.5727,0.0,0.0,0.0,0.0,0.0,0.0,0.0,0.0,0.0,0.0,0.0,0.0,0.0,0.0,2.6407,2.3206,2.2249,2.1966,2.197,0.0,0.0,0.0,0.0,0.0,0.0,0.0,0.0,0.0,0.0,0.0,0.0,0.0,0.0,0.0,0.0,0.7411,0.0,0.0,0.0,0.0,0.0,0.0,0.0,0.0,0.9536,0.995,1.0624,1.0908,1.0891,0.0,1.1151,1.0637,0.0,0.0,0.0,0.0,0.0,0.0,0.0,0.0,1.0193,0.9817,1.0119,1.0096,0.9658,0.9758,0.9794,0.9812,1.0298,1.0706,1.0989,1.0989,1.0618,0.0,0.0,0.0,0.0,0.0,0.0,0.0,0.0,0.0,0.0,0.0,0.0,0.0,0.0,0.0,0.0,0.0,0.0,0.0,0.0,0.0,0.0,0.0,1.1987,0.0,0.0,0.0,0.0,0.0,0.0,0.0,0.0,0.0,1.7213,1.8197,1.936,2.1001,2.2375,2.3898,2.5847,0.0,0.0,0.0,0.0,0.0,0.0,0.0,2.6061,2.708,2.6655,2.5978,2.542,2.6665,2.7624,2.7175,0.0,0.0,2.5774,2.4837,2.4567,2.4586,2.5029,2.551,2.5779,2.6736,2.7596,0.0,0.0,0.0,0.0,0.0,0.0,0.0,0.0,0.7108,0.7936,0.0,0.8494,0.0,0.0,0.0,0.0,0.0,0.0,0.0,0.0,1.173,1.2085,1.1512,1.2213,1.2168,1.1551,1.2884,1.2842,1.1425,0.9956,0.0,0.0,0.0,0.0,0.0,0.0,1.0559,1.0681,1.0091,0.9743,0.9773,0.9813,0.9824,0.9791,0.9849,1.0209,1.0896,1.097,1.0632,0.9875,0.9808,0.0,0.0,0.0,0.0,0.0,0.0,0.0,0.0,0.0,0.0,0.0,0.0,0.0,0.0,0.0,0.0,0.0,0.0,0.0,0.0,1.175,0.0,0.0,0.0,0.0,0.0,0.0,0.0,0.0,0.0,0.0,1.9441,1.9713,2.0307,2.1922,0.0,0.0,0.0,0.0,2.7472,2.8958,2.854,2.8297,2.9012,2.8466,2.7938,2.7957,0.0,0.0,2.7361,2.8412,2.8979,2.7399,2.9222,3.0706,3.0156,2.8893,2.8058,2.8049,2.8068,2.8338,2.9088,3.0314,3.166,1.1364,0.0,0.0,0.0,0.0,1.075,1.075,1.1,1.0486,1.0452,1.0825,1.065,0.0,0.0,0.0,0.0,0.0,0.0,1.1574,1.1816,1.1747,1.1875,1.2186,1.2425,1.2425,1.2203,1.265,1.2917,1.2959,1.1484,1.0996,1.1471,0.0,0.0,0.0,0.0,1.1727,1.1246,1.1594,1.1541,1.0987,1.0639,1.0239,0.9809,1.0354,1.0495,1.0176,1.0692,1.0896,1.0655,1.0101,0.0,0.0,0.0,0.0,0.0,0.0,0.0,0.0,0.0,0.0,0.0,0.0,0.0,0.0,0.0,0.0,0.0,0.0,0.0,1.2645,1.2437,1.2678,0.0,0.0,0.0,0.0,0.0,0.0,0.0,0.0,0.0,2.1087,2.1829,2.2768,0.0,0.0,2.6151,2.717,2.7495,2.7711,2.7974,0.0,0.0,0.0,2.8141,2.8189,2.8735,2.9565,3.0379,3.1132,3.118,3.0957,3.0437,3.1109,3.1674,3.1563,3.1415,3.1275,3.1424,3.1468,3.1525,3.1795,3.2256,3.2622,1.3508,1.2797,1.2321,1.2294,1.2529,1.219,1.2117,1.224,1.1767,1.1881,1.239,1.2076,1.2104,1.2349,1.2029,0.0,0.0,0.0,1.2507,1.2931,1.249,1.2517,1.2922,1.2931,1.2931,1.2931,1.2964,1.3203,1.3636,1.2761,1.2332,1.2331,0.0,0.0,1.2321,1.247,1.2349,1.1938,1.2146,1.2045,1.1583,1.125,1.0788,1.0159,1.0587,1.0484,0.9717,1.0516,1.0801,1.0459,1.065,1.0443,0.0,0.0,0.0,0.0,0.0,0.0,0.0,0.0,0.0,0.0,0.0,0.6717,0.0,0.0,0.0,0.0,1.0844,1.2534,1.3852,1.4075,0.0,0.0,0.0,0.0,0.0,0.0,0.0,1.9286,2.0166,2.1168,2.2792,2.3589,2.4395,2.5449,2.5937,2.6657,2.7985,0.0,2.7834,2.8093,2.8672,2.9052,2.8887,2.8868,2.9137,2.9994,3.0533,3.1189,3.2166,3.2034,3.1656,3.1455,3.1938,3.2385,3.2159,3.2844,3.3312,3.2886,3.2852,3.2987,3.3333,3.343,3.3506,1.5338,1.5481,1.4178,1.3321,1.2796,1.291,1.2588,1.1955,1.1897,1.2645,1.3908,1.3139,1.3194,1.3833,1.3102,0.0,0.0,1.3787,1.3795,1.3787,1.3787,1.3787,1.3795,1.3726,1.3691,1.3683,1.3688,1.3653,1.3605,1.3661,1.3705,1.3682,1.3018,1.3018,1.3622,1.3018,1.2762,1.2864,1.2213,1.1824,1.1783,1.1765,1.1412,1.0641,1.0604,1.0268,0.9587,1.0325,1.0474,0.9899,1.1261,1.1451,1.0094,0.0,0.0,0.0,0.0,0.0,0.0,0.0,0.0,0.0,0.0,0.0,0.0,0.0,0.0,0.0,1.2125,0.0,1.4627,1.6038,0.0,0.0,0.0,1.6873,1.6266,1.7504,1.876,1.9676,0.0,0.0,0.0,0.0,2.5356,2.5745,2.5558,2.6263,2.8677,2.8189,2.7974,2.881,2.9037,2.9313,2.9763,2.9909,3.0178,3.1029,3.1397,3.1396,3.1616,3.1675,3.1395,3.0973,3.199,3.2873,3.2345,3.3684,3.4443,3.307,3.302,3.341,3.4109,3.4295,3.4545,1.5928,1.6172,1.5252,1.5001,1.5167,1.5201,1.5114,1.4958,1.494,1.5141,1.5471,1.5271,1.5271,1.5427,1.521,1.5184,1.5356,1.5347,1.5347,1.5347,1.5356,1.5356,1.5322,1.4788,1.4511,1.4485,1.3914,1.3613,1.3605,1.3613,1.3924,1.4476,1.4338,1.4355,1.4511,1.4346,1.4275,1.4301,1.4135,1.3527,1.2503,1.2457,1.1902,1.0789,1.0706,1.0358,0.9686,0.9806,1.0418,1.1425,1.1317,1.1637,1.2534,1.0818,0.0,0.0,0.0,0.0,0.0,0.0,0.0,0.0,0.0,0.9667,0.8675,0.0,1.0696,0.0,1.2775,1.3834,1.4632,1.5059,0.0,0.0,1.7356,1.7547,1.8581,1.9045,1.9836,2.1208,2.285,2.4252,2.5162,2.5402,2.5964,2.7151,2.7116,2.7101,2.7457,2.8203,2.8566,2.8453,2.8761,2.9072,2.928,2.9299,2.9616,3.044,3.0599,3.083,3.1552,3.1679,3.1844,3.2268,3.2692,3.3155,3.3566,3.4244,3.4517,3.4232,3.4541,3.4923,3.5135,3.5173,3.5442,1.6528,1.6772,1.6336,1.6373,1.6655,1.6204,1.5992,1.6,1.5992,1.5991,1.5999,1.5964,1.5955,1.5963,1.5917,1.5889,1.5889,1.5889,1.5889,1.5889,1.5889,1.5889,1.5881,1.5486,1.5279,1.5271,1.4831,1.4624,1.4607,1.4313,1.4381,1.4796,1.4442,1.4442,1.4813,1.5124,1.5288,1.5279,1.496,1.4257,1.3185,1.3137,1.2673,1.1698,1.1603,1.1261,1.0583,1.0566,1.0982,1.1859,1.1946,1.2215,1.2695,1.1852,1.1359,0.0,0.0,0.0,0.0,0.0,0.0,0.0,0.0,0.0,0.0,0.0,1.1871,0.0,1.3439,0.0,1.5621,1.6368,1.7206,1.8203,1.8581,1.897,1.9553,2.02,2.1093,2.2327,2.3309,2.4171,2.4903,2.5224,2.5727,2.6704,2.7189,2.755,2.7845,2.8446,2.8743,2.8545,2.8791,2.9152,2.9445,2.9519,2.9824,3.0588,3.0808,3.1028,3.1542,3.1971,3.2295,3.2423,3.3015,3.354,3.3689,3.4521,3.5055,3.4903,3.5368,3.5707,3.545,3.5661,3.6071,1.7003,1.7179,1.7179,1.7353,1.75,1.6607,1.6249,1.6233,1.6268,1.6285,1.6285,1.6237,1.6191,1.6191,1.6174,1.6191,1.6191,1.6191,1.6209,1.6191,1.6209,1.6191,1.6184,1.6088,1.6036,1.6036,1.5933,1.5889,1.5881,1.5262,1.4986,1.5046,1.4399,1.4451,1.5228,1.5779,1.5985,1.5908,1.5194,1.4517,1.3883,1.3941,1.3674,1.305,1.2899,1.251,1.1818,1.186,1.1907,1.189,1.2857,1.3034,1.2187,1.2853,1.2913,0.0,1.2078,0.0,0.0,0.0,0.0,0.0,0.0,0.0,0.0,1.3174,1.3094,1.3569,1.4353,1.5472,1.7039,1.8414,1.9088,1.8734,1.991,2.0548,2.0028,2.1178,2.2348,2.3112,2.3229,2.361,2.4626,2.4986,2.528,2.6101,2.6881,2.7755,2.8734,2.8773,2.8731,2.8875,2.894,2.9225,2.9757,2.9953,3.0191,3.0883,3.0962,3.1219,3.1286,3.1918,3.2371,3.2129,3.3035,3.3758,3.3213,3.4505,3.5326,3.4864,3.5524,3.5967,3.5493,3.5736,3.6337,1.6789,1.703,1.7043,1.7191,1.7422,1.7462,1.7497,1.7561,1.7721,1.7773,1.7773,1.7769,1.7769,1.7752,1.7769,1.7759,1.7769,1.7769,1.7752,1.7769,1.7769,1.7759,1.7725,1.7104,1.6794,1.676,1.6191,1.5889,1.5899,1.5744,1.5994,1.6553,1.6433,1.6789,0.0,0.0,0.0,0.0,1.5254,1.481,1.4689,1.5296,1.5327,1.4662,1.401,0.0,1.261,1.2587,1.263,1.2704,1.3543,0.0,0.0,0.0,0.0,0.0,0.0,0.0,0.0,0.0,0.0,0.0,1.4117,1.3921,1.4314,1.5747,1.628,1.5386,1.6363,1.7339,1.7991,1.8318,1.9003,2.0188,2.0574,2.0919,2.1469,2.2391,2.3016,2.3111,2.3729,2.4654,2.5847,2.5762,2.6174,2.7805,2.7783,2.7864,2.8849,2.8947,2.8749,2.8412,2.8713,2.903,2.9207,2.9262,2.9354,2.9445,2.9457,2.9786,3.0452,3.0733,3.1449,3.2297,3.2944,3.3413,3.3832,3.4301,3.4596,3.4358,3.507,3.5625,3.5473,3.5566,3.5869,1.7048,0.0,1.6895,1.7013,0.0,1.7401,1.7589,1.7738,1.8065,1.82,1.82,1.82,1.82,1.82,1.82,1.82,1.82,1.82,1.82,1.82,1.82,1.82,1.8183,1.7793,1.7597,1.758,1.7218,1.7028,1.7011,1.6612,1.6639,1.7001,1.6639,1.6686,1.7126,1.6726,1.6145,1.5401,1.5071,1.4731,1.4398,1.4778,1.4851,1.4526,0.0,0.0,0.0,0.0,0.0,0.0,0.0,0.0,0.0,0.0,0.0,1.352,1.3172,1.3179,1.355,1.3678,1.4259,1.546,1.5914,1.5847,1.5184,1.672,1.7298,1.6417,1.7989,1.9024,1.879,1.9422,2.0299,2.1268,2.1716,2.2126,2.2568,2.3283,2.373,2.3777,2.4404,2.5214,2.5948,2.6489,2.7048,2.8191,2.8326,2.8324,2.87,2.881,2.8688,2.857,2.8779,2.8975,2.8987,2.8987,2.9005,2.9023,2.934,2.9773,3.0212,3.0984,3.185,3.2717,3.3185,3.3648,3.4056,3.4507,3.4766,3.4556,3.5077,3.5492,3.5299,3.5439,3.584,1.7583,1.7138,1.7125,1.7165,1.7234,1.7461,1.7691,1.7952,0.0,0.0,0.0,1.82,1.82,1.82,1.82,1.82,1.82,1.82,1.82,1.82,1.82,1.82,1.82,1.82,1.82,1.82,1.82,1.82,1.8166,1.7545,1.7208,1.7156,1.6615,1.63,1.6199,1.6209,1.5827,1.5072,1.5071,1.4739,1.4038,1.4181,1.4289,1.4269,1.4144,1.4073,1.4098,1.4652,1.4346,1.3099,1.4898,1.5065,1.3182,1.4291,1.474,1.4058,1.4253,1.4396,1.4399,1.4515,1.4896,1.559,1.7114,1.7495,1.6249,1.7222,1.7764,1.7432,1.9366,2.0345,1.9737,2.0785,2.1733,2.2152,2.28,2.3201,2.3404,2.3905,2.4303,2.4533,2.5029,2.5588,2.5994,2.6993,2.789,2.8062,2.8526,2.887,2.8651,2.8614,2.8706,2.8893,2.8964,2.8987,2.9005,2.9189,2.9189,2.9299,2.9963,3.0514,3.0894,3.1857,3.2724,3.3013,3.3642,3.3994,3.4136,3.4643,3.5082,3.4645,3.5023,3.5435,3.5153,3.541,3.5857,1.8503,1.8439,1.8423,1.8439,1.8452,1.8724,1.9134,1.9567,1.863,1.82,1.82,1.82,1.82,1.82,1.82,1.82,1.82,1.82,1.82,0.0,1.82,1.82,1.82,1.82,1.82,1.82,1.82,1.82,1.8183,1.808,1.8028,1.8021,1.7987,1.7622,1.7081,1.7038,1.6646,1.5844,1.588,1.5549,1.4783,1.5426,1.5766,1.568,1.5061,1.4764,1.4772,1.4861,1.4487,1.3666,1.4586,1.4705,1.3778,1.4481,1.4619,1.4051,1.521,1.5731,1.5113,1.5717,1.6106,1.6188,1.7595,1.8217,1.7615,1.8199,1.8983,1.9701,2.0327,2.0871,2.1426,2.174,2.2211,2.2844,2.3047,2.3379,2.4044,2.4201,2.457,2.5251,2.5389,2.6086,2.7158,2.7651,2.8117,2.8615,2.876,2.8669,2.8639,2.8589,2.8718,2.8929,2.8987,2.8987,2.9133,2.961,2.9934,3.0044,3.0699,3.1446,3.2003,3.2456,3.2954,3.3613,3.3862,3.4018,3.4086,3.4235,3.4407,3.43,3.4486,3.4733,3.524,3.5546,3.5785,1.9072,1.8709,1.8709,1.8709,1.8738,1.9167,1.9554,1.9823,1.9537,1.9165,1.8821,1.8786,1.8579,1.82,1.82,1.82,1.82,1.82,1.82,1.82,1.82,1.82,1.82,1.82,1.82,1.82,1.82,1.82,1.82,1.82,1.82,1.82,1.8274,1.8135,1.7808,1.779,1.7435,1.668,1.6262,1.5862,1.5523,1.5862,1.5845,1.5401,1.5054,1.4679,1.4271,1.5063,1.4975,1.3806,1.5714,1.6081,1.4584,1.5531,1.5845,1.5221,1.5807,1.6052,1.5765,1.6438,1.7047,1.7551,1.8734,1.9326,1.8968,1.9354,1.9847,2.0387,2.1252,2.2018,2.2461,2.2831,2.3254,2.3748,2.3749,2.4054,2.4754,2.4929,2.5232,2.5984,2.6489,2.703,2.7706,2.8172,2.8558,2.8957,2.8881,2.8822,2.8803,2.8822,2.8846,2.8952,2.9005,2.9207,2.9555,2.9934,3.0356,3.0742,3.1513,3.2137,3.2601,3.2894,3.3393,3.3789,3.3959,3.4023,3.4086,3.4148,3.4204,3.4253,3.4624,3.5064,3.5454,3.6142,3.6895,1.9657,1.9167,1.9167,1.9167,1.9212,1.9768,2.0061,2.02,2.0662,2.0462,1.9855,1.9648,1.9223,1.8717,1.87,1.8614,1.8459,1.8441,1.8355,1.82,1.82,1.82,1.82,1.82,1.82,1.82,1.82,1.82,1.82,1.82,1.8204,1.8236,1.8305,1.8329,1.8349,1.8329,1.8044,1.7455,1.6835,1.6366,1.6001,1.5983,1.5705,1.521,1.515,1.4845,1.4324,1.5393,1.5497,1.4527,1.6549,1.7002,1.545,1.6491,1.6901,1.6291,1.6448,1.6622,1.6702,1.7146,1.7887,1.8873,1.9667,2.0127,2.0217,2.056,2.0817,2.1016,2.2017,2.2839,2.3189,2.3683,2.4162,2.4331,2.445,2.4735,2.536,2.5636,2.604,2.6788,2.742,2.7816,2.8117,2.8601,2.895,2.8968,2.8952,2.8917,2.8982,2.9062,2.9191,2.925,2.9262,2.95,3.0136,3.0613,3.1017,3.1604,3.2339,3.2797,3.3031,3.3466,3.3787,3.3908,3.3967,3.4036,3.4099,3.4161,3.4309,3.4525,3.5045,3.5553,3.6142,3.7201,3.8035,2.0423,2.0588,2.0541,2.0605,2.059,2.1019,2.1308,2.1593,2.2015,2.1896,2.1278,2.0618,2.0262,2.0205,2.0136,1.9792,1.9234,1.9189,1.8838,1.8269,1.82,1.82,1.82,1.82,1.82,1.82,1.82,1.82,1.82,1.82,1.8218,1.8287,1.8348,1.8406,1.8455,1.8406,1.8358,1.8298,1.8153,1.741,1.6097,1.6,1.5957,1.5895,1.5904,1.587,1.5705,1.5993,1.6028,1.5915,1.6185,1.6255,1.6133,1.6796,1.6892,1.6273,1.7354,1.8101,1.8101,1.8171,1.8611,1.9562,1.9834,2.0267,2.0998,2.1808,2.2222,2.2149,2.2298,2.2903,2.3699,2.4115,2.4339,2.4384,2.4946,2.5397,2.5578,2.6054,2.6796,2.7614,2.7805,2.8062,2.8675,2.8932,2.8987,2.8994,2.8858,2.8846,2.9123,2.9448,2.9813,3.0021,3.0099,3.0173,3.0485,3.1482,3.2124,3.2491,3.3146,3.3526,3.3653,3.3734,3.3908,3.3972,3.4036,3.4086,3.4111,3.4198,3.4531,3.5083,3.5547,3.6012,3.7294,3.8302,3.8659,2.0562,2.081,2.081,2.081,2.086,2.1182,2.1433,2.1601,2.1928,2.199,2.1841,2.1659,2.116,2.0412,2.0377,2.0222,1.9941,1.951,1.9154,1.8821,1.8424,1.82,1.82,1.82,1.82,1.82,1.82,1.82,1.8211,1.8242,1.8267,1.8301,1.8318,1.8358,1.8368,1.8358,1.8348,1.8338,1.83,1.8014,1.7501,1.7385,1.7157,1.6749,1.6714,1.6498,1.6149,1.6481,1.677,1.6841,1.7225,1.7479,1.7517,1.7815,1.7813,1.7514,1.7969,1.8492,1.8926,1.8901,1.9284,2.0208,2.087,2.138,2.1671,2.2467,2.2939,2.2888,2.312,2.3539,2.4029,2.4595,2.4946,2.5065,2.568,2.6303,2.6806,2.7119,2.7603,2.8374,2.851,2.8583,2.8913,2.8987,2.8987,2.8994,2.8912,2.9058,2.9587,2.9911,3.0277,3.0827,3.1292,3.1604,3.1641,3.2069,3.2748,3.3206,3.3568,3.3797,3.3881,3.3895,3.3934,3.4055,3.4142,3.4179,3.4179,3.4686,3.5157,3.5677,3.6538,3.7281,3.8395,3.8859,3.8878,2.0444,2.0695,2.0761,2.081,2.0843,2.1087,2.1262,2.1386,2.1645,2.1823,2.1969,2.2175,2.1766,2.0989,2.0978,2.0946,2.067,2.0165,1.9803,1.9579,1.9045,1.8717,1.851,1.8493,1.839,1.8228,1.82,1.82,1.8211,1.8277,1.8308,1.8319,1.8328,1.8358,1.8358,1.8341,1.8358,1.8358,1.8368,1.8378,1.8398,1.8378,1.8086,1.759,1.7528,1.7276,1.6797,1.7268,1.7576,1.763,1.8163,1.8453,1.8483,1.8465,1.8523,1.8652,1.8614,1.8918,1.9663,1.9653,2.0027,2.0928,2.1779,2.2213,2.2412,2.2958,2.3328,2.338,2.3869,2.4275,2.4489,2.5035,2.5496,2.5792,2.6468,2.7181,2.7677,2.7952,2.8356,2.8895,2.8913,2.8987,2.8987,2.8987,2.8987,2.8987,2.9207,2.9482,3.0143,3.0546,3.1115,3.1659,3.2412,3.2742,3.2674,3.2839,3.3188,3.3513,3.3807,3.3815,3.3881,3.3908,3.3947,3.408,3.4266,3.4556,3.4798,3.5274,3.5993,3.6383,3.7206,3.8265,3.8878,3.9082,3.9101,2.0168,2.046,2.0696,2.081,2.0826,2.0893,2.1071,2.1293,2.1402,2.1555,2.1797,2.1884,2.1991,2.2033,2.2274,2.2169,2.1595,2.1423,2.1004,2.0389,2.0257,1.9895,1.9269,1.9252,1.889,1.8338,1.8304,1.8252,1.8228,1.8274,1.8318,1.8318,1.8426,1.8502,1.8475,1.8475,1.8485,1.8475,1.8475,1.8485,1.8495,1.8485,1.8438,1.8301,1.8326,1.8256,1.8248,1.8368,1.8415,1.8442,1.8467,1.8483,1.8406,1.8413,1.8659,1.9217,1.9345,1.9652,2.031,2.0437,2.0906,2.1823,2.2098,2.2374,2.2882,2.3206,2.3414,2.35,2.4241,2.4827,2.5105,2.5517,2.5948,2.6531,2.7284,2.7732,2.7824,2.8473,2.8877,2.8987,2.8987,2.8987,2.8987,2.8987,2.9042,2.9207,2.9666,3.021,3.0558,3.1537,3.2252,3.2632,3.3109,3.3476,3.2876,3.3096,3.3568,3.3788,3.382,3.3815,3.3881,3.3947,3.4023,3.4272,3.4816,3.5243,3.5516,3.6105,3.6885,3.7498,3.8135,3.8952,3.9064,3.9082,3.9101,1.9977,2.0395,2.0495,2.0629,2.0794,2.0827,2.0909,2.1055,2.1071,2.1166,2.1356,2.1526,2.1735,2.201,2.2251,2.2367,2.2268,2.182,2.144,2.1113,2.0636,2.0257,2.0044,1.9998,1.9602,1.901,1.8913,1.8648,1.8239,1.8256,1.8318,1.8338,1.8445,1.8495,1.8495,1.8495,1.8495,1.8495,1.8495,1.8495,1.8495,1.8495,1.8485,1.8473,1.8455,1.8483,1.8455,1.8502,1.8495,1.8495,1.8495,1.8483,1.8396,1.8352,1.8648,1.9299,1.9359,1.9889,2.0994,2.1201,2.1598,2.2473,2.2614,2.2685,2.2935,2.3103,2.3254,2.3549,2.3898,2.4606,2.5754,2.649,2.7067,2.7412,2.8051,2.851,2.8601,2.8822,2.8987,2.8987,2.8987,2.8987,2.8987,2.9005,2.9207,2.9696,3.0044,3.065,3.1537,3.2289,3.2784,3.3256,3.3605,3.3715,3.3476,3.355,3.3788,3.3788,3.382,3.3855,3.3921,3.4052,3.4153,3.4815,3.5398,3.598,3.6309,3.6978,3.7745,3.8339,3.9027,3.9027,3.9082,3.9101,3.9101,1.9803,2.0239,2.0359,2.0495,2.0678,2.0761,2.0827,2.0877,2.0861,2.0941,2.1022,2.1166,2.1416,2.1735,2.1982,2.2281,2.2527,2.2143,2.194,2.1918,2.1376,2.1014,2.0808,2.0773,2.0406,1.9769,1.9654,1.9372,1.8935,1.8738,1.8662,1.8711,1.8566,1.8493,1.8495,1.8495,1.8495,1.8495,1.8495,1.8495,1.8495,1.8495,1.8495,1.8495,1.8495,1.8495,1.8495,1.8495,1.8495,1.8495,1.8495,1.8578,1.8717,1.8676,1.9098,1.9958,2.0108,2.0614,2.1754,2.2016,2.2292,2.2781,2.2889,2.2919,2.297,2.3084,2.3301,2.3627,2.4303,2.5107,2.6102,2.7296,2.8041,2.8125,2.8611,2.8987,2.8987,2.8987,2.8987,2.8987,2.8987,2.8987,2.9042,2.9262,2.9629,3.0173,3.0583,3.15,3.2326,3.2858,3.3128,3.3678,3.377,3.3807,3.3697,3.3733,3.3788,3.3807,3.3807,3.3855,3.4081,3.4212,3.4628,3.531,3.5992,3.6612,3.7243,3.7875,3.8432,3.8971,3.9082,3.9064,3.9101,3.9101,3.925,1.969,2.0008,2.0289,2.0393,2.0461,2.0679,2.081,2.0811,2.0826,2.0843,2.0844,2.0893,2.1119,2.1416,2.1735,2.2058,2.2343,2.2449,2.2525,2.2538,2.2534,2.2156,2.1575,2.1595,2.1199,2.0412,2.0377,2.0325,2.0182,1.9681,1.943,1.9362,1.8812,1.8593,1.8547,1.8565,1.8495,1.8495,1.8495,1.8495,1.8495,1.8495,1.8495,1.8495,1.8495,1.853,1.8547,1.853,1.8495,1.8512,1.8565,1.8838,1.9401,1.9436,2.0039,2.115,2.1549,2.1989,2.2643,2.2802,2.2802,2.2838,2.2868,2.2927,2.304,2.3383,2.3694,2.406,2.5164,2.6195,2.6449,2.7532,2.8445,2.8626,2.8839,2.8987,2.8987,2.8987,2.8987,2.8987,2.8987,2.9023,2.9189,2.9629,3.0155,3.065,3.15,3.2399,3.2748,3.3275,3.3697,3.3788,3.3807,3.3807,3.3807,3.3807,3.3807,3.3807,3.3807,3.3884,3.43,3.4587,3.5238,3.5946,3.7087,3.7726,3.8079,3.8637,3.8711,3.9101,3.9101,3.912,3.912,3.9231,3.9658,1.9398,1.9675,1.9993,2.0237,2.0427,2.0695,2.081,2.081,2.081,2.081,2.0811,2.0827,2.1023,2.1293,2.1478,2.1751,2.2061,2.2172,2.2312,2.2457,2.2487,2.2395,2.2203,2.2288,2.1957,2.1216,2.0648,2.0394,2.0389,2.0241,2.02,2.01,1.9534,1.9238,1.9275,1.8793,1.8495,1.8495,1.8495,1.8495,1.8495,1.8495,1.8512,1.8495,1.8495,1.8741,1.924,1.8793,1.8512,1.8547,1.9039,1.9608,2.0094,2.02,2.0598,2.1448,2.167,2.2037,2.2678,2.2863,2.2932,2.2881,2.2855,2.2855,2.3019,2.3897,2.4443,2.4575,2.5632,2.6524,2.7031,2.7417,2.8033,2.8547,2.8827,2.8987,2.8987,2.8987,2.8987,2.8987,2.8987,2.9225,2.9714,3.0191,3.0723,3.1592,3.2307,3.2766,3.333,3.3587,3.3788,3.3807,3.3807,3.3807,3.3807,3.3844,3.388,3.4009,3.4064,3.4196,3.4594,3.5306,3.594,3.6779,3.7922,3.8581,3.8934,3.9101,3.9101,3.9138,3.9157,3.9175,3.9175,3.9565,4.016,1.9213,1.9384,1.969,1.996,2.0272,2.0544,2.0712,2.081,2.081,2.081,2.081,2.081,2.0942,2.1135,2.1293,2.1494,2.1705,2.1749,2.1869,2.2061,2.2335,2.236,2.2388,2.2592,2.2492,2.2009,2.1509,2.1256,2.1238,2.1029,2.0963,2.0906,2.0279,1.9979,2.003,1.9345,1.8951,1.8916,1.8653,1.8495,1.8565,1.8811,1.8941,1.8976,1.9215,1.9619,2.004,1.9619,1.9355,1.9426,1.9865,2.039,2.0999,2.1051,2.1309,2.1883,2.2103,2.2336,2.2747,2.2893,2.2932,2.2919,2.2977,2.3223,2.3603,2.4563,2.4979,2.5438,2.6108,2.6816,2.7229,2.7559,2.7951,2.8572,2.8839,2.8975,2.8987,2.8987,2.9189,2.9354,2.9464,2.9843,3.0393,3.1035,3.1421,3.2417,3.2858,3.3115,3.3678,3.3788,3.3807,3.3807,3.3807,3.3807,3.3807,3.3862,3.3954,3.4174,3.4394,3.4632,3.4976,3.6007,3.6846,3.7682,3.8729,3.8785,3.9101,3.9101,3.9101,3.9157,3.9342,3.964,3.9881,4.042,4.0996,1.9101,1.9139,1.9402,1.9708,1.999,2.0256,2.0512,2.0745,2.0761,2.0794,2.0794,2.081,2.0844,2.0942,2.1167,2.1293,2.1371,2.1402,2.1402,2.1586,2.1972,2.2301,2.2351,2.2588,2.2647,2.2608,2.2556,2.2574,2.2444,2.1944,2.1722,2.177,2.1103,2.0743,2.0703,2.0128,1.9742,1.9672,1.9074,1.8793,1.8828,1.9373,1.9749,1.9777,2.0315,2.0701,2.0831,2.0883,2.0883,2.0848,2.0848,2.1212,2.1791,2.1906,2.2163,2.266,2.2799,2.276,2.2825,2.2944,2.2977,2.2952,2.3286,2.3815,2.4474,2.5027,2.5651,2.6275,2.6736,2.7077,2.7428,2.7753,2.8244,2.8639,2.8893,2.8987,2.8987,2.9042,2.9372,2.9879,3.0155,3.054,3.1323,3.199,3.2417,3.2821,3.333,3.3642,3.3752,3.3807,3.3807,3.3807,3.3807,3.4027,3.41,3.4266,3.4431,3.505,3.5289,3.5648,3.5883,3.6874,3.7651,3.8507,3.899,3.9064,3.9101,3.9101,3.9268,3.9491,3.9821,4.0267,4.075,4.1219,4.1702,1.9116,1.9139,1.9384,1.9548,1.9675,1.9975,2.0254,2.0478,2.0512,2.0628,2.0761,2.081,2.0811,2.0828,2.0958,2.1023,2.1071,2.1119,2.1119,2.1151,2.172,2.226,2.2504,2.2642,2.2725,2.2764,2.2777,2.2803,2.2838,2.2561,2.2525,2.2638,2.1882,2.1563,2.1557,2.0883,2.0532,2.0497,2.0339,2.0146,2.0163,2.0367,2.0525,2.0532,2.0725,2.1129,2.1674,2.2224,2.2189,2.1726,2.1674,2.199,2.2566,2.2646,2.2683,2.2807,2.2902,2.294,2.297,2.302,2.304,2.311,2.3656,2.4214,2.4574,2.5828,2.6585,2.7115,2.7484,2.7901,2.8286,2.8322,2.8448,2.8706,2.9014,2.9106,2.9152,2.95,2.9787,2.9519,3.043,3.1286,3.1935,3.2375,3.2858,3.333,3.3623,3.3807,3.3807,3.3807,3.3807,3.3807,3.388,3.4229,3.4472,3.4637,3.5073,3.5895,3.6434,3.7034,3.7341,3.7942,3.8493,3.9045,3.9045,3.9082,3.9101,3.912,3.9417,3.9839,4.0341,4.0824,4.1386,4.1906,4.2314,1.9116,1.912,1.9288,1.9402,1.9497,1.9708,2.0013,2.0326,2.0395,2.0545,2.0761,2.081,2.081,2.0826,2.0844,2.0845,2.0876,2.0941,2.0941,2.0974,2.1478,2.207,2.2548,2.2712,2.2738,2.279,2.2803,2.2842,2.2893,2.2855,2.2906,2.2895,2.2534,2.2391,2.24,2.1709,2.1305,2.1235,2.1035,2.0824,2.0824,2.1147,2.1305,2.1393,2.1568,2.2048,2.2487,2.2879,2.2861,2.254,2.247,2.2639,2.2987,2.302,2.2977,2.294,2.2914,2.2944,2.2995,2.302,2.3045,2.3242,2.391,2.4544,2.5123,2.6326,2.7225,2.7666,2.7874,2.8219,2.8601,2.8619,2.8813,2.9259,2.9447,2.9517,2.9423,2.988,3.0308,3.062,3.1311,3.2155,3.2761,3.2999,3.3311,3.366,3.3752,3.3807,3.3807,3.3807,3.3862,3.3917,3.4192,3.4601,3.5041,3.5298,3.5877,3.6681,3.7323,3.7981,3.827,3.8683,3.8874,3.9082,3.9082,3.9138,3.9212,3.9398,3.9858,4.0323,4.0843,4.1479,4.211,4.2575,4.2983,1.9116,1.9116,1.9116,1.925,1.9424,1.946,1.9749,2.0222,2.0308,2.0478,2.0712,2.0778,2.081,2.081,2.0811,2.0826,2.0811,2.0827,2.0893,2.1039,2.1401,2.1943,2.2552,2.2659,2.2712,2.276,2.2803,2.2868,2.2932,2.2932,2.2927,2.2973,2.2968,2.301,2.2867,2.2382,2.2148,2.2008,2.1586,2.134,2.141,2.1814,2.2095,2.2171,2.2575,2.2844,2.2984,2.3107,2.3054,2.3089,2.3107,2.3054,2.3077,2.3045,2.3033,2.299,2.2927,2.2932,2.2995,2.2995,2.3082,2.34,2.4198,2.4983,2.5775,2.6803,2.7622,2.8045,2.8003,2.8192,2.8497,2.8761,2.9216,2.972,3.0045,3.0247,3.0307,3.0375,3.0999,3.2307,3.2559,3.3109,3.3532,3.3807,3.3807,3.3733,3.3807,3.3807,3.3807,3.3807,3.3972,3.4156,3.4546,3.5059,3.5536,3.6009,3.6736,3.7515,3.8099,3.8596,3.8697,3.8952,3.9031,3.9101,3.9101,3.925,3.9491,3.9807,4.0304,4.1029,4.1702,4.2352,4.2946,4.328,4.3652,1.9116,1.9116,1.9116,1.9139,1.9161,1.918,1.9402,1.9714,1.9993,2.0254,2.0478,2.0696,2.081,2.081,2.081,2.081,2.081,2.0843,2.0974,2.1354,2.14,2.1825,2.2332,2.2525,2.2659,2.2738,2.2876,2.2982,2.3033,2.299,2.3003,2.307,2.3045,2.3033,2.3042,2.2914,2.2861,2.2821,2.2628,2.2487,2.2452,2.2628,2.2803,2.2821,2.3002,2.3072,2.3107,2.3107,2.3107,2.3107,2.3107,2.3107,2.3107,2.3095,2.3082,2.307,2.3057,2.3045,2.307,2.3122,2.3345,2.3975,2.4786,2.5689,2.6566,2.742,2.8005,2.8242,2.8281,2.8321,2.8499,2.9052,2.9546,2.9961,3.055,3.1208,3.1777,3.2027,3.2169,3.2425,3.3036,3.3587,3.377,3.3807,3.3807,3.3807,3.3807,3.3807,3.388,3.3935,3.4266,3.4651,3.5202,3.5789,3.6358,3.6864,3.7492,3.8033,3.8567,3.8931,3.9017,3.924,3.9324,3.9231,3.9101,3.9361,3.9788,4.0346,4.0861,4.172,4.25,4.2983,4.3448,4.3856,4.4191,1.9116,1.9116,1.9116,1.9116,1.9116,1.9116,1.9269,1.953,1.9833,2.0166,2.041,2.0695,2.081,2.081,2.081,2.081,2.081,2.0811,2.099,2.1277,2.1386,2.1616,2.2034,2.2374,2.2609,2.2712,2.2906,2.3033,2.307,2.307,2.3052,2.3107,2.3052,2.3052,2.3107,2.3107,2.3072,2.3072,2.3107,2.3107,2.3107,2.3107,2.3107,2.3107,2.3107,2.3107,2.3107,2.3107,2.3107,2.3107,2.3107,2.3107,2.3107,2.3107,2.3107,2.3107,2.307,2.3082,2.3095,2.3445,2.3818,2.4308,2.5336,2.6085,2.6784,2.755,2.8,2.8049,2.816,2.8336,2.873,2.9084,2.9705,3.0749,3.1243,3.1997,3.277,3.2865,3.282,3.2952,3.3458,3.3697,3.3807,3.3807,3.3807,3.3807,3.388,3.3917,3.4472,3.4601,3.5,3.544,3.5991,3.6574,3.7217,3.7754,3.8214,3.8549,3.8787,3.9007,3.9059,3.9347,3.9621,3.951,3.9417,3.9788,4.0234,4.081,4.1512,4.2259,4.2946,4.3448,4.3782,4.3949,4.4339,1.9116,1.9116,1.9116,1.9116,1.9116,1.9101,1.9232,1.9472,1.9848,2.0098,2.0359,2.0662,2.081,2.081,2.081,2.081,2.081,2.0827,2.0974,2.1199,2.1277,2.1495,2.1812,2.2248,2.2552,2.2685,2.2919,2.3045,2.3095,2.3107,2.3095,2.3107,2.3107,2.3089,2.3107,2.3107,2.3107,2.3107,2.3107,2.3107,2.3107,2.3107,2.3107,2.3107,2.3107,2.3107,2.3107,2.3107,2.3107,2.3107,2.3107,2.3107,2.3107,2.3107,2.3107,2.3107,2.3057,2.3193,2.3458,2.3866,2.4287,2.4585,2.5766,2.6549,2.6882,2.7376,2.7736,2.7836,2.7957,2.8351,2.9151,2.9431,3.0287,3.1452,3.2054,3.2657,3.3282,3.3156,3.3233,3.3563,3.3697,3.377,3.3807,3.3807,3.3807,3.3844,3.3935,3.4192,3.4766,3.5316,3.5734,3.6138,3.6652,3.7228,3.7868,3.8118,3.8649,3.8847,3.8997,3.9202,3.931,3.9677,3.9955,3.9881,3.9918,4.0401,4.0996,4.1702,4.2352,4.2927,4.3318,4.3745,4.3931,4.4005,4.4488,1.9116,1.9116,1.9116,1.9116,1.9116,1.9116,1.9139,1.9254,1.9759,2.0008,2.0148,2.0561,2.081,2.081,2.081,2.0826,2.0843,2.086,2.099,2.1183,2.1294,2.1481,2.1769,2.2234,2.2515,2.2636,2.2881,2.3095,2.3107,2.3107,2.3107,2.3107,2.3107,2.3107,2.3107,2.3107,2.3107,2.3107,2.3107,2.3107,2.3107,2.3107,2.3107,2.3107,2.3107,2.3107,2.3107,2.3107,2.3107,2.3107,2.3107,2.3107,2.3107,2.3107,2.3107,2.3125,2.3182,2.344,2.3909,2.4256,2.5015,2.5858,2.6511,2.6964,2.7318,2.761,2.773,2.7798,2.7927,2.8311,2.9133,2.9627,3.0415,3.1515,3.2297,3.2801,3.3339,3.3497,3.3464,3.3716,3.378,3.3807,3.3807,3.3875,3.3949,3.4151,3.4408,3.4793,3.5399,3.5968,3.6464,3.6886,3.7309,3.7886,3.8482,3.8567,3.8796,3.8968,3.9188,3.9606,3.9779,4.0141,4.0323,4.0587,4.094,4.146,4.2054,4.2593,4.302,4.3448,4.3745,4.4005,4.4061,4.4153,4.4674,1.9116,1.9116,1.9116,1.9116,1.9116,1.9116,1.9116,1.9195,1.9708,2.0005,2.0148,2.056,2.081,2.081,2.081,2.0859,2.0957,2.1039,2.1151,2.1293,2.1419,2.1527,2.1754,2.2248,2.2446,2.2623,2.2893,2.3089,2.3107,2.3107,2.3107,2.3107,2.3107,2.3107,2.3107,2.3107,2.3107,2.3107,2.3107,2.3107,2.3107,2.3107,2.3107,2.3107,2.3107,2.3107,2.3107,2.3107,2.3107,2.3107,2.3107,2.3107,2.3107,2.3125,2.3125,2.3207,2.3488,2.3869,2.4449,2.4923,2.5893,2.6455,2.6897,2.728,2.7578,2.7698,2.7748,2.7883,2.8338,2.8802,2.967,3.0192,3.1095,3.2005,3.2535,3.2856,3.3235,3.3498,3.3615,3.3684,3.3793,3.3834,3.382,3.3894,3.4072,3.4385,3.4807,3.5413,3.6052,3.6658,3.7243,3.7614,3.7981,3.8213,3.8696,3.8763,3.901,3.9186,3.9495,3.9894,4.0502,4.0958,4.1404,4.1794,4.2184,4.2445,4.2667,4.3039,4.3503,4.3875,4.3949,4.4042,4.4153,4.4395,4.4952,1.9116,1.9116,1.9116,1.9116,1.9116,1.9116,1.9116,1.9213,1.9636,1.9935,2.0061,2.0477,2.0745,2.0794,2.086,2.0958,2.1119,2.1214,2.1309,2.1386,2.1527,2.1619,2.1829,2.2178,2.2501,2.2555,2.2829,2.3052,2.3089,2.3107,2.3107,2.3107,2.3107,2.3107,2.3107,2.3107,2.3107,2.3107,2.3107,2.3107,2.3107,2.3107,2.3107,2.3107,2.3107,2.3107,2.3107,2.3107,2.3107,2.3107,2.3107,2.3107,2.3125,2.326,2.3348,2.344,2.3975,2.4326,2.5064,2.5717,2.6507,2.6932,2.7385,2.7613,2.7683,2.7716,2.7748,2.7965,2.8511,2.9235,2.9973,3.0738,3.1592,3.2338,3.2632,3.2784,3.3114,3.3386,3.353,3.3643,3.3807,3.3879,3.3884,3.392,3.4081,3.4775,3.5216,3.6103,3.6742,3.747,3.8004,3.8357,3.86,3.8615,3.8788,3.8826,3.9146,3.953,3.9935,4.0405,4.1163,4.1906,4.2333,4.2705,4.2946,4.3169,4.3336,4.3429,4.3745,4.3949,4.3986,4.4191,4.4525,4.4915,4.5435,1.9116,1.9116,1.9116,1.9116,1.9116,1.9116,1.9116,1.9153,1.9439,1.9744,1.999,2.0306,2.0579,2.0794,2.099,2.1055,2.1151,2.1278,2.1371,2.1448,2.1573,2.1649,2.1769,2.2248,2.25,2.262,2.2815,2.2932,2.316,2.3198,2.3089,2.3077,2.3095,2.3107,2.3107,2.3107,2.3107,2.3107,2.3107,2.3107,2.3107,2.3107,2.3107,2.3107,2.3107,2.3107,2.3107,2.3107,2.3142,2.3177,2.3125,2.3107,2.3212,2.3817,2.4098,2.4168,2.4379,2.4888,2.5963,2.6542,2.6946,2.7315,2.7646,2.7698,2.7716,2.7701,2.7733,2.7751,2.8506,2.9349,3.0175,3.0777,3.158,3.2139,3.2541,3.2722,3.3024,3.3265,3.343,3.3684,3.386,3.3947,3.3989,3.4034,3.4163,3.4917,3.5711,3.6632,3.7411,3.8066,3.842,3.8648,3.8777,3.8777,3.8807,3.8862,3.9305,3.98,4.0395,4.094,4.1776,4.2537,4.3058,4.341,4.3615,4.3689,4.3708,4.3801,4.3968,4.4005,4.4005,4.4488,4.5082,4.5509,4.5937,1.8879,1.9116,1.9116,1.9116,1.9116,1.9116,1.9116,1.9157,1.9384,1.9621,1.9887,2.0239,2.0545,2.0811,2.1055,2.1199,2.1262,2.145,2.1526,2.1572,2.1696,2.1709,2.1783,2.2092,2.2406,2.2901,2.3209,2.3743,2.3713,2.3241,2.2855,2.3135,2.3025,2.2995,2.3252,2.3125,2.3107,2.3107,2.3107,2.3107,2.3107,2.3107,2.3107,2.3107,2.3107,2.3107,2.3142,2.3107,2.3383,2.3523,2.3435,2.3581,2.4137,2.4589,2.4765,2.5612,2.563,2.5963,2.6525,2.6964,2.735,2.7561,2.7716,2.7716,2.7716,2.7736,2.7964,2.8386,2.9123,2.9878,3.0633,3.1407,3.1914,3.23,3.244,3.2657,3.2912,3.3114,3.3335,3.3638,3.3973,3.4226,3.4547,3.4895,3.5177,3.5745,3.6499,3.7329,3.7981,3.8541,3.8719,3.8752,3.8792,3.8777,3.8822,3.8866,3.942,4.0007,4.0896,4.1534,4.2389,4.3095,4.354,4.3782,4.3838,4.3931,4.4005,4.4005,4.4005,4.4005,4.4005,4.4655,4.5324,4.5992,4.6568,1.8688,1.8955,1.9064,1.9116,1.9116,1.9116,1.9116,1.912,1.931,1.953,1.9887,2.0357,2.0728,2.0909,2.1119,2.1262,2.1356,2.1753,2.181,2.1822,2.1917,2.195,2.1991,2.2151,2.2702,2.3225,2.3606,2.4084,2.4159,2.3773,2.3282,2.3643,2.3811,2.3693,2.3701,2.3821,2.3892,2.3879,2.3844,2.3704,2.3523,2.347,2.3312,2.3177,2.3107,2.3177,2.3383,2.3435,2.3804,2.4295,2.4137,2.437,2.505,2.5296,2.5612,2.6314,2.6542,2.6806,2.7069,2.7332,2.7663,2.7716,2.7716,2.7716,2.7736,2.7806,2.814,2.8789,2.9843,3.0527,3.1177,3.1879,3.2248,3.2353,3.2423,3.264,3.288,3.3165,3.3698,3.4312,3.4697,3.4995,3.5354,3.5845,3.6268,3.668,3.7325,3.8014,3.8481,3.8913,3.8906,3.8833,3.8788,3.8825,3.8859,3.9032,3.9568,4.0307,4.1212,4.2129,4.3002,4.3466,4.3819,4.3968,4.4005,4.4005,4.4005,4.4005,4.4023,4.4098,4.4265,4.4878,4.5528,4.6308,4.7144,1.8519,1.8592,1.8936,1.9116,1.9116,1.9116,1.9116,1.9116,1.9139,1.9472,2.0028,2.0678,2.1022,2.1199,2.1327,2.1438,2.1467,2.2278,2.2338,2.2314,2.2394,2.2443,2.2471,2.2742,2.3195,2.3464,2.3964,2.4408,2.4586,2.4551,2.4564,2.5076,2.4701,2.5026,2.5055,2.4813,2.4875,2.4875,2.4892,2.4664,2.4361,2.415,2.3922,2.3383,2.3247,2.3435,2.4163,2.4203,2.4541,2.5279,2.5138,2.5243,2.5752,2.6121,2.656,2.6788,2.721,2.7403,2.7526,2.7561,2.7663,2.7716,2.7716,2.7786,2.7929,2.8456,2.8807,2.9158,3.0317,3.0984,3.144,3.1844,3.2335,3.2406,3.2474,3.2739,3.3013,3.337,3.3953,3.4862,3.5409,3.5732,3.6189,3.6673,3.6845,3.7216,3.7649,3.8338,3.8607,3.895,3.895,3.8892,3.8833,3.884,3.8914,3.9324,4.0008,4.0859,4.1768,4.2708,4.3615,4.3949,4.4005,4.4005,4.4005,4.4005,4.4005,4.4005,4.4061,4.4209,4.4562,4.5249,4.6271,4.7293,4.7943,1.824,1.8539,1.8931,1.9116,1.9116,1.9116,1.9116,1.9116,1.9116,1.9493,2.0152,2.0663,2.1055,2.1343,2.1859,2.2085,2.2295,2.3063,2.3176,2.3273,2.3371,2.3371,2.3352,2.3484,2.3914,2.4296,2.4696,2.5229,2.5797,2.5447,2.5861,2.6038,2.5367,2.5017,2.5048,2.5474,2.5493,2.5472,2.5454,2.5226,2.5121,2.498,2.484,2.4576,2.4493,2.4647,2.4958,2.498,2.5454,2.5893,2.5963,2.6226,2.6578,2.7034,2.7174,2.7227,2.7561,2.7666,2.7716,2.7716,2.7716,2.7716,2.7751,2.7909,2.8298,2.8772,2.9509,3.0141,3.0808,3.137,3.1984,3.2213,3.2406,3.2406,3.2577,3.2825,3.3286,3.3716,3.4495,3.5551,3.6102,3.6493,3.6993,3.7525,3.7609,3.7734,3.8163,3.8537,3.8787,3.896,3.8979,3.8964,3.8906,3.8862,3.8936,3.9645,4.05,4.1356,4.2251,4.3098,4.3856,4.3968,4.4005,4.4005,4.4005,4.4005,4.4005,4.4005,4.4209,4.4581,4.5101,4.5714,4.6865,4.8147,4.8537,1.8068,1.8533,1.8917,1.9116,1.9116,1.9116,1.9116,1.9116,1.9116,1.9533,2.0227,2.0579,2.1117,2.1698,2.2086,2.2704,2.3096,2.377,2.3968,2.4067,2.4133,2.415,2.4133,2.4249,2.4564,2.5094,2.5425,2.5862,2.6267,2.6452,2.6437,2.6152,2.5646,2.5433,2.5769,2.5928,2.6055,2.6086,2.6086,2.591,2.5844,2.577,2.5524,2.5384,2.5243,2.5489,2.5665,2.5823,2.6174,2.6613,2.6858,2.7034,2.7403,2.7716,2.7716,2.7716,2.7716,2.7716,2.7716,2.7716,2.7716,2.7716,2.8052,2.8368,2.8789,2.9281,3.0264,3.0878,3.1352,3.1791,3.2406,3.2406,3.2406,3.2423,3.2827,3.3155,3.3858,3.4401,3.5304,3.6232,3.673,3.7266,3.778,3.8262,3.8262,3.8308,3.8502,3.8765,3.8872,3.9007,3.9031,3.9021,3.8979,3.895,3.8991,4.0037,4.1011,4.1534,4.2396,4.3246,4.3838,4.3949,4.4005,4.4005,4.4005,4.4005,4.4135,4.4302,4.4674,4.5119,4.5825,4.6643,4.746,4.8574,4.8686,1.8068,1.8519,1.8936,1.9116,1.9116,1.9116,1.9116,1.9116,1.9139,1.9581,2.0302,2.0471,2.132,2.2297,2.2538,2.3078,2.3901,2.451,2.4676,2.4513,2.4828,2.4646,2.4613,2.4795,2.516,2.5275,2.5673,2.6055,2.6239,2.6274,2.6276,2.6328,2.6098,2.6269,2.7203,2.7477,2.7596,2.7596,2.7473,2.7069,2.6718,2.656,2.6244,2.5946,2.5805,2.6139,2.6437,2.656,2.6894,2.7297,2.7452,2.7526,2.7663,2.7716,2.7716,2.7716,2.7716,2.7716,2.7716,2.7716,2.7839,2.8014,2.8473,2.9018,2.9316,3.0088,3.1001,3.1458,3.1844,3.2213,3.2406,3.2406,3.2406,3.2687,3.3108,3.3668,3.4363,3.5199,3.6098,3.6897,3.7479,3.803,3.8558,3.8957,3.892,3.8943,3.897,3.8993,3.8993,3.9036,3.9059,3.9064,3.9054,3.9262,3.9526,4.0637,4.1519,4.1987,4.2593,4.3448,4.3875,4.3968,4.4005,4.4005,4.4005,4.4005,4.4339,4.4674,4.5305,4.6011,4.6958,4.7776,4.8481,4.8834,4.8872,1.8068,1.8539,1.895,1.9116,1.9116,1.9116,1.9116,1.9139,1.9339,1.9811,2.0506,2.085,2.1749,2.2771,2.351,2.3973,2.4693,2.5439,2.554,2.549,2.5656,2.569,2.559,2.554,2.5772,2.5871,2.6136,2.6185,2.6203,2.6185,2.6185,2.6221,2.638,2.6691,2.7117,2.7461,2.7698,2.7698,2.7648,2.7543,2.735,2.728,2.7139,2.6823,2.6806,2.6964,2.7227,2.7227,2.742,2.7681,2.7716,2.7716,2.7716,2.7716,2.7716,2.7716,2.7716,2.7716,2.7877,2.8087,2.8491,2.8772,2.9211,2.9878,3.044,3.0791,3.1388,3.1826,3.216,3.2406,3.2406,3.2406,3.2529,3.3073,3.3583,3.4247,3.4968,3.5935,3.6835,3.7538,3.816,3.8451,3.8896,3.9045,3.9078,3.9078,3.9064,3.9021,3.9021,3.9045,3.9087,3.9087,3.9147,3.9482,4.0043,4.1086,4.1883,4.2359,4.2983,4.3745,4.3986,4.4005,4.4005,4.4005,4.4005,4.4042,4.4636,4.5287,4.6197,4.7014,4.7794,4.8277,4.8667,4.8872,4.889,1.8167,1.8726,1.8988,1.9116,1.9116,1.9116,1.9116,1.9139,1.9358,1.9901,2.0584,2.0928,2.1968,2.3265,2.4007,2.4868,2.5455,2.5921,2.6185,2.6185,2.6169,2.6104,2.6103,2.6185,2.6086,2.6185,2.6185,2.6185,2.6185,2.6185,2.6185,2.6257,2.6468,2.6742,2.7054,2.7369,2.7627,2.7657,2.7683,2.7698,2.7646,2.7663,2.7663,2.761,2.7628,2.7681,2.7698,2.7716,2.7716,2.7716,2.7716,2.7716,2.7716,2.7716,2.7716,2.7716,2.7716,2.7856,2.8228,2.8895,2.9369,2.979,3.0246,3.0685,3.1194,3.1458,3.1826,3.2195,3.2388,3.2406,3.2406,3.2423,3.2774,3.3301,3.4023,3.4674,3.5809,3.6796,3.7505,3.8184,3.8526,3.8836,3.9007,3.9045,3.9087,3.9101,3.9101,3.9059,3.9036,3.9059,3.9175,3.925,3.9454,3.9867,4.0517,4.1427,4.2151,4.2723,4.3336,4.3968,4.4005,4.4005,4.4005,4.4023,4.4042,4.4302,4.5138,4.5937,4.6903,4.7683,4.8351,4.8723,4.8872,4.889,4.8909,1.8285,1.9045,1.9116,1.9116,1.9116,1.9116,1.9116,1.912,1.9246,1.9815,2.0631,2.0629,2.1976,2.3814,2.398,2.4724,2.5847,2.6152,2.6185,2.6185,2.6185,2.6185,2.6185,2.6185,2.6185,2.6185,2.6185,2.6185,2.6185,2.6185,2.6185,2.6239,2.6415,2.6708,2.7006,2.723,2.7476,2.7627,2.7716,2.7716,2.7716,2.7716,2.7716,2.7716,2.7716,2.7716,2.7716,2.7716,2.7716,2.7716,2.7716,2.7716,2.7716,2.7716,2.7716,2.7716,2.7733,2.8245,2.8754,2.9492,3.0264,3.0685,3.1107,3.1247,3.1458,3.1879,3.2177,3.2318,3.2406,3.2406,3.2406,3.2651,3.2897,3.3599,3.4372,3.5385,3.665,3.754,3.8193,3.8671,3.8845,3.9021,3.9017,3.9059,3.9101,3.9101,3.9101,3.9073,3.9064,3.9073,3.9231,3.9547,3.9825,4.0346,4.107,4.1962,4.2556,4.315,4.3503,4.4005,4.4005,4.4005,4.4005,4.4023,4.4079,4.4562,4.5565,4.6624,4.7701,4.837,4.876,4.8834,4.889,4.8909,4.8946,1.8147,1.8688,1.8988,1.9116,1.9116,1.9116,1.9116,1.9134,1.9261,1.9931,2.1035,2.1482,2.2655,2.4469,2.4856,2.5466,2.589,2.6185,2.6185,2.6185,2.6185,2.6185,2.6185,2.6185,2.6185,2.6185,2.6185,2.6185,2.6185,2.6185,2.6185,2.6221,2.631,2.6606,2.6892,2.707,2.7369,2.7595,2.7701,2.7716,2.7716,2.7716,2.7716,2.7716,2.7716,2.7716,2.7716,2.7716,2.7716,2.7716,2.7716,2.7716,2.7716,2.7716,2.7716,2.7771,2.8157,2.8719,2.9088,3.0141,3.1001,3.1317,3.1686,3.2019,3.2142,3.2213,3.2406,3.2406,3.2406,3.2406,3.2564,3.2809,3.3301,3.4056,3.4884,3.5936,3.7088,3.7804,3.8442,3.8869,3.9045,3.9045,3.9059,3.9073,3.9101,3.9101,3.9087,3.9073,3.9059,3.9087,3.937,3.9718,4.0304,4.0824,4.1702,4.2593,4.3076,4.3559,4.3838,4.4005,4.4005,4.4005,4.4005,4.4228,4.4562,4.5268,4.616,4.72,4.8184,4.8519,4.8872,4.889,4.889,4.8909,4.915,1.8068,1.8533,1.8936,1.9116,1.9116,1.9157,1.9176,1.9195,1.925,2.0001,2.1195,2.165,2.2915,2.454,2.498,2.5484,2.6134,2.6185,2.6185,2.6185,2.6185,2.6185,2.6185,2.6185,2.6185,2.6185,2.6185,2.6185,2.6185,2.6185,2.6185,2.6185,2.6185,2.6521,2.6858,2.7054,2.7276,2.7552,2.7716,2.7716,2.7716,2.7716,2.7716,2.7716,2.7716,2.7716,2.7716,2.7716,2.7716,2.7716,2.7716,2.7716,2.7821,2.7947,2.8193,2.8368,2.8947,2.9527,3.0001,3.0598,3.123,3.1668,3.209,3.2265,3.2371,3.2371,3.2406,3.2406,3.2406,3.2458,3.2704,3.3038,3.381,3.4601,3.5506,3.6414,3.7202,3.7925,3.8473,3.8942,3.9101,3.9101,3.9101,3.9101,3.9101,3.9101,3.9101,3.9087,3.9087,3.9087,3.9505,3.9958,4.0651,4.1345,4.2259,4.3058,4.3448,4.3763,4.3875,4.4005,4.4005,4.4079,4.4153,4.4655,4.5249,4.6011,4.6773,4.7627,4.8463,4.8742,4.889,4.889,4.889,4.889,4.928,1.8028,1.8481,1.8931,1.9116,1.9134,1.9246,1.9284,1.9302,1.9302,2.001,2.1004,2.1385,2.2706,2.4331,2.4854,2.5443,2.5972,2.6185,2.6185,2.6185,2.6185,2.6185,2.6185,2.6185,2.6185,2.6185,2.6185,2.6185,2.6185,2.6185,2.6185,2.6185,2.6185,2.6434,2.6842,2.6973,2.7197,2.7537,2.7672,2.7716,2.7716,2.7716,2.7716,2.7716,2.7716,2.7716,2.7716,2.7716,2.7716,2.7716,2.7716,2.7716,2.8105,2.8403,2.8719,2.9246,2.9772,3.0282,3.0756,3.1247,3.1686,3.209,3.2406,3.2406,3.2406,3.2406,3.2406,3.2406,3.2406,3.2634,3.2897,3.3494,3.4231,3.5004,3.5853,3.6772,3.761,3.8216,3.8643,3.9013,3.9101,3.9101,3.9101,3.9101,3.9101,3.9101,3.9101,3.9101,3.9198,3.9198,3.9797,4.0385,4.1212,4.1999,4.276,4.3466,4.3763,4.3986,4.4005,4.4005,4.4005,4.4153,4.4321,4.4934,4.5584,4.6531,4.7367,4.811,4.8612,4.8779,4.889,4.889,4.8909,4.8983,4.9633,1.7639,1.8201,1.8822,1.9116,1.9134,1.9246,1.9288,1.9302,1.9358,1.9855,2.0714,2.1631,2.2701,2.3978,2.4911,2.5572,2.6007,2.6168,2.6185,2.6185,2.6185,2.6185,2.6185,2.6185,2.6185,2.6185,2.6185,2.6185,2.6185,2.6185,2.6185,2.6203,2.6221,2.6451,2.6759,2.6891,2.7214,2.7537,2.7642,2.7701,2.7716,2.7716,2.7716,2.7716,2.7716,2.7716,2.7716,2.7716,2.7716,2.7716,2.7716,2.8017,2.8579,2.8825,2.9246,2.9808,3.051,3.1001,3.1317,3.1721,3.2125,3.2248,3.2406,3.2406,3.2406,3.2406,3.2406,3.2406,3.2511,3.2757,3.3231,3.3951,3.4672,3.5428,3.6202,3.7131,3.8033,3.8439,3.8869,3.8984,3.9069,3.9101,3.9101,3.9101,3.9101,3.9101,3.9101,3.9161,3.9426,3.9579,4.0401,4.1078,4.1932,4.2723,4.3392,4.3708,4.3931,4.4005,4.4005,4.4005,4.4005,4.4283,4.4581,4.5212,4.5918,4.6903,4.7738,4.8314,4.8723,4.8853,4.889,4.889,4.915,4.9262,5.0098,1.7475,1.8022,1.8822,1.9176,1.9209,1.9302,1.9376,1.9413,1.9409,1.9679,2.0288,2.1374,2.2528,2.3681,2.4745,2.5465,2.5883,2.6115,2.6168,2.6185,2.6185,2.6185,2.6185,2.6185,2.6185,2.6185,2.6185,2.6185,2.6185,2.6185,2.6185,2.6238,2.6309,2.652,2.6775,2.7039,2.7277,2.7539,2.7642,2.7701,2.7716,2.7716,2.7716,2.7716,2.7716,2.7716,2.7716,2.7716,2.7716,2.7891,2.8052,2.8719,2.9334,2.9843,3.0176,3.065,3.1212,3.1739,3.1861,3.209,3.2406,3.2406,3.2406,3.2406,3.2406,3.2406,3.2406,3.2406,3.2406,3.2634,3.3546,3.4323,3.5102,3.5863,3.6701,3.7595,3.8231,3.8703,3.8942,3.9041,3.9101,3.9101,3.9101,3.9101,3.9101,3.9101,3.9101,3.9175,3.9444,4.0191,4.0981,4.1664,4.2463,4.315,4.3689,4.3893,4.3968,4.4005,4.4005,4.4005,4.4061,4.4451,4.4878,4.5621,4.642,4.7348,4.811,4.8593,4.8779,4.8872,4.889,4.889,4.9187,4.9559,5.0376,1.7393,1.7942,1.8822,1.925,1.9288,1.9358,1.9483,1.9556,1.9487,1.9541,1.9911,2.1048,2.2164,2.3203,2.4253,2.493,2.5521,2.6008,2.6168,2.6185,2.6185,2.6185,2.6185,2.6185,2.6185,2.6185,2.6185,2.6185,2.6185,2.6203,2.6221,2.6291,2.6502,2.6742,2.7006,2.7263,2.7448,2.7552,2.7657,2.7701,2.7716,2.7716,2.7716,2.7716,2.7716,2.7736,2.7806,2.7874,2.7891,2.828,2.8772,2.9439,3.0053,3.0615,3.1019,3.1423,3.1826,3.2177,3.2318,3.2318,3.2406,3.2406,3.2406,3.2406,3.2406,3.2406,3.2406,3.2476,3.2476,3.3036,3.3967,3.4816,3.5616,3.6451,3.7289,3.7948,3.8439,3.888,3.8998,3.9101,3.9101,3.9101,3.9101,3.9101,3.9101,3.9101,3.9212,3.925,3.9621,4.0777,4.1757,4.224,4.2797,4.3429,4.3949,4.4005,4.4005,4.4005,4.4005,4.4005,4.4135,4.4599,4.5268,4.6178,4.7014,4.7757,4.8296,4.8779,4.889,4.889,4.889,4.8927,4.9224,4.967,5.0506,1.7261,1.8022,1.8519,1.895,1.9284,1.9376,1.9483,1.9611,1.9617,1.9672,2.0004,2.103,2.2041,2.2547,2.3598,2.4496,2.5427,2.5954,2.6168,2.6185,2.6185,2.6185,2.6185,2.6185,2.6185,2.6185,2.6185,2.6185,2.6221,2.6221,2.631,2.6468,2.652,2.6742,2.6989,2.723,2.7434,2.7524,2.7659,2.7719,2.7786,2.7786,2.7716,2.7716,2.7716,2.8122,2.8456,2.8649,2.907,2.9492,2.979,3.0299,3.0791,3.123,3.1545,3.1879,3.23,3.2353,3.2406,3.2406,3.2406,3.2406,3.2406,3.2406,3.2406,3.2406,3.2493,3.2669,3.2949,3.381,3.4709,3.5543,3.6362,3.7279,3.8163,3.8344,3.864,3.8894,3.9055,3.9101,3.9101,3.9101,3.9101,3.9101,3.9101,3.9268,3.9751,3.9825,4.0062,4.1237,4.2482,4.2797,4.3132,4.3559,4.4005,4.4005,4.4005,4.4005,4.4061,4.4135,4.4376,4.4822,4.5565,4.6587,4.7293,4.798,4.8481,4.889,4.889,4.889,4.889,4.8983,4.9243,4.9856,5.0766]}]]